GFSSW_700_spd_000.txt.gz
Wind_Speed
17 19 19 18 17 16 15 17 17 18 18 20 20 20 21 21 24 21 18 16 18 20 21 24 26 27 29 29 29 31 33 39 37 32 26 21 11 12 14 20 21 16 17 10 12
18 17 18 18 17 16 16 16 17 18 18 20 18 21 22 22 24 26 15 21 19 20 19 22 24 28 31 30 31 35 42 45 38 34 29 22 23 17 16 21 25 23 17 19 15
20 18 17 18 17 17 17 15 15 16 18 18 18 21 16 18 27 26 20 22 24 21 21 20 22 27 31 30 34 39 47 41 41 35 28 29 30 25 21 23 26 27 18 14 15
22 21 18 18 17 18 17 15 13 14 15 17 18 21 23 22 16 20 16 14 16 20 22 20 21 24 28 33 35 41 43 42 40 36 31 32 28 29 29 27 26 28 23 22 19
23 22 20 18 18 19 19 17 15 14 15 17 20 21 20 22 27 26 26 24 21 16 12 13 19 26 28 29 31 40 42 40 39 37 36 30 35 34 35 29 23 29 31 27 28
25 23 21 20 19 19 21 19 17 15 16 18 19 18 19 23 21 26 27 25 26 23 24 25 23 20 28 29 31 31 35 39 37 36 35 34 36 37 39 35 35 35 37 32 30
27 25 23 22 20 20 20 20 18 17 16 15 14 11 12 8 18 25 23 20 25 22 19 20 17 24 27 26 28 36 37 30 40 37 35 27 39 46 37 34 34 31 19 23 29
28 28 25 23 20 20 20 21 20 19 19 20 19 13 12 13 17 24 22 19 20 17 16 15 18 26 30 27 22 29 36 39 34 30 35 30 56 38 35 34 34 32 26 26 27
30 29 27 24 21 20 20 20 22 22 21 20 22 19 17 19 16 20 22 21 19 19 18 18 24 29 31 26 27 26 28 27 35 32 31 37 52 40 33 32 31 23 22 21 27
29 31 29 26 23 21 19 20 21 23 25 23 25 22 17 17 15 16 19 20 21 22 23 27 28 29 28 29 33 28 28 34 32 18 32 40 49 41 37 35 36 24 23 23 31
29 29 28 27 24 22 20 20 22 26 27 24 22 20 22 24 20 18 19 19 23 25 27 29 35 40 37 35 31 37 32 34 22 21 35 33 37 41 39 37 35 33 27 25 25
29 30 28 28 25 23 21 20 20 25 25 25 24 27 25 28 25 16 19 21 23 28 28 30 35 32 30 34 38 32 39 40 36 25 23 30 40 35 41 40 32 30 25 29 30
29 31 28 26 26 25 19 18 19 23 25 29 25 32 26 29 28 21 19 20 23 25 29 36 25 26 34 31 32 40 43 37 34 29 29 28 42 37 42 45 37 31 27 27 33
32 31 32 29 30 22 19 15 17 18 14 18 12 14 11 22 23 19 20 22 25 27 27 25 30 26 19 35 31 36 32 33 33 23 20 14 14 26 32 43 44 40 36 34 32
33 30 29 29 26 21 13 14 16 10 4 5 9 7 5 11 9 8 7 23 29 29 27 24 24 28 39 35 27 36 32 29 25 25 26 35 22 27 26 32 36 41 38 41 39
34 33 32 32 25 20 16 17 15 6 8 8 9 7 9 10 12 11 10 14 25 31 35 37 18 23 26 28 37 17 17 18 18 18 16 38 21 29 35 35 34 33 39 41 42
32 35 34 25 23 21 19 20 11 8 6 8 9 10 11 11 11 15 20 22 21 26 28 29 38 35 27 22 22 29 25 5 9 10 9 4 24 42 24 33 29 31 34 40 41
24 41 33 29 25 23 22 23 9 6 11 7 6 9 14 12 15 14 20 24 27 30 8 17 8 29 30 37 24 31 34 12 6 4 6 22 15 20 26 35 27 33 40 43 44
17 35 36 32 28 25 26 19 9 14 11 9 8 10 11 13 11 10 21 28 26 31 26 9 15 18 20 25 33 28 31 41 12 18 9 14 17 32 35 31 34 30 27 32 48
16 45 33 34 27 25 29 26 15 14 12 9 7 7 9 7 13 12 15 10 23 22 23 17 15 19 16 12 23 35 27 19 23 5 5 7 13 21 20 33 38 31 30 32 40
28 57 40 30 33 34 32 29 23 18 15 10 8 10 12 12 11 15 9 9 11 21 28 28 23 11 19 24 27 31 31 21 23 18 3 4 7 22 25 18 25 25 25 29 30
33 40 43 40 39 40 29 26 11 10 12 13 9 12 14 12 13 15 19 15 9 19 23 26 13 19 31 28 27 35 38 35 19 20 22 9 12 6 27 27 26 26 25 23 24
40 35 36 36 40 38 29 22 15 10 11 7 7 8 10 13 10 12 15 14 19 16 8 21 15 8 11 18 23 31 40 45 39 23 15 6 16 12 17 24 24 19 21 22 23
44 31 34 42 33 30 23 22 15 8 10 11 12 12 15 17 16 8 7 5 13 19 19 18 17 21 14 7 7 30 38 39 40 31 25 29 22 9 21 21 20 19 18 19 19
35 37 40 47 40 25 22 11 12 13 9 8 3 19 19 18 18 20 19 15 16 21 22 27 22 27 31 35 29 24 39 39 41 29 29 27 36 20 22 16 15 16 17 18 19
31 29 41 23 39 21 17 21 17 13 11 15 13 8 10 25 17 1 7 20 21 18 21 26 24 26 31 4 23 21 29 34 33 33 25 18 31 26 22 18 14 12 14 14 14
17 30 32 21 31 24 22 15 7 6 12 7 9 8 15 22 19 17 15 14 16 18 22 25 24 11 6 17 21 15 28 31 38 32 30 31 29 28 24 19 14 9 9 10 12

GFSSW_700_spd_003.txt.gz
Wind_Speed
22 23 20 17 16 15 16 17 16 17 16 16 18 19 20 23 22 21 21 21 20 19 19 21 23 26 27 29 29 31 32 41 40 35 28 16 19 14 15 13 13 16 14 15 18
23 23 22 19 16 16 16 18 16 16 16 15 17 19 20 18 19 22 16 21 21 20 17 17 22 24 28 30 31 34 41 45 40 35 29 23 22 17 20 17 19 17 17 15 20
23 24 22 20 17 17 16 16 16 15 14 15 18 17 19 19 20 24 18 19 20 21 19 20 21 23 27 30 33 38 46 42 40 35 32 28 30 27 27 25 19 16 17 17 17
26 25 23 21 19 18 17 16 15 15 14 15 17 18 19 18 13 16 11 12 19 23 20 19 21 22 24 31 33 39 42 41 41 37 33 32 29 31 31 30 25 19 20 22 17
29 27 25 23 21 19 18 17 16 15 15 15 17 19 21 22 23 21 20 15 12 12 14 16 20 22 24 25 30 37 42 40 40 38 38 34 35 34 36 32 27 27 22 20 21
28 29 26 25 23 21 19 18 18 18 17 16 17 18 20 22 20 21 22 23 22 21 20 17 14 14 20 24 29 29 33 41 40 39 38 39 40 36 39 33 33 31 29 28 26
28 29 27 27 24 22 21 19 20 20 20 17 15 14 16 13 18 19 18 20 21 22 20 21 24 26 22 23 28 31 37 35 32 38 40 35 46 48 41 36 40 37 36 32 28
28 26 26 27 26 24 22 21 21 22 22 21 19 18 16 16 16 16 17 19 20 18 16 20 22 23 25 24 20 20 29 36 35 35 30 33 55 35 35 37 41 41 39 36 27
27 24 26 26 28 25 23 23 22 23 24 25 21 18 20 22 18 20 19 20 20 20 20 20 23 23 25 25 25 28 32 24 18 28 29 32 49 41 36 33 39 42 39 35 28
30 25 26 29 28 26 24 24 23 25 27 25 24 18 19 14 15 13 12 14 19 20 23 24 26 27 26 24 24 18 25 23 24 24 19 36 47 42 38 37 38 39 37 29 23
31 27 28 29 29 28 27 25 25 26 28 24 14 10 16 15 15 19 21 21 21 24 26 27 31 36 35 33 32 34 28 23 21 13 28 33 36 42 41 43 40 40 38 34 27
34 31 30 31 28 29 28 27 23 25 23 22 24 26 27 28 28 25 21 22 24 27 27 29 37 36 33 32 34 35 34 34 37 30 28 31 43 45 46 46 44 41 37 34 31
33 33 33 31 33 31 28 22 22 24 25 27 26 29 25 30 32 26 25 22 22 24 26 30 23 23 32 32 33 34 36 36 32 28 34 35 57 49 42 46 45 41 34 29 28
41 38 36 32 34 32 26 21 20 19 13 16 18 20 24 32 31 21 19 20 23 24 22 25 32 34 23 26 27 36 32 28 30 30 23 17 19 34 28 33 45 45 39 32 29
34 38 39 38 39 33 19 19 19 12 2 7 15 13 13 17 11 7 9 18 24 25 23 24 20 21 32 33 24 24 23 25 25 24 25 34 23 30 32 38 36 42 43 36 31
49 34 40 41 37 32 21 21 18 9 7 9 12 15 13 17 12 9 10 12 18 24 29 33 29 24 25 22 31 28 16 17 13 22 20 26 25 34 34 37 34 27 31 37 36
49 37 27 47 35 30 29 26 15 8 7 10 15 16 13 13 15 13 14 17 20 17 24 28 36 35 29 24 20 23 26 5 11 10 8 7 24 45 16 18 31 30 27 32 38
42 28 37 58 36 36 30 29 8 7 15 9 15 16 16 14 16 18 19 23 27 30 14 23 13 27 32 33 25 25 31 12 5 4 6 28 16 23 18 23 34 28 28 33 37
36 41 17 45 37 36 34 30 17 12 13 14 14 16 18 19 15 14 24 28 31 30 26 9 14 13 19 19 37 20 29 37 26 28 8 14 18 33 43 37 30 30 30 35 34
24 40 20 44 37 32 32 29 19 13 11 15 11 10 12 14 17 14 16 7 22 28 29 16 14 19 16 20 23 35 12 14 21 5 6 10 16 17 14 23 31 31 34 33 33
21 28 33 42 39 38 36 31 28 15 15 11 10 12 13 14 15 15 9 7 11 12 16 24 15 7 15 25 29 29 34 17 20 18 3 3 12 22 20 23 29 28 32 33 32
21 35 34 38 45 41 34 32 20 22 22 17 13 13 13 17 15 15 16 10 8 10 18 25 12 22 33 27 25 29 34 38 10 9 26 14 18 13 11 17 18 14 29 27 18
17 27 36 41 43 43 35 30 20 14 13 17 18 11 12 17 12 13 13 9 14 16 9 20 14 13 12 21 32 30 31 35 40 16 27 14 24 15 13 9 14 11 18 17 17
19 25 40 43 42 38 37 24 20 9 16 19 11 11 11 17 20 9 8 4 7 12 19 23 21 20 14 9 5 21 24 38 40 30 24 34 30 36 21 10 7 11 16 16 15
24 35 49 48 40 37 34 17 15 13 11 15 16 14 16 15 17 22 19 17 18 16 22 22 26 27 34 31 25 23 23 32 39 50 27 29 31 38 14 17 8 9 14 15 16
8 32 40 40 42 33 29 29 12 9 12 14 14 10 8 21 21 4 2 9 19 19 22 22 25 24 31 38 42 37 29 33 41 39 41 30 40 32 18 14 12 13 15 18 20
15 35 41 31 41 32 30 21 15 19 16 13 9 7 12 17 16 17 15 16 19 24 18 26 23 17 23 8 13 17 37 37 38 36 38 36 30 15 19 14 11 11 16 19 19

GFSSW_700_spd_006.txt.gz
Wind_Speed
25 23 20 20 20 20 19 18 17 16 15 17 16 17 18 18 20 21 21 19 21 22 22 23 23 24 26 27 26 27 30 37 38 35 31 20 17 18 17 16 15 12 12 9 10
27 24 22 21 20 18 19 18 17 16 14 15 16 14 14 14 16 17 15 20 21 23 21 20 21 21 23 26 28 30 36 39 39 34 34 26 26 13 20 20 19 17 16 12 10
26 26 22 22 21 18 18 19 17 15 13 12 14 14 13 14 18 14 19 18 19 22 21 19 18 20 22 25 28 33 39 36 38 35 34 33 29 26 26 28 21 16 12 13 12
27 24 24 22 23 19 19 18 18 16 13 11 12 13 14 15 13 13 12 19 19 20 20 18 18 21 23 24 27 33 34 35 37 36 36 36 33 32 33 32 28 23 20 17 17
26 26 23 22 23 20 20 19 18 17 15 11 11 13 15 18 21 19 13 7 5 9 13 18 20 21 23 22 25 29 31 34 36 36 37 37 39 37 38 33 31 28 26 25 21
26 25 23 23 23 22 21 21 19 19 18 14 13 13 15 18 18 20 21 21 19 18 16 14 16 19 23 25 25 25 24 29 35 37 38 39 41 39 41 35 35 33 29 25 25
28 25 23 24 24 24 23 22 20 21 20 18 16 15 15 11 17 17 18 21 19 19 20 18 20 20 22 21 24 25 28 31 33 30 33 35 47 48 42 39 39 37 36 32 30
28 25 25 22 27 25 24 23 22 23 22 21 19 18 17 15 15 16 17 18 16 17 18 20 23 25 28 26 23 17 22 26 26 26 32 29 46 35 18 37 40 40 39 39 37
26 28 26 24 26 29 25 24 24 22 24 24 21 19 20 20 19 18 17 18 18 19 18 21 24 24 25 25 25 25 25 20 16 7 17 26 41 38 33 37 35 38 42 42 41
40 22 29 26 26 27 26 25 26 25 25 22 22 18 21 13 18 21 19 21 20 20 20 21 24 26 25 24 22 25 24 22 19 13 20 28 35 37 39 38 39 41 40 42 44
42 39 31 28 28 29 31 27 26 27 27 22 9 15 20 12 19 18 17 16 16 20 22 25 28 33 29 26 29 26 19 19 17 16 22 28 37 40 36 43 46 45 44 42 41
37 44 34 33 30 33 32 31 28 25 21 22 24 25 24 22 19 17 18 22 22 23 23 27 36 32 31 29 27 29 31 34 33 27 30 37 51 44 43 46 45 48 45 42 40
34 43 39 38 31 38 29 22 25 23 23 25 24 25 23 26 29 29 25 24 23 23 25 28 28 14 21 33 31 33 34 33 34 30 32 34 59 52 47 48 45 46 44 43 38
29 43 46 37 28 42 39 26 20 18 11 15 19 26 30 31 35 27 27 26 24 21 19 22 29 31 29 25 28 36 33 31 29 21 12 5 15 32 25 25 34 42 41 45 40
20 39 42 39 31 46 31 29 18 13 2 8 16 19 20 27 22 12 17 22 23 20 20 18 19 13 26 37 28 22 17 15 16 19 23 27 16 19 16 26 36 35 35 38 39
27 38 48 39 25 44 28 26 19 10 6 8 12 13 16 20 16 12 13 16 15 19 25 27 27 28 24 17 19 28 15 14 16 16 14 26 22 36 24 36 38 31 30 29 34
23 26 41 26 31 35 34 34 19 8 7 9 13 17 16 20 16 14 16 21 18 11 20 23 29 32 32 28 25 19 17 4 7 8 7 6 20 42 11 13 16 17 23 24 25
14 21 36 40 26 39 36 36 8 9 14 9 14 17 20 15 17 18 14 21 21 21 19 12 11 20 27 33 25 25 28 9 5 3 4 19 12 19 11 14 16 23 21 25 26
11 18 37 18 28 44 41 31 18 15 22 15 13 17 18 17 11 14 22 26 25 25 16 7 11 12 12 11 20 16 29 32 16 19 6 9 18 26 24 28 31 32 23 25 28
5 14 29 19 31 48 39 28 22 15 9 15 16 13 12 16 17 11 13 7 16 25 22 15 19 23 21 16 21 29 15 9 17 5 5 11 26 23 15 18 17 27 33 29 23
8 11 32 39 42 48 40 26 23 19 13 10 14 11 11 12 16 14 10 6 6 7 12 24 22 13 14 22 27 25 32 13 9 8 5 3 9 17 22 23 20 28 25 28 29
5 9 31 16 38 42 38 31 28 21 14 12 12 12 11 7 11 18 19 10 5 7 14 21 13 22 34 28 22 25 30 34 18 9 14 17 33 22 18 12 24 21 18 24 31
6 12 13 33 35 36 31 27 26 21 22 18 14 15 14 12 10 15 13 13 12 16 7 13 13 10 10 19 25 28 34 36 36 22 24 9 14 5 11 27 25 27 11 16 21
23 14 25 49 13 34 33 30 22 22 13 14 11 19 13 12 17 10 11 7 6 7 15 21 23 24 17 15 11 21 31 39 36 27 33 37 35 36 27 29 30 25 13 11 19
10 28 40 47 31 32 29 22 24 15 15 16 17 15 11 10 14 21 25 21 22 22 18 21 30 31 38 39 34 24 19 29 41 42 25 43 36 45 32 25 21 24 12 12 14
14 20 36 27 35 31 31 18 21 12 10 14 18 9 11 19 20 8 7 14 18 15 19 26 35 29 32 33 35 43 39 31 29 37 45 46 42 35 21 18 14 18 9 12 17
6 17 33 18 37 32 35 27 15 11 9 10 10 9 9 15 12 16 17 14 12 20 25 26 27 14 17 17 7 22 39 40 36 34 33 35 17 15 10 17 16 8 10 13 15

GFSSW_700_spd_009.txt.gz
Wind_Speed
23 21 22 22 21 20 18 19 18 18 18 18 17 18 19 21 23 23 19 22 22 23 23 23 23 23 25 27 27 26 28 34 36 33 32 19 16 20 21 15 17 17 12 12 14
24 23 20 21 21 21 18 18 17 17 17 17 17 17 14 16 18 20 20 20 22 21 21 21 21 21 21 25 26 29 33 36 35 32 31 28 26 20 19 22 21 19 17 14 14
24 25 22 22 21 20 20 19 18 17 16 16 16 17 15 11 13 17 15 19 19 17 20 18 19 19 21 22 25 30 34 33 33 31 31 32 29 28 26 27 25 23 18 19 17
20 23 23 22 23 21 21 19 19 17 16 15 15 16 17 17 14 14 14 16 18 16 18 18 20 20 20 22 24 29 30 31 32 32 32 32 32 31 32 33 29 27 24 21 23
19 22 24 21 23 23 22 20 19 18 17 15 15 16 16 19 20 11 8 7 13 20 19 17 19 20 21 20 24 25 26 30 32 33 34 35 36 35 36 34 34 35 31 27 24
28 24 25 23 23 26 22 21 19 19 18 17 17 15 16 17 16 16 15 15 13 10 12 14 14 17 20 20 23 23 22 26 31 33 36 37 37 37 37 35 35 37 38 34 31
32 33 25 23 23 25 26 21 20 21 20 20 19 17 15 10 12 15 15 14 15 16 17 16 15 15 16 17 20 21 25 27 29 29 31 29 40 44 33 35 37 39 40 39 38
29 38 25 28 24 25 27 23 22 22 21 21 20 18 17 14 12 15 15 14 13 13 15 16 18 19 20 21 21 21 23 26 24 26 30 29 41 24 15 24 36 40 40 40 40
33 39 35 25 27 26 24 28 23 23 22 22 19 18 17 17 16 13 16 15 13 14 16 17 19 21 22 20 22 23 24 23 21 17 21 26 34 28 28 33 35 31 34 43 44
33 34 45 25 32 25 26 24 26 25 25 20 18 14 18 10 15 15 17 16 17 17 18 20 22 23 23 21 18 15 20 24 23 17 23 32 42 37 32 35 37 35 36 39 46
31 31 36 41 31 30 29 38 30 28 25 20 7 18 10 9 14 13 18 20 20 19 20 21 23 27 22 21 22 23 21 21 20 19 27 33 42 40 36 40 41 42 42 41 44
24 25 32 47 35 32 34 46 32 26 20 19 23 20 13 16 15 13 16 17 17 16 18 22 28 24 23 24 25 26 28 32 33 30 30 40 54 48 45 44 42 43 44 44 43
14 16 27 41 40 37 39 38 31 21 21 22 19 20 24 23 20 17 17 19 20 22 22 25 21 9 10 14 22 26 28 25 28 31 32 37 58 51 46 45 44 43 43 43 42
20 16 22 33 43 41 30 39 26 15 12 12 21 25 24 25 26 24 26 25 24 21 21 21 23 27 28 27 20 25 26 25 28 25 15 9 16 32 37 35 29 25 35 41 41
24 26 20 29 38 35 37 41 30 18 1 10 18 19 26 27 21 13 22 29 28 23 21 14 12 11 14 16 16 22 24 19 16 15 21 24 13 29 18 20 18 17 26 31 32
18 19 19 27 42 29 33 43 32 15 6 10 12 18 20 23 21 15 14 16 16 19 21 23 23 21 19 18 17 14 17 22 19 19 14 25 19 40 24 24 25 18 23 23 22
24 18 23 25 42 29 32 38 20 7 12 11 14 15 14 20 18 15 17 21 13 9 14 17 21 21 22 21 20 22 12 4 7 9 9 7 19 38 13 11 24 26 16 16 18
18 15 19 25 37 29 42 41 6 15 15 12 16 17 14 15 16 13 11 17 20 17 11 7 6 8 10 10 14 18 28 10 5 5 5 16 12 21 7 10 20 16 17 12 16
4 9 13 23 28 49 46 26 10 22 23 15 18 20 16 17 10 16 17 18 17 23 10 4 7 8 7 7 11 15 25 27 20 26 8 10 25 33 33 34 17 17 19 25 21
3 4 7 26 24 42 43 22 13 16 21 21 9 11 19 20 16 12 12 6 14 17 17 12 11 12 17 18 22 25 13 8 15 5 6 9 18 25 16 14 19 14 21 21 26
10 4 10 36 21 31 27 15 19 16 12 15 15 14 10 15 16 15 7 4 6 3 15 16 15 11 16 18 24 24 32 25 15 9 4 5 10 19 12 15 18 19 19 20 19
7 8 22 21 43 38 22 24 17 20 15 9 11 12 9 9 12 14 15 7 5 6 11 13 10 19 30 28 26 25 30 31 22 10 10 11 29 27 22 21 19 18 14 12 16
16 11 16 22 30 33 26 23 20 19 16 12 11 10 9 7 6 9 8 8 15 12 6 10 11 9 9 11 25 33 37 35 36 26 28 11 16 8 11 12 15 29 24 17 12
16 9 18 15 25 36 30 26 23 16 13 13 13 14 10 7 9 6 5 6 9 7 11 18 22 24 20 30 24 17 36 39 41 24 29 41 44 40 31 30 27 22 30 19 8
12 17 22 27 20 27 24 27 22 19 16 11 11 7 9 7 6 12 11 15 15 12 19 21 29 32 41 45 42 42 36 32 37 46 28 36 29 36 30 32 20 28 15 13 9
7 18 18 25 24 31 28 19 21 13 16 13 12 6 8 10 10 9 10 8 13 15 18 25 31 32 45 42 29 34 41 44 37 34 37 42 48 31 35 32 23 6 15 1 16
2 11 21 23 20 25 25 17 20 18 9 7 10 8 10 5 9 9 12 17 16 14 16 20 25 22 34 29 26 20 11 30 41 42 37 35 13 13 12 14 11 23 12 15 21

GFSSW_700_spd_012.txt.gz
Wind_Speed
18 19 21 21 22 23 22 20 18 18 18 18 17 19 20 24 26 24 21 23 25 24 24 28 27 26 26 27 28 26 20 26 27 23 23 27 24 25 24 22 22 23 21 20 21
22 19 19 21 19 23 24 22 20 18 18 16 16 17 18 21 23 22 22 23 24 23 24 25 24 22 24 26 28 28 23 25 22 24 21 22 23 18 19 23 24 24 24 23 23
29 23 17 18 19 24 24 23 21 19 18 17 16 17 17 18 18 20 19 20 20 22 22 23 22 20 22 24 27 27 28 22 29 29 29 28 30 29 28 24 27 25 26 30 26
27 27 24 19 19 23 26 25 22 19 19 19 17 16 17 18 14 19 17 17 21 17 19 20 19 19 20 22 26 27 27 29 27 28 30 28 26 31 32 31 22 32 33 32 28
28 27 24 22 21 21 26 25 23 21 20 20 18 17 18 22 24 11 13 20 20 23 19 17 17 20 19 20 22 23 24 27 29 30 30 32 35 34 34 33 35 34 36 34 30
29 31 37 32 23 23 26 25 24 22 21 21 19 18 17 20 19 20 11 11 18 22 21 19 20 18 19 22 22 21 21 24 27 29 31 34 35 34 34 30 37 37 40 38 36
31 31 32 37 34 25 27 27 24 23 21 21 21 19 18 17 16 21 22 21 17 17 18 17 15 16 16 17 20 19 22 23 24 26 29 29 35 38 30 32 36 35 40 42 43
34 34 33 35 38 29 27 26 25 24 22 22 22 21 20 18 17 19 18 19 21 20 18 17 17 18 18 17 15 15 17 14 17 19 22 25 31 15 19 24 32 37 40 44 44
36 35 31 33 40 31 28 26 28 24 23 24 22 21 20 20 18 17 18 18 16 15 17 18 18 21 19 17 14 15 12 13 15 17 18 22 21 20 21 29 33 27 30 40 44
33 36 28 32 39 28 29 24 24 32 26 24 21 16 18 20 21 19 17 19 18 17 17 18 19 20 18 18 9 9 11 12 13 10 20 27 32 31 32 33 35 35 37 39 36
29 28 23 30 40 30 34 29 34 27 31 23 11 23 8 21 13 20 19 19 19 19 19 20 20 22 16 17 17 19 17 15 15 20 27 33 41 36 37 40 39 39 41 40 42
24 17 14 19 35 41 35 42 39 15 16 22 23 11 19 12 15 16 16 21 22 21 20 19 21 16 20 20 21 22 21 22 21 19 22 27 48 42 43 45 45 43 41 40 40
21 16 17 20 34 41 41 34 34 33 15 18 19 23 20 16 14 13 15 17 16 20 17 16 13 8 11 15 17 20 21 20 21 20 25 29 48 33 18 30 34 38 38 41 42
20 15 16 17 27 37 38 33 31 31 16 17 24 22 26 25 21 19 19 17 18 16 17 16 21 24 22 20 19 20 18 18 17 13 10 3 17 26 23 28 32 35 31 27 29
15 17 17 18 19 27 42 15 36 29 7 14 23 24 26 24 15 25 23 23 22 20 17 11 10 8 13 14 12 14 16 11 11 15 17 25 11 31 20 25 23 13 18 24 23
25 24 19 21 22 24 34 24 37 16 6 15 23 24 27 30 25 16 23 26 24 23 25 20 21 18 16 13 14 14 10 12 14 12 11 34 22 36 37 30 21 18 7 15 20
34 27 22 24 17 24 27 38 28 8 13 16 22 22 23 27 22 23 20 20 12 9 13 11 19 19 20 15 16 14 7 3 5 8 9 11 15 38 26 20 20 23 23 16 20
27 14 10 17 14 29 35 40 9 13 13 14 20 19 14 21 15 16 16 19 18 14 5 5 5 13 9 14 6 17 18 8 7 10 13 13 15 26 28 25 19 15 20 25 22
28 6 1 13 20 39 18 24 7 21 21 23 23 20 17 17 14 16 16 18 17 22 10 6 6 10 9 7 12 9 23 20 26 32 19 28 35 28 34 28 33 27 27 23 27
27 5 7 15 22 43 25 12 10 23 21 23 14 10 12 21 13 17 14 7 14 19 15 8 7 13 18 18 23 23 8 9 12 6 18 16 21 24 20 14 15 20 21 19 20
9 11 8 16 25 32 22 15 18 20 22 15 11 14 11 19 14 15 8 5 10 8 18 14 13 6 14 16 16 19 28 22 19 18 8 14 24 24 20 16 20 23 29 20 18
2 8 9 19 32 27 12 24 21 23 15 11 8 8 11 12 15 13 13 11 10 12 15 17 10 14 21 20 21 21 24 25 21 17 14 18 38 27 24 23 27 26 26 27 22
11 18 20 22 12 24 17 21 21 18 14 13 9 7 7 9 6 11 6 12 11 12 5 12 12 7 9 5 8 19 26 34 38 29 33 14 29 6 11 11 14 20 18 22 24
11 14 19 15 14 30 18 19 16 13 10 8 7 8 7 7 9 5 6 6 8 13 14 13 14 18 16 25 25 26 30 28 37 29 34 39 49 34 28 30 28 26 30 33 23
15 13 19 19 26 28 19 18 16 13 8 8 7 7 7 7 6 9 9 10 11 12 16 15 23 26 36 36 36 39 39 37 38 46 32 49 30 38 26 24 24 25 21 20 21
15 17 5 27 22 24 21 19 15 11 8 9 6 4 7 7 6 5 5 9 7 11 23 26 25 25 40 34 27 35 41 36 33 43 43 42 46 24 26 25 27 26 8 16 16
11 13 16 16 18 23 25 14 17 10 6 6 9 9 8 4 4 7 13 12 12 14 14 18 19 18 19 20 37 16 20 13 17 21 26 36 20 23 21 17 6 10 14 2 14

GFSSW_700_spd_015.txt.gz
Wind_Speed
24 22 17 21 21 23 24 24 22 21 20 21 20 20 21 24 23 24 24 27 31 30 25 28 29 27 27 27 27 24 22 28 27 26 26 18 21 18 16 19 19 16 17 22 23
24 29 27 21 22 23 23 23 23 22 20 20 19 19 20 21 19 21 23 27 29 27 25 25 26 25 25 26 26 23 24 27 20 20 24 19 20 14 16 20 21 18 20 30 26
29 28 27 28 24 23 21 25 24 23 21 20 19 19 18 17 14 17 24 26 25 25 24 25 22 19 20 24 24 18 28 19 22 22 22 19 21 21 19 19 19 20 17 19 28
33 30 31 26 30 27 22 23 25 24 22 21 20 18 18 12 11 18 21 23 23 21 21 21 21 19 18 22 21 22 19 25 21 19 24 22 20 25 25 26 20 17 21 23 29
29 33 31 32 28 28 26 25 24 24 24 22 20 19 19 21 26 14 11 18 19 21 17 16 17 15 15 13 14 19 20 18 20 28 27 23 26 25 25 26 27 29 28 38 31
33 29 33 32 32 31 27 27 22 25 24 23 22 20 21 24 24 23 12 15 22 24 21 19 18 16 15 16 17 7 17 22 23 25 24 27 31 25 29 28 32 33 34 34 35
33 30 30 33 34 39 37 29 26 27 24 23 22 21 23 21 25 25 19 9 19 23 22 22 21 17 15 17 21 20 23 22 26 25 24 19 29 32 27 27 31 32 34 38 40
31 31 29 33 33 37 43 33 29 24 25 23 23 23 25 25 22 19 25 24 16 25 20 19 19 17 16 17 12 10 13 12 8 16 17 20 23 11 11 16 22 28 31 34 38
31 33 29 31 29 34 40 40 27 30 25 23 24 23 24 24 23 23 21 22 23 24 22 19 16 17 21 13 9 13 12 13 14 14 12 17 16 10 14 21 21 22 20 24 33
32 27 26 28 25 31 31 39 30 34 26 25 25 21 24 27 25 22 23 22 20 23 26 23 19 17 16 15 11 12 15 12 14 7 13 18 25 25 23 25 27 28 28 28 27
27 23 21 20 13 26 30 28 32 30 29 31 17 30 12 22 26 26 22 20 20 20 21 22 21 21 17 17 18 11 8 13 13 14 23 25 27 25 26 31 34 35 34 35 36
19 19 21 17 17 14 38 36 32 34 33 29 24 16 26 20 18 27 23 23 22 20 17 17 23 18 15 15 16 15 17 18 18 18 20 24 39 32 33 35 35 36 37 37 37
22 20 18 15 17 19 32 37 26 31 15 26 27 23 18 15 23 18 20 22 20 17 21 17 10 11 18 16 15 16 17 17 17 18 25 27 42 13 9 14 19 25 31 31 28
21 17 14 17 13 14 20 42 31 29 13 16 30 27 24 18 16 17 18 19 19 19 18 16 18 20 15 17 14 15 13 16 15 12 9 2 14 15 15 17 20 22 27 28 29
21 22 25 19 13 11 13 44 25 29 7 14 28 20 25 22 16 20 19 19 14 14 18 9 14 17 14 15 13 10 11 6 8 12 19 23 14 24 14 25 25 25 24 17 16
24 31 23 19 20 11 25 13 21 17 4 14 24 26 29 26 23 20 25 23 18 12 16 14 18 15 11 12 13 9 7 8 8 9 9 19 23 35 27 20 18 20 20 17 14
31 33 20 16 21 16 19 33 14 6 12 16 21 24 27 27 19 20 26 27 18 13 18 16 23 22 20 14 12 13 4 2 5 6 9 6 12 35 30 27 26 18 17 19 25
30 16 9 6 18 21 21 24 8 13 11 12 21 22 20 24 15 19 19 21 19 13 6 10 7 20 13 20 5 16 15 6 6 8 15 20 14 26 22 25 23 24 22 19 14
37 7 10 10 20 24 23 25 4 15 17 24 23 22 15 23 15 18 19 18 18 19 11 7 5 10 10 7 14 7 18 15 20 25 18 21 30 34 38 37 32 28 25 24 19
10 9 11 15 20 28 25 9 5 11 17 24 14 12 15 25 13 18 18 14 17 21 16 5 3 5 8 12 15 16 4 6 12 5 10 17 30 27 27 26 28 18 23 24 20
6 12 13 14 23 25 27 7 13 20 21 9 8 12 11 24 14 19 15 5 16 13 17 9 6 4 9 11 10 14 23 18 12 15 6 13 18 20 21 20 15 17 19 16 17
3 14 11 16 20 18 12 18 19 22 17 12 8 8 16 18 13 13 11 4 14 13 19 13 4 10 17 14 11 18 20 21 17 12 17 24 38 28 19 20 18 19 17 16 22
18 23 21 18 14 15 15 16 19 17 11 9 7 8 12 16 8 10 11 13 9 12 9 15 7 5 4 1 11 20 21 27 34 36 40 22 29 4 13 15 14 15 15 19 16
16 15 21 15 12 15 16 17 20 14 12 8 9 9 10 12 5 11 6 6 10 11 15 9 11 15 11 15 16 21 29 31 31 28 39 46 50 48 36 31 27 21 22 26 28
16 23 19 9 11 18 11 16 11 8 7 8 7 5 5 5 5 4 7 7 7 10 14 14 17 18 25 29 28 30 31 35 39 46 38 58 42 46 34 30 31 26 21 24 24
19 17 6 10 14 22 8 8 7 6 5 3 3 3 5 5 4 5 6 8 6 7 12 16 15 18 31 22 16 28 33 30 22 23 32 37 42 20 24 25 22 24 22 29 22
12 13 12 18 17 15 11 9 10 5 3 4 6 3 5 7 7 7 7 10 11 10 10 16 15 11 11 12 28 11 18 17 14 12 18 27 25 17 21 23 21 15 11 19 21

GFSSW_700_spd_018.txt.gz
Wind_Speed
26 24 23 27 27 23 25 22 25 25 22 22 21 21 21 22 24 26 26 24 28 29 26 27 28 26 25 24 22 21 25 27 29 25 25 16 21 18 24 22 18 19 23 17 15
25 26 26 25 29 30 26 25 24 25 23 22 21 20 20 21 21 24 21 26 26 23 24 24 24 25 25 24 24 28 31 31 21 19 19 22 23 22 19 16 23 16 16 25 23
26 26 28 27 26 28 30 27 24 26 22 22 20 19 18 19 20 18 23 24 22 22 21 22 21 19 23 19 24 25 33 21 24 19 25 24 20 16 16 19 15 19 19 22 25
32 28 26 29 30 29 30 26 27 24 24 22 21 19 18 18 9 12 18 16 18 19 21 23 25 21 20 21 19 25 14 20 26 21 20 29 30 26 24 25 21 17 21 17 24
37 33 30 28 31 31 29 32 28 25 24 23 21 20 18 19 19 15 5 13 14 19 18 21 23 20 18 14 16 19 20 21 16 29 28 30 29 38 36 28 30 29 27 31 26
32 32 31 28 29 32 32 33 29 28 26 23 21 21 20 21 20 23 16 11 17 19 17 14 16 16 14 16 15 9 18 22 23 23 28 31 34 30 32 25 30 33 38 37 40
27 26 25 26 27 30 32 33 37 31 28 25 21 20 25 20 22 21 17 15 17 19 22 19 22 21 22 17 20 25 21 20 24 26 29 25 32 34 26 24 29 31 33 38 43
34 29 25 28 29 28 30 36 38 35 28 22 18 22 26 26 25 20 24 15 13 19 21 24 20 22 18 18 11 15 15 18 15 13 18 20 34 23 4 14 20 27 31 34 35
32 28 27 27 27 29 25 33 40 37 24 25 21 23 23 26 25 21 18 25 23 17 16 22 20 20 20 17 9 11 11 14 12 11 9 18 21 6 7 20 21 20 19 23 29
28 25 21 20 19 20 19 28 33 33 25 23 24 21 25 24 23 20 20 20 23 20 21 15 16 17 19 19 9 10 15 13 12 11 15 17 24 23 23 21 25 26 27 27 27
22 20 20 19 20 15 13 18 21 34 37 33 19 24 13 26 20 22 20 20 21 23 19 20 20 23 16 14 17 13 12 9 13 11 18 23 30 31 28 30 31 32 31 30 28
21 22 20 18 17 13 14 27 22 32 36 37 22 23 22 9 20 22 21 24 22 23 17 21 26 22 17 12 14 15 16 19 20 17 19 27 36 33 31 32 31 30 31 29 29
22 21 18 16 15 12 13 29 24 27 18 31 24 22 24 18 17 20 25 22 22 23 22 16 9 18 21 15 16 14 14 16 19 20 25 28 38 11 9 11 10 16 17 19 23
22 22 18 20 19 13 6 26 19 25 16 27 28 21 17 19 13 16 24 20 19 21 18 16 13 10 9 17 11 8 10 14 15 13 6 3 11 27 20 21 22 22 23 26 23
21 25 24 21 19 9 7 15 25 12 6 20 32 18 19 20 21 20 22 21 20 18 21 10 14 16 15 12 10 9 12 13 11 11 19 20 11 30 19 18 22 19 22 22 23
23 30 31 30 17 9 8 14 13 5 5 16 29 23 30 20 18 23 26 23 16 11 19 11 12 13 10 7 14 11 7 10 10 10 7 15 21 42 24 21 16 21 17 21 23
28 35 18 11 7 16 16 16 8 6 22 21 31 30 30 22 19 26 28 26 15 15 18 20 18 18 15 13 10 14 5 2 4 4 7 2 16 35 7 18 19 25 27 19 16
25 15 11 3 12 20 24 16 2 13 8 17 29 27 21 24 17 20 21 23 20 10 5 13 4 19 15 22 9 16 14 5 5 3 4 14 14 18 8 12 17 21 24 30 29
14 9 14 18 21 24 26 16 4 9 19 27 26 28 19 22 13 19 20 21 20 19 9 7 4 4 8 12 15 9 17 8 8 15 10 11 19 28 18 18 20 21 20 23 26
9 13 16 14 22 25 17 9 4 15 21 24 13 14 15 26 13 18 17 10 16 19 13 5 1 6 12 11 20 12 5 6 7 3 6 7 20 21 24 24 25 24 23 20 22
12 18 16 12 24 19 11 2 13 21 8 6 10 13 12 28 12 19 10 2 17 17 19 8 6 6 15 13 17 21 22 11 7 8 4 6 6 9 21 30 21 25 22 17 20
7 17 16 20 20 8 15 10 21 15 17 16 10 6 13 24 13 13 10 2 12 11 22 13 5 10 18 9 10 17 14 21 9 8 13 18 32 29 7 8 13 17 24 19 19
23 26 16 20 13 17 16 18 19 16 11 11 12 10 12 18 8 8 10 13 18 17 14 18 7 3 1 2 15 18 17 21 27 31 30 15 23 25 39 48 44 36 21 14 16
25 25 17 16 16 15 16 14 16 15 12 12 12 14 17 13 8 11 12 10 12 18 13 9 10 11 7 5 8 15 21 23 27 22 30 43 59 58 53 45 37 35 32 29 18
21 16 14 12 4 12 13 11 15 11 9 9 9 10 9 8 5 9 7 8 10 14 17 16 11 15 21 22 22 25 23 20 29 36 35 49 47 43 39 31 29 32 31 27 34
13 12 8 12 15 14 10 9 9 7 8 6 5 8 8 7 5 8 9 6 6 8 13 15 10 13 25 7 8 18 19 24 26 21 26 29 37 32 29 30 24 19 18 24 26
6 8 10 16 17 9 3 4 5 3 2 2 5 4 7 8 10 8 12 10 9 9 7 11 9 12 8 12 20 12 5 13 16 14 19 30 30 29 23 20 25 24 20 22 23

GFSSW_700_spd_021.txt.gz
Wind_Speed
24 24 23 22 23 26 28 25 27 24 24 25 23 23 22 23 24 27 28 20 26 26 23 26 25 24 26 27 27 26 30 32 34 28 28 19 21 13 14 20 21 21 15 18 13
29 26 26 26 25 27 28 31 28 27 24 24 22 22 22 23 24 27 20 24 23 24 23 23 20 21 28 26 28 33 36 36 31 28 23 16 20 21 15 20 20 23 23 19 23
35 33 30 30 30 28 28 30 31 27 24 23 21 21 21 21 24 19 22 22 21 21 22 21 21 20 25 26 29 33 37 32 27 20 19 27 26 23 24 18 23 23 17 18 22
39 37 31 31 31 32 31 29 31 29 26 22 22 21 20 21 15 18 19 17 17 20 21 22 23 23 23 29 28 30 30 26 27 21 28 28 32 31 25 29 24 25 31 22 24
30 28 27 31 31 32 32 30 31 32 27 23 26 22 22 23 20 11 7 14 14 19 16 18 24 23 25 23 24 26 26 21 20 25 31 31 34 36 37 28 33 28 34 30 20
34 33 28 28 30 29 32 31 30 34 29 21 27 21 21 24 20 20 14 10 14 16 14 16 22 22 16 12 18 12 18 19 27 27 32 34 37 35 35 34 37 35 34 38 31
37 35 30 28 29 29 27 28 29 34 29 24 25 21 24 20 21 21 21 14 9 17 18 16 19 19 20 18 20 22 19 22 26 26 31 30 38 40 30 26 32 36 36 40 43
30 27 24 21 22 26 26 26 26 33 28 29 21 26 26 24 25 21 20 17 15 16 19 20 19 22 20 19 13 23 20 25 19 16 20 26 40 27 18 21 27 29 34 35 41
26 25 22 20 18 18 18 18 23 34 40 26 26 26 24 25 26 22 19 19 14 17 19 23 27 26 22 19 15 15 15 14 8 11 12 19 26 15 18 24 25 25 24 25 32
25 20 19 18 17 18 18 13 17 31 27 28 22 22 23 26 23 23 22 21 21 17 15 21 22 25 23 17 17 15 16 11 12 6 12 18 25 25 19 24 26 26 26 24 26
21 20 20 18 17 16 14 10 10 26 23 31 31 28 13 14 23 23 23 20 24 22 21 15 26 24 19 17 18 15 8 13 14 12 16 21 26 29 26 29 31 31 31 28 27
18 18 18 20 14 15 14 6 17 25 21 31 19 28 10 19 18 24 24 25 23 23 22 21 17 14 11 7 9 15 17 19 16 18 19 29 38 36 33 31 29 28 30 29 28
16 18 18 20 16 14 10 6 25 22 11 28 25 19 24 14 21 25 25 24 23 25 23 20 9 15 20 17 16 19 19 19 18 20 22 30 41 30 20 19 18 18 19 23 23
15 15 19 19 23 6 6 9 22 26 10 28 33 23 21 18 18 21 23 21 23 23 19 14 17 8 15 21 18 15 14 12 14 14 9 7 12 32 21 20 19 22 26 22 20
17 22 23 22 28 11 7 8 20 24 3 28 30 21 25 23 21 27 26 19 22 22 19 9 13 14 10 11 17 13 11 14 16 17 21 22 12 26 25 28 22 19 21 21 23
25 26 29 19 18 9 11 5 9 4 3 18 27 26 29 17 21 31 25 20 18 13 14 11 9 13 16 13 15 12 14 11 11 11 6 16 18 12 7 4 5 15 22 25 24
23 19 16 5 7 15 13 12 2 6 22 21 29 32 26 23 22 35 27 22 16 15 16 16 13 13 10 12 15 19 8 2 3 2 7 2 11 29 11 9 8 20 21 23 28
14 15 13 10 15 17 17 16 6 11 13 25 33 35 26 21 26 24 23 24 17 12 18 14 5 20 18 23 10 17 12 5 6 3 4 0 12 11 11 18 14 14 21 23 25
14 14 19 18 20 22 16 9 3 9 27 28 31 30 20 18 15 20 19 18 22 17 7 6 5 4 7 8 16 13 16 8 5 8 4 10 14 24 17 15 15 15 19 23 26
15 18 20 17 20 15 10 2 13 18 25 27 17 16 21 21 13 19 18 13 20 25 10 8 4 4 9 13 20 11 8 7 5 1 5 8 11 20 19 20 11 19 27 26 24
14 19 22 21 17 10 1 12 25 18 18 9 13 12 18 24 10 17 13 1 8 16 18 9 8 8 12 12 22 21 13 7 5 5 4 4 7 15 16 18 32 17 14 14 17
17 23 21 19 10 5 9 16 18 16 17 10 9 10 18 22 13 15 8 4 12 10 24 13 6 10 16 5 6 17 20 17 5 5 12 9 21 11 9 12 18 27 43 41 37
25 32 20 13 10 19 25 23 20 16 14 11 9 2 18 19 10 11 9 9 11 12 21 19 8 3 2 3 13 13 15 19 20 25 29 8 16 11 33 50 45 44 45 45 34
27 20 17 17 14 13 14 15 17 15 16 15 15 22 22 9 6 13 12 11 14 15 12 12 9 7 7 4 5 10 20 22 23 21 30 37 52 53 45 42 38 36 40 32 27
15 11 12 12 15 19 22 18 14 15 13 14 18 13 13 8 10 11 11 11 16 21 15 14 10 14 17 18 20 22 23 24 29 35 30 45 42 39 37 40 34 33 30 27 18
5 7 13 15 13 12 9 12 13 10 10 10 14 13 10 10 3 8 7 10 7 18 20 18 9 10 16 1 3 13 14 14 19 25 31 34 39 29 30 32 33 27 27 22 21
8 1 12 16 16 11 7 7 8 7 6 5 7 8 9 8 8 8 8 8 5 8 11 12 5 7 5 8 17 7 0 6 10 11 17 22 24 26 24 30 33 25 27 24 18

GFSSW_700_spd_024.txt.gz
Wind_Speed
33 33 34 33 33 32 31 32 33 27 28 21 23 23 24 24 26 28 29 21 24 25 24 27 29 29 30 29 28 28 32 35 34 30 30 20 23 20 12 10 21 23 23 23 19
39 38 38 37 36 36 34 35 35 34 33 24 21 22 23 24 26 30 19 25 26 26 26 24 25 29 32 31 31 33 38 38 34 31 28 24 23 25 19 15 22 22 20 22 17
37 32 27 32 35 36 36 36 36 37 33 32 21 22 22 23 26 21 25 24 24 24 23 24 26 30 32 31 34 36 40 38 33 30 25 28 25 26 17 20 24 24 21 26 26
30 33 26 29 25 30 34 35 35 34 36 32 24 24 23 23 16 20 23 22 22 22 25 26 28 31 32 33 32 34 36 36 31 28 28 26 28 32 27 22 26 27 26 28 24
28 33 33 30 31 29 31 32 33 32 33 32 25 26 26 26 22 9 17 19 21 23 23 25 28 28 30 31 29 35 33 32 29 29 27 32 33 33 37 29 25 30 31 32 36
29 30 29 24 27 28 30 29 30 30 31 34 32 21 30 29 18 16 11 19 19 19 22 25 25 23 24 21 26 18 28 27 28 27 30 35 39 40 40 36 32 33 35 36 41
26 25 21 22 21 23 22 24 24 26 31 33 29 28 32 24 23 24 16 16 18 17 18 19 22 25 20 19 19 23 15 20 25 27 33 29 42 48 38 32 41 38 39 39 38
23 22 21 18 19 20 18 19 19 22 30 38 31 26 28 23 23 26 22 19 12 16 19 20 21 25 21 15 13 19 16 22 23 19 21 23 46 40 32 35 37 39 46 48 44
19 17 17 16 15 16 15 13 12 18 32 38 31 23 25 25 29 26 24 20 16 16 23 20 22 20 20 22 13 12 20 20 18 18 20 24 34 25 23 30 34 31 35 43 45
14 14 14 16 17 16 17 13 10 16 31 41 15 24 23 28 27 25 23 22 19 20 22 26 28 26 23 23 17 16 20 20 19 12 17 26 30 27 23 24 26 32 34 35 35
16 14 13 15 17 14 13 9 6 17 37 34 21 15 9 18 24 27 24 27 20 18 24 27 27 31 29 27 14 12 11 12 18 17 22 26 31 32 27 29 29 28 27 28 27
16 15 14 12 13 13 12 7 8 18 30 32 9 27 11 23 31 29 29 27 24 24 22 20 19 17 17 13 13 12 19 16 19 18 23 29 37 34 31 30 29 28 31 31 32
20 16 14 16 15 12 7 4 13 18 20 23 16 20 15 20 29 34 32 27 21 22 20 17 11 16 13 13 13 10 15 19 20 23 26 32 42 37 30 29 29 26 25 30 33
21 17 19 21 22 14 5 4 20 23 9 28 26 25 26 24 24 28 27 26 23 21 21 17 14 10 18 19 17 14 14 17 20 17 11 12 12 31 26 23 20 17 17 17 19
23 23 21 21 24 23 3 3 18 21 3 29 23 27 26 25 27 30 29 24 26 21 18 11 16 14 10 16 17 13 14 13 14 17 21 26 12 15 15 20 15 20 23 20 16
21 16 12 9 7 5 11 5 18 8 1 13 21 29 27 14 33 32 25 21 19 14 18 12 9 13 12 9 13 16 14 13 16 15 5 14 15 3 2 4 7 3 9 15 19
21 17 8 3 8 18 18 17 12 3 8 25 30 31 26 27 27 31 27 23 16 19 17 14 12 10 9 14 14 15 10 2 3 1 6 4 8 18 8 10 13 13 14 17 18
25 22 18 21 22 20 20 11 2 9 11 30 33 30 25 22 28 29 24 25 16 15 17 12 6 14 11 15 6 13 14 5 4 3 4 5 9 2 4 12 12 15 17 18 19
24 22 21 26 25 10 18 6 4 9 31 32 32 26 22 18 20 24 24 22 17 16 8 13 5 6 8 11 16 11 14 11 5 6 3 8 8 17 15 10 19 20 20 21 21
23 30 31 24 19 16 6 13 11 24 28 33 15 17 18 15 22 20 22 19 21 18 10 9 6 4 7 8 16 11 9 7 6 1 4 7 9 17 6 12 18 17 23 30 33
24 29 19 14 9 9 13 24 26 26 23 10 8 14 18 18 12 20 17 5 18 21 11 12 6 8 9 9 18 21 11 7 3 4 3 4 8 7 15 16 18 25 27 30 33
22 24 18 17 22 27 23 26 23 19 15 10 11 10 20 19 14 14 11 4 8 16 23 12 5 7 12 3 5 14 19 15 6 4 6 5 13 2 10 17 30 44 37 36 39
16 20 20 22 27 28 25 21 17 13 10 7 7 9 16 17 12 9 10 6 13 13 23 15 6 4 2 9 18 16 20 25 21 19 15 4 11 16 26 41 33 36 38 41 37
17 15 17 15 16 19 19 17 18 14 12 11 12 14 22 11 8 13 12 10 13 12 17 12 9 6 6 2 5 15 15 18 20 15 17 30 42 33 39 35 33 35 39 32 29
6 6 9 13 14 12 12 15 16 17 17 16 19 19 14 9 11 16 15 13 15 15 14 12 10 14 16 16 17 18 19 19 26 31 29 38 37 31 27 28 33 37 34 28 28
4 4 10 14 15 13 10 10 11 9 11 14 14 13 6 12 5 14 13 14 11 20 18 18 9 10 15 7 11 15 16 16 20 23 32 33 33 21 28 28 31 33 27 26 24
7 3 11 11 13 11 9 7 7 8 8 12 10 10 7 7 5 6 6 10 6 8 22 20 9 6 4 4 13 14 4 9 12 15 16 19 21 24 28 27 28 30 24 21 18

GFSSW_700_spd_027.txt.gz
Wind_Speed
41 40 40 39 41 42 41 38 39 38 38 37 23 21 26 27 27 30 33 22 24 25 29 30 33 31 32 31 29 31 34 35 33 31 29 23 23 21 23 18 16 21 22 22 21
44 37 32 31 30 26 40 38 37 39 38 33 34 12 22 26 29 34 22 23 27 29 29 28 30 33 34 32 31 33 39 37 32 31 28 28 25 25 25 19 18 21 22 24 24
35 30 27 31 30 30 29 30 37 35 35 38 37 29 19 26 29 28 24 26 27 27 27 26 30 34 36 35 36 38 40 33 31 31 29 28 25 29 28 27 22 20 24 25 24
31 25 27 31 30 32 32 31 30 31 31 34 36 31 18 26 19 19 24 24 25 25 28 31 32 35 36 37 37 37 37 33 32 31 29 26 32 32 32 31 28 23 25 26 21
23 24 25 26 25 25 27 29 30 26 27 31 37 32 21 30 27 8 18 22 23 26 29 31 32 33 34 36 35 37 35 34 33 30 31 32 33 32 36 33 29 29 29 30 30
21 22 21 20 21 24 23 20 23 23 24 28 35 34 29 37 17 21 11 20 24 26 27 30 30 28 27 29 33 29 35 32 30 29 30 32 33 34 38 33 34 34 32 33 34
18 18 18 17 16 19 19 18 19 17 20 28 33 37 26 31 23 22 15 19 21 23 25 26 25 27 23 27 22 29 16 25 31 29 29 29 39 43 37 30 35 40 37 35 37
18 18 15 16 15 17 15 14 13 15 16 28 38 22 25 22 20 25 20 22 22 21 21 21 25 25 20 18 15 18 24 18 22 24 26 26 46 37 33 33 37 37 43 42 40
21 19 14 14 15 17 16 14 15 13 16 29 40 33 22 23 27 32 25 20 21 22 23 24 24 25 21 17 13 18 12 21 20 19 22 27 35 30 25 30 33 33 38 45 49
20 22 16 15 12 17 14 11 12 8 18 29 28 27 24 28 29 30 30 23 19 22 25 28 27 28 27 26 17 13 18 18 22 16 16 24 33 30 26 27 27 30 35 39 42
25 19 15 14 14 17 16 11 8 9 21 35 27 15 21 25 28 27 29 26 21 21 25 28 28 30 27 22 24 13 14 15 15 18 25 29 29 30 28 32 33 31 29 30 32
21 17 16 13 13 15 16 11 6 6 25 33 19 13 23 21 33 26 26 24 21 23 26 26 31 29 24 23 21 14 13 15 17 18 21 29 35 32 31 32 30 28 27 27 27
24 17 16 15 18 18 9 7 4 12 22 24 24 16 23 25 30 29 29 25 21 22 22 17 6 15 20 29 24 19 15 15 17 16 23 27 35 29 25 27 27 23 23 27 31
27 24 15 14 18 16 8 3 9 23 21 17 17 19 20 23 27 31 22 22 14 15 12 14 10 9 14 17 16 13 11 11 14 15 8 10 10 27 24 20 20 21 17 11 14
26 19 6 9 12 8 5 10 24 20 6 14 20 24 19 24 28 32 26 22 18 19 16 8 11 9 10 14 15 13 12 11 13 13 16 18 9 9 18 15 12 14 16 18 21
31 17 10 4 3 10 15 21 22 4 3 11 16 24 25 13 31 31 26 19 13 12 18 11 10 9 10 12 16 13 14 11 14 13 3 5 8 7 1 6 4 3 7 12 15
30 25 22 20 23 23 17 19 8 2 11 22 21 29 22 23 28 27 25 20 13 11 9 9 12 13 11 10 9 14 8 2 3 2 5 3 4 10 7 5 14 10 13 17 20
30 33 31 32 28 18 18 12 5 12 14 31 31 28 24 22 26 23 21 21 14 12 15 12 6 12 10 14 10 15 12 4 4 1 4 8 7 1 9 10 12 16 17 17 20
29 30 30 33 29 21 13 7 7 13 25 32 27 24 25 21 18 21 24 19 16 14 9 13 6 12 8 12 11 10 10 11 2 1 2 5 7 12 14 10 9 14 18 22 23
22 22 22 19 15 10 16 18 15 24 31 26 16 14 17 18 19 16 22 21 20 16 14 9 6 8 13 13 16 14 8 5 6 1 3 5 9 12 6 7 13 18 22 28 31
16 21 27 24 19 21 22 22 27 31 21 12 9 16 17 21 17 22 19 7 22 18 12 13 6 10 10 11 16 16 14 6 5 2 3 3 7 3 6 10 21 24 41 39 39
13 17 16 17 19 22 20 19 23 21 16 9 6 11 20 20 18 25 16 5 16 22 15 12 7 8 10 6 8 15 13 10 3 4 5 3 11 2 2 22 30 33 31 34 36
12 16 18 18 19 22 20 20 16 11 9 10 13 9 17 18 10 17 15 15 10 24 19 14 6 4 3 10 13 12 17 20 18 9 9 2 8 4 24 27 23 30 31 35 37
7 6 11 12 16 16 13 11 13 7 2 9 9 8 17 13 6 15 13 10 11 10 18 11 9 5 5 1 3 10 21 19 22 10 10 25 31 19 26 26 29 31 32 35 33
6 4 4 9 8 5 6 9 9 9 12 8 13 16 16 8 11 12 16 13 12 12 16 15 6 10 12 12 13 11 12 13 22 25 17 25 31 25 24 25 28 29 30 33 27
6 4 3 8 10 8 8 8 8 7 5 13 18 16 5 9 4 14 16 15 11 16 16 16 7 6 11 10 15 20 21 24 27 28 35 35 30 19 20 24 26 26 29 30 22
9 8 8 10 9 7 7 6 4 4 6 10 10 8 5 7 4 9 6 8 7 6 17 14 9 7 4 2 8 16 14 20 21 20 18 23 16 18 18 22 23 25 28 26 21

GFSSW_700_spd_030.txt.gz
Wind_Speed
44 45 43 33 27 28 32 32 44 38 38 38 41 32 21 26 29 32 36 31 24 25 29 30 33 33 33 33 32 33 35 38 38 33 31 25 23 22 24 26 23 21 20 20 17
43 34 27 26 25 31 28 29 27 33 35 34 40 40 18 25 30 34 31 25 25 29 29 32 34 34 35 34 34 35 40 40 33 29 30 29 26 21 23 26 24 21 21 20 18
31 25 22 21 21 26 29 33 31 32 27 30 34 42 33 17 29 31 23 26 28 30 30 28 31 33 35 34 36 38 40 36 29 27 31 33 27 24 26 25 25 23 19 20 20
24 21 20 21 22 24 26 27 27 35 27 24 32 41 46 20 17 14 22 26 30 29 30 31 34 36 36 38 38 36 38 32 27 29 33 34 31 26 24 25 27 27 22 22 23
23 21 20 21 20 20 22 23 22 23 23 23 31 42 39 28 20 6 14 26 28 30 31 33 34 37 36 37 36 36 34 31 29 33 35 35 33 29 29 30 29 31 29 24 23
24 21 19 19 18 18 18 19 19 20 17 19 27 40 39 37 20 18 7 22 26 29 31 32 33 32 31 33 35 30 36 32 31 34 35 35 33 32 33 28 27 34 32 28 26
27 24 22 20 15 15 16 16 14 16 15 17 25 37 43 35 20 19 15 18 26 26 30 31 29 28 26 29 28 31 23 30 34 32 29 30 35 39 31 29 26 32 37 34 31
26 23 22 19 16 15 16 15 14 15 13 15 23 35 35 39 29 23 21 20 24 24 23 25 26 26 23 19 18 20 27 22 24 29 31 27 38 26 22 28 29 29 33 38 39
26 22 22 22 16 12 15 16 14 14 13 15 22 32 23 41 27 29 23 23 27 25 23 23 24 25 20 19 16 19 13 29 25 19 20 28 33 27 26 30 31 30 31 35 40
26 24 21 15 14 14 16 16 12 10 11 14 19 24 14 26 26 30 23 27 30 28 27 27 27 28 26 23 18 15 18 15 20 19 23 26 31 33 29 28 30 27 27 30 35
23 22 16 11 9 11 13 17 9 9 9 18 28 21 15 17 20 27 25 28 30 33 36 32 28 34 32 24 11 10 12 14 13 16 24 28 32 32 26 29 30 29 26 25 26
26 23 15 11 10 12 16 15 6 3 16 21 29 16 16 22 26 28 27 22 22 15 32 32 29 24 21 23 22 16 12 12 12 16 20 26 32 30 28 29 27 26 25 23 24
26 20 10 6 9 11 14 4 3 13 27 19 31 15 20 30 30 32 28 21 19 19 21 25 23 20 23 21 19 17 14 13 15 16 18 23 27 23 19 20 20 20 21 19 22
24 15 8 2 6 7 5 7 16 19 14 14 17 21 16 32 25 24 25 18 17 20 8 18 11 27 22 23 25 22 15 14 11 9 5 9 8 21 16 9 12 17 20 20 15
28 19 13 6 7 7 12 23 24 14 5 9 10 26 26 25 24 20 18 15 17 21 9 9 16 16 16 21 24 15 10 8 8 10 12 10 5 11 11 9 11 12 11 14 19
33 28 25 18 14 18 28 24 11 4 5 5 19 21 25 7 30 24 11 13 9 12 11 12 10 6 8 10 13 6 8 9 11 10 2 4 5 5 2 7 7 1 3 6 10
30 33 30 30 27 32 26 15 7 8 8 13 17 23 19 18 25 24 13 15 7 10 13 15 13 9 7 11 10 12 5 2 2 1 3 2 5 7 6 10 8 5 9 11 15
29 27 26 22 32 30 17 12 11 12 12 21 23 20 19 16 20 20 18 13 11 5 12 7 5 9 9 11 6 13 11 3 4 1 3 6 7 2 3 9 10 13 12 16 19
22 19 17 17 18 14 7 14 7 8 20 25 20 19 18 16 14 17 19 14 12 7 2 6 4 12 8 10 9 11 11 11 1 0 2 4 7 10 9 5 8 12 16 21 24
13 9 9 10 13 7 11 16 18 31 28 21 11 10 13 15 14 16 15 14 15 10 9 5 5 8 13 12 13 8 6 5 5 2 3 5 8 6 7 3 8 18 25 30 30
12 12 12 10 8 11 20 22 28 23 19 12 6 13 16 18 14 16 16 6 16 13 12 6 6 8 11 11 14 15 13 6 5 2 3 2 4 5 2 4 21 23 25 29 28
12 10 8 11 10 18 16 19 22 16 12 8 3 8 16 19 17 21 15 11 17 17 13 10 5 4 11 7 9 13 12 13 4 5 4 2 6 3 2 14 21 25 28 28 31
8 7 6 6 13 17 14 13 11 8 8 6 5 3 10 15 9 18 17 17 8 22 12 11 5 4 3 8 11 12 18 17 13 6 8 4 4 2 11 24 19 24 28 28 32
5 3 4 5 7 9 11 9 8 4 5 8 7 9 11 13 11 15 16 15 15 13 19 11 9 5 6 1 3 9 15 19 21 9 9 19 20 12 14 16 20 23 27 30 30
8 5 9 7 3 1 1 5 2 1 4 2 8 6 13 11 7 9 13 9 10 11 21 13 7 9 11 11 13 11 9 14 24 26 15 13 20 16 15 18 21 27 30 30 29
12 9 7 5 9 8 3 3 2 2 5 1 8 15 9 5 5 5 14 12 9 12 15 14 7 4 7 11 14 19 18 20 21 21 26 24 17 10 13 15 21 26 29 27 25
13 12 11 11 8 7 6 5 3 1 2 8 9 5 1 5 4 7 8 8 3 5 15 14 9 4 3 4 7 14 10 19 23 22 18 21 9 13 13 14 20 24 25 25 26

GFSSW_700_spd_033.txt.gz
Wind_Speed
48 47 42 35 25 26 29 29 26 27 23 32 34 41 40 37 29 31 36 33 24 22 28 32 35 35 35 34 36 38 36 39 42 37 33 29 24 21 23 23 22 19 18 17 15
41 36 29 26 20 20 21 24 25 28 24 24 27 36 45 34 26 38 30 27 24 27 27 34 36 38 37 35 36 37 42 43 38 34 30 29 28 19 23 24 24 22 21 18 20
35 30 23 23 21 20 21 21 23 25 28 26 26 34 46 45 22 37 26 23 25 29 31 31 32 36 37 36 37 39 41 38 34 27 26 31 28 22 24 24 25 24 25 25 22
31 31 23 23 22 20 19 20 18 20 23 23 28 27 45 46 19 23 24 27 29 31 30 31 35 37 38 38 38 36 39 33 30 26 29 30 28 28 25 23 24 26 27 25 24
31 30 27 24 22 18 17 17 15 17 21 22 22 26 38 51 33 14 23 27 32 32 30 33 36 38 40 39 36 36 34 34 26 29 29 33 32 30 28 24 25 27 27 27 23
31 31 26 24 18 19 14 13 12 15 17 17 18 22 33 50 40 22 21 29 32 32 31 31 36 37 34 35 35 30 34 27 28 30 33 36 33 30 29 24 25 29 29 28 29
30 30 27 22 14 15 13 12 12 12 12 14 16 17 31 50 35 19 20 20 26 28 30 31 30 33 30 31 28 28 19 29 30 29 31 34 37 38 26 28 28 29 31 32 31
26 26 24 18 15 13 11 10 13 14 13 11 13 17 31 45 26 18 19 21 25 25 24 27 23 27 24 21 24 25 24 22 27 31 33 30 35 15 14 28 28 27 30 32 34
29 24 20 18 18 11 8 10 14 12 11 13 11 14 17 45 36 16 24 18 26 27 26 27 24 24 23 22 18 23 16 29 22 21 20 28 31 30 28 29 28 25 26 31 33
30 25 20 15 9 5 8 11 13 9 8 9 9 14 22 37 42 25 24 20 28 28 28 27 24 28 25 27 21 22 19 14 24 25 26 25 27 27 23 23 23 23 22 27 30
30 22 15 10 8 4 5 11 12 5 4 9 22 14 11 27 40 27 25 23 31 34 34 33 32 36 31 24 12 17 16 19 13 19 18 21 26 28 24 27 26 23 21 21 22
27 17 10 2 3 5 9 10 2 2 12 14 29 13 18 24 28 25 25 31 32 35 36 31 33 30 25 22 15 13 13 11 11 15 17 21 26 25 23 24 23 25 24 21 21
22 18 9 5 3 5 9 5 9 19 17 21 23 9 12 20 33 28 16 23 33 34 33 33 23 24 25 26 22 15 12 11 9 9 13 20 20 15 12 12 18 20 19 19 20
28 16 15 12 8 7 12 16 20 17 13 23 17 11 16 15 20 17 8 19 19 29 36 27 21 22 24 23 21 16 12 12 10 6 3 6 6 11 12 14 15 13 16 18 18
38 26 19 20 20 22 27 26 15 10 5 6 9 16 25 18 20 19 10 9 14 29 16 14 16 18 29 28 25 17 16 11 8 5 6 7 3 3 5 7 9 8 8 9 10
36 32 35 40 36 32 26 11 10 5 7 6 17 20 23 16 17 22 13 13 11 21 13 14 17 20 20 23 27 16 13 6 6 5 2 4 8 2 7 12 8 4 3 3 4
29 39 30 29 24 17 18 15 10 10 8 16 21 21 13 20 21 15 19 19 9 13 21 19 12 11 11 17 17 15 11 1 0 1 3 5 7 8 7 11 7 2 3 6 9
18 19 21 14 12 16 14 17 16 14 19 22 20 17 12 15 12 13 12 9 11 15 17 6 7 12 12 11 8 16 14 3 4 3 2 8 7 3 4 7 8 5 7 10 12
10 6 6 8 10 12 6 13 8 9 21 21 17 12 12 13 11 16 11 8 7 5 3 7 6 11 17 12 10 14 10 8 3 1 1 4 5 7 3 7 3 4 12 18 22
16 5 5 2 6 10 1 14 12 18 20 16 5 8 11 15 13 14 12 9 7 9 6 8 8 14 12 13 11 7 12 6 5 3 3 4 6 7 10 4 4 12 18 22 23
15 11 10 6 4 1 17 21 22 19 12 6 1 8 9 13 12 14 13 4 13 9 8 6 4 10 12 11 13 13 10 5 5 3 3 1 3 5 10 3 11 18 20 22 24
14 10 12 13 5 15 20 18 14 11 7 2 3 4 9 12 10 18 12 4 12 9 8 7 5 7 11 6 10 13 13 13 5 5 5 2 3 9 7 5 18 18 21 25 27
8 10 11 12 8 10 8 8 4 4 2 1 2 2 5 10 7 12 12 12 6 13 6 9 5 7 3 5 10 12 17 16 15 7 8 4 2 7 3 14 12 17 21 24 27
8 6 6 5 6 8 5 3 2 3 6 7 5 6 3 8 9 6 11 11 10 5 15 8 6 3 3 0 2 7 13 18 20 10 7 16 7 8 10 10 9 14 20 24 28
11 6 8 7 5 3 2 2 2 2 5 5 5 4 6 8 9 7 12 12 11 13 13 15 5 7 8 10 10 9 8 12 24 26 14 11 14 7 5 7 11 17 22 23 25
12 12 9 9 6 7 4 3 4 3 5 3 5 4 7 4 4 2 7 10 7 9 10 19 6 4 6 10 14 18 17 19 18 20 28 25 15 2 6 9 12 17 21 22 25
8 12 12 11 10 7 7 5 3 2 1 7 11 8 2 3 2 4 8 7 3 2 10 13 11 4 4 4 8 15 16 21 23 23 18 21 3 5 6 9 11 15 18 21 25

GFSSW_700_spd_036.txt.gz
Wind_Speed
40 39 37 32 26 24 26 24 29 28 29 25 26 36 44 47 23 33 38 34 28 26 31 31 34 36 36 36 41 43 29 34 33 29 25 29 23 23 22 23 21 20 21 20 16
37 32 29 29 28 27 26 23 26 32 31 29 26 23 39 48 43 30 33 26 25 28 28 34 36 35 36 36 38 41 35 34 26 27 26 30 24 23 23 23 26 24 22 22 20
28 28 30 30 28 23 23 22 21 23 24 23 22 21 30 44 47 47 34 25 27 28 32 32 32 31 36 38 40 40 34 29 31 33 31 30 25 25 23 19 24 25 24 25 24
26 28 28 28 27 21 20 22 18 16 17 17 20 22 20 32 41 41 28 31 30 31 32 31 34 34 35 38 40 35 38 27 33 32 30 29 27 27 24 20 22 25 24 26 25
23 28 28 26 23 20 18 12 12 13 15 16 16 18 23 27 46 35 28 26 32 34 35 35 36 36 32 37 38 39 30 36 27 33 28 30 28 26 27 26 24 25 25 27 25
29 27 27 23 20 15 11 8 9 10 11 11 13 16 22 27 42 30 18 23 36 37 35 33 34 35 29 26 35 35 26 28 31 26 32 28 30 31 31 27 25 25 27 28 27
33 28 25 20 15 9 9 8 9 9 9 8 11 16 24 27 39 43 20 23 34 35 34 29 33 36 31 27 31 15 28 24 28 32 29 32 33 36 29 24 25 26 29 29 30
33 30 23 16 13 12 8 6 5 6 9 10 12 14 21 20 28 46 21 30 36 30 30 27 26 30 21 23 21 24 17 21 29 29 32 31 24 18 15 30 27 29 30 31 31
32 26 19 13 11 8 8 8 5 9 10 10 11 12 9 22 36 36 35 27 32 30 32 28 25 26 28 21 16 22 18 25 14 26 30 31 20 24 26 19 21 27 29 31 30
31 21 14 9 6 2 6 8 5 8 6 6 7 7 16 33 40 36 22 22 29 32 28 28 25 25 22 26 28 26 25 18 22 22 24 27 27 27 23 23 24 28 27 27 29
28 23 14 6 2 2 2 5 8 3 5 7 14 11 19 29 28 27 28 24 28 33 36 35 28 31 28 25 11 15 21 14 16 25 22 24 23 27 23 23 24 25 24 25 27
29 23 14 8 6 5 6 6 3 6 11 15 22 17 20 32 29 24 19 24 38 39 33 32 29 24 20 22 14 15 17 15 16 14 19 15 21 19 18 22 25 26 25 24 25
31 22 19 14 11 11 8 12 15 14 11 19 12 20 20 23 28 25 22 17 38 37 37 33 23 25 25 22 16 14 15 16 9 13 13 14 16 16 19 22 24 24 22 22 25
35 26 30 31 32 31 28 23 17 12 9 11 12 23 22 18 20 19 22 21 33 39 35 18 22 23 23 22 18 14 16 12 10 6 7 4 2 8 11 15 14 15 17 19 21
34 31 30 31 29 24 22 18 10 5 3 7 19 18 16 16 22 20 15 16 26 37 22 14 20 22 24 24 20 11 14 11 9 7 4 7 6 4 10 12 12 12 12 13 15
22 22 22 19 26 22 15 14 11 7 8 12 15 18 15 17 15 13 14 12 21 33 20 18 22 23 25 27 23 13 15 10 7 5 4 9 8 7 12 13 13 12 11 11 11
11 14 12 15 18 17 16 14 9 10 6 12 17 13 17 17 15 15 17 15 9 15 22 20 16 18 27 28 27 21 16 4 4 3 2 8 7 3 13 16 14 13 10 9 9
12 12 14 15 16 13 8 11 14 10 13 18 15 11 21 21 19 16 18 16 9 13 19 6 7 10 21 25 20 24 13 4 4 4 3 8 7 4 16 17 13 10 7 9 12
16 15 17 17 15 15 7 9 6 9 11 11 11 10 12 10 12 12 12 14 19 15 4 6 7 8 9 9 21 20 11 10 4 2 2 6 5 7 13 12 13 9 11 13 17
18 15 17 18 17 12 2 12 9 13 16 8 3 3 5 11 9 9 8 9 9 9 6 8 9 10 13 10 11 11 14 5 5 5 5 4 4 6 18 18 8 5 11 16 20
16 10 13 14 12 6 11 16 13 15 7 2 4 3 5 9 8 12 10 9 10 9 7 9 5 12 12 12 10 12 13 8 7 3 2 2 3 11 17 13 3 10 14 17 19
11 11 13 15 4 3 16 10 10 7 5 5 5 1 4 6 8 9 10 3 11 8 9 9 7 8 13 12 15 17 13 11 6 5 4 1 2 11 14 7 11 14 14 17 18
9 10 8 13 8 11 11 10 5 4 1 2 3 4 4 7 3 12 9 8 9 9 7 10 6 7 4 8 14 17 22 21 19 9 8 4 4 13 11 8 14 12 15 16 18
9 6 7 5 4 7 7 5 3 3 4 6 6 3 2 8 6 10 9 8 7 9 11 9 9 6 5 3 7 13 19 22 20 10 8 12 5 16 6 11 10 12 13 16 17
11 10 8 5 4 3 2 2 4 2 3 5 5 6 6 6 9 6 9 11 10 9 9 12 8 10 8 7 6 6 7 16 26 23 10 7 15 12 10 10 10 10 12 14 17
9 12 13 10 7 7 7 5 5 3 3 3 6 5 7 6 6 2 5 10 9 12 13 14 7 8 9 11 12 16 18 19 18 20 28 25 21 11 7 8 10 10 13 13 17
9 8 13 13 11 9 8 7 5 3 1 4 9 7 4 5 4 5 6 9 4 3 8 13 11 5 3 5 8 14 17 24 24 23 19 19 5 7 7 10 10 10 12 12 14

GFSSW_700_spd_039.txt.gz
Wind_Speed
38 37 31 29 28 29 27 27 28 26 28 31 29 28 34 45 45 36 32 34 31 29 30 33 35 36 34 37 39 34 30 32 30 28 24 19 20 16 16 17 19 14 19 18 17
37 30 27 29 29 28 24 25 27 25 33 29 26 25 26 39 49 42 39 36 25 28 28 33 34 34 36 36 39 38 34 34 25 25 23 21 23 16 22 23 17 22 24 23 19
30 25 26 28 27 26 24 20 23 23 26 29 22 18 22 25 46 51 32 31 27 29 30 29 30 30 32 33 35 39 37 30 24 25 22 20 19 16 20 17 18 18 19 26 24
29 28 26 28 26 23 20 18 19 19 21 20 21 20 17 14 19 34 41 22 35 29 30 28 31 30 27 33 37 25 36 22 26 31 34 25 17 17 22 15 16 19 27 25 26
32 33 30 25 23 20 19 15 14 13 10 10 8 10 12 18 23 22 46 34 29 32 34 31 32 33 26 26 20 34 15 26 20 32 34 23 21 21 17 20 27 25 23 25 27
34 35 33 24 19 15 11 7 7 6 7 7 9 8 13 18 16 24 30 48 34 32 35 31 31 29 22 17 26 21 19 20 20 25 26 25 18 21 25 17 24 25 23 26 28
36 26 26 19 12 9 8 6 6 6 7 8 10 12 17 17 17 31 25 41 30 32 33 28 23 29 22 23 25 12 23 14 20 24 20 23 23 27 25 15 24 24 24 26 29
28 23 20 13 8 9 8 6 4 3 5 7 10 12 18 13 19 34 29 35 33 33 29 28 24 26 19 21 17 16 18 21 22 26 26 25 22 18 24 26 26 21 24 26 30
30 24 18 13 5 5 5 7 4 5 8 8 9 9 9 18 26 39 30 25 28 31 28 27 28 29 19 21 16 21 18 24 16 29 23 27 18 19 20 17 23 28 28 29 30
33 27 21 13 9 5 1 6 6 6 7 6 7 7 10 16 25 45 23 22 31 35 31 29 26 30 22 24 28 26 28 21 24 19 30 24 22 16 23 23 23 22 22 26 30
39 29 23 17 13 8 5 3 6 6 6 7 6 14 14 17 25 27 28 25 31 33 37 32 28 35 35 31 21 19 23 19 20 21 16 22 21 21 21 25 25 26 26 25 29
39 36 29 26 19 13 7 4 1 3 4 7 10 14 21 29 28 26 37 31 38 38 30 29 34 24 20 22 22 11 20 21 14 21 25 16 19 19 22 22 24 26 27 27 28
35 35 37 36 36 30 21 10 4 7 5 13 17 15 23 21 23 16 23 28 33 35 31 35 28 21 20 23 20 16 17 19 9 17 14 11 19 21 20 24 28 28 26 27 28
23 27 30 30 29 22 16 14 13 8 5 18 18 13 19 13 13 8 16 28 33 33 26 22 24 22 21 21 21 17 14 15 11 10 8 11 4 12 20 24 24 24 25 26 27
13 17 23 28 28 24 16 12 10 8 4 7 14 11 12 8 12 8 3 22 35 36 26 14 27 24 24 21 18 11 18 11 11 8 4 9 6 9 14 17 17 17 19 21 22
14 15 20 23 22 21 17 13 10 8 8 8 13 9 11 8 11 7 5 18 32 34 21 18 27 22 21 23 20 14 14 9 7 4 5 13 13 12 14 16 17 18 16 17 17
16 17 18 20 21 20 17 11 7 8 3 9 9 14 15 17 11 11 10 18 18 19 18 23 22 20 27 24 18 17 17 7 6 5 4 12 9 3 13 14 15 14 14 14 13
19 17 13 15 17 18 9 9 11 8 8 12 9 14 16 12 9 9 11 7 14 11 20 10 5 26 24 31 23 21 21 3 7 6 7 7 9 4 13 18 20 16 14 13 13
18 16 16 15 16 14 5 7 5 9 9 6 5 5 7 8 11 10 8 6 17 12 5 6 5 7 21 33 23 26 14 9 2 1 2 9 7 9 18 19 18 16 14 15 15
15 14 17 13 8 12 1 9 8 13 14 7 1 3 4 4 5 4 2 9 12 10 8 6 9 4 10 16 23 23 18 6 4 4 5 7 7 6 18 21 17 16 14 13 15
11 10 14 13 6 3 4 12 13 15 6 3 1 1 4 5 5 6 3 9 9 8 4 9 5 9 9 7 10 10 10 8 4 2 3 2 4 5 16 19 15 8 10 12 15
10 6 8 15 4 6 10 13 15 7 5 6 5 4 4 6 6 4 4 3 11 9 4 6 6 8 8 14 15 13 9 13 6 5 4 2 1 12 16 16 13 9 11 12 14
10 9 5 7 4 5 8 8 10 7 2 1 2 3 6 7 3 6 6 7 10 10 5 7 3 6 3 7 15 19 18 13 11 6 7 4 4 17 16 13 9 11 11 14 15
10 6 6 3 1 6 4 5 4 4 4 4 6 3 3 6 5 8 8 10 8 8 8 10 6 6 2 3 6 14 18 19 19 9 10 13 2 14 16 4 9 13 12 13 15
8 8 9 6 6 5 4 4 4 3 4 6 3 6 5 4 6 5 8 10 11 8 10 8 7 12 8 5 5 5 11 18 26 26 13 7 15 12 12 9 12 13 13 13 12
8 8 10 11 9 7 7 6 7 7 5 5 3 5 6 3 5 7 8 8 9 12 12 12 7 11 11 13 13 16 17 15 18 24 28 20 17 16 17 16 17 13 12 11 11
8 9 8 12 12 9 9 9 8 5 3 3 6 3 3 6 8 7 7 7 6 7 11 10 10 6 3 5 7 14 23 26 24 24 21 22 14 9 14 17 15 12 12 11 10

GFSSW_700_spd_042.txt.gz
Wind_Speed
41 41 36 31 28 30 28 27 25 26 24 26 28 30 32 32 41 43 44 42 32 27 28 32 35 34 33 38 39 36 34 38 36 27 20 16 18 20 18 17 14 16 15 14 12
43 34 30 28 28 28 26 24 23 24 23 23 28 30 25 29 32 45 41 28 31 31 26 31 33 32 34 35 34 29 37 39 37 25 22 17 22 18 17 22 14 19 22 18 15
35 32 34 30 28 25 25 21 20 19 19 19 25 27 25 27 29 42 48 29 27 30 28 27 29 29 32 32 38 37 39 41 25 23 26 18 20 24 15 17 21 16 21 25 20
35 37 38 35 27 22 21 19 18 17 16 15 17 20 19 22 11 13 45 35 31 27 29 30 31 31 28 35 38 35 39 27 28 27 25 17 14 22 20 14 17 20 23 26 25
37 29 26 25 20 18 16 15 13 11 8 7 10 12 16 17 14 15 34 34 33 32 32 30 31 30 28 33 28 34 19 17 24 20 21 25 21 16 17 20 18 25 28 26 22
35 28 25 22 16 11 9 7 7 3 3 1 2 2 3 8 14 19 26 43 39 32 31 31 31 25 21 9 27 21 23 10 21 30 27 24 27 21 22 15 25 27 25 24 24
36 29 24 18 13 5 6 5 3 1 2 1 2 4 7 5 16 23 23 36 27 25 32 31 27 24 18 20 19 8 22 14 25 27 29 25 28 31 24 22 20 22 27 25 24
42 31 26 19 12 9 7 2 1 2 2 1 3 6 8 5 10 31 28 32 35 34 27 27 23 25 15 19 18 25 16 19 24 21 26 30 26 22 28 25 22 23 22 22 24
41 36 26 19 15 12 6 3 3 1 6 6 7 8 5 12 11 21 24 31 37 22 35 30 29 27 23 18 18 22 18 23 18 24 22 28 20 15 14 19 23 26 22 21 24
42 42 36 24 15 9 6 1 5 6 5 5 5 5 9 2 9 24 22 28 37 26 31 33 29 31 28 20 24 26 26 23 25 23 27 32 31 11 18 24 23 19 25 27 27
32 40 39 38 30 11 7 5 4 5 4 2 2 9 8 9 10 32 25 27 31 37 36 31 32 43 41 37 22 14 20 18 19 21 18 35 29 25 20 23 24 22 23 23 23
27 30 32 30 28 19 15 13 7 4 3 3 5 11 8 17 16 36 20 26 32 33 33 33 35 32 27 22 20 17 14 23 12 23 18 14 23 29 26 26 29 25 27 26 25
26 29 30 30 27 24 15 19 16 12 11 9 9 10 20 14 24 20 19 17 37 33 28 26 24 21 22 23 24 21 15 21 20 13 19 15 23 25 26 30 28 28 30 30 30
22 25 28 27 26 26 24 22 17 13 8 11 9 17 10 19 12 14 17 31 24 35 24 16 25 28 22 26 25 21 14 14 19 10 6 19 5 12 21 27 29 29 28 28 30
23 21 23 27 23 23 21 16 11 9 3 4 5 10 11 6 19 15 15 28 25 31 22 15 22 31 24 25 23 15 20 15 14 11 8 11 6 11 16 25 26 28 28 28 29
22 22 20 19 19 21 17 10 9 6 5 4 8 10 9 7 10 13 6 24 24 33 23 18 22 19 17 21 21 16 17 13 8 7 5 17 13 13 23 23 20 21 20 20 21
21 19 19 15 15 18 13 8 5 7 2 6 10 12 12 12 9 8 4 20 23 22 21 14 26 28 27 18 14 21 20 7 3 4 4 7 15 10 12 14 16 19 20 19 16
18 19 16 14 13 15 8 7 8 8 8 10 9 11 15 12 9 6 13 17 19 24 21 7 10 30 25 24 18 20 22 6 5 4 5 11 9 8 16 15 15 14 18 14 14
15 16 15 13 10 14 9 8 5 6 7 7 9 10 8 7 7 8 8 12 18 20 13 5 4 21 25 25 22 25 24 12 4 4 4 9 8 12 20 24 23 20 15 15 15
12 11 13 15 9 9 5 5 7 11 11 7 2 3 5 5 4 4 6 11 10 15 14 7 7 8 24 31 28 22 22 10 8 2 4 9 9 13 24 24 23 22 17 16 16
12 10 11 16 8 3 3 4 14 10 5 5 3 2 4 4 5 3 3 7 8 10 10 8 4 7 14 17 29 25 24 10 7 5 2 2 2 4 15 17 22 20 19 16 14
10 8 9 11 6 5 4 9 11 6 7 7 5 6 3 4 5 4 5 5 11 10 6 7 7 8 6 9 17 25 20 24 6 4 5 0 2 4 8 15 18 18 12 10 11
7 6 5 4 4 1 7 7 9 4 2 2 2 2 3 6 3 5 8 6 11 11 8 8 5 7 4 7 14 17 18 15 21 8 8 2 2 10 11 15 16 12 11 12 11
6 3 4 2 4 5 2 2 4 4 4 3 4 2 4 4 5 7 7 8 9 10 9 10 7 5 4 4 8 24 25 23 23 14 7 12 9 19 22 16 12 13 12 11 11
6 4 6 4 6 6 9 5 3 4 4 4 3 7 5 3 3 4 9 9 10 9 9 9 8 10 7 5 6 7 16 24 30 29 15 10 15 13 14 11 12 13 14 11 12
6 5 5 9 7 6 4 2 5 6 5 3 2 2 6 3 5 5 8 6 9 13 9 11 6 9 11 12 13 15 14 16 28 27 31 18 16 13 17 18 19 18 16 13 13
6 6 4 5 9 6 8 9 5 5 3 5 5 2 5 7 9 7 9 7 6 9 11 11 8 4 1 5 7 14 24 26 24 23 24 30 29 22 23 25 25 20 16 14 12

GFSSW_700_spd_045.txt.gz
Wind_Speed
41 35 29 31 31 30 28 26 23 24 23 21 21 21 28 32 34 37 42 38 28 33 28 31 33 31 32 37 40 37 36 37 41 30 34 10 6 19 17 20 16 16 14 9 14
41 33 31 33 36 32 28 22 22 20 20 21 19 20 26 28 34 36 41 41 33 23 25 29 33 33 34 35 36 40 45 41 31 33 27 20 10 12 21 23 12 13 17 13 15
42 36 29 24 26 21 19 17 17 15 16 15 15 18 23 33 27 36 29 42 44 36 26 26 28 31 33 35 38 38 42 41 30 31 35 28 20 10 20 25 24 14 18 21 17
39 36 28 25 24 19 14 15 12 12 12 13 15 16 20 36 14 24 32 38 38 35 33 26 30 32 32 36 36 36 40 36 34 25 30 27 19 16 21 22 26 22 15 23 20
39 35 29 24 20 15 10 9 8 7 6 5 6 7 9 24 18 20 23 36 32 32 35 33 34 33 35 35 34 36 29 30 25 33 31 25 20 29 15 23 18 17 20 23 21
39 37 31 25 17 9 10 8 6 4 2 1 2 4 5 15 19 17 25 46 35 32 33 33 35 31 30 19 31 35 25 20 22 26 19 21 24 20 16 21 23 17 19 23 24
32 37 33 25 17 12 8 7 4 4 4 3 1 3 10 5 18 20 20 42 44 34 34 29 27 30 25 17 23 10 29 18 20 36 25 24 22 28 20 20 24 26 24 26 26
34 33 32 29 19 14 7 5 4 5 6 3 1 2 6 5 8 21 21 35 42 36 32 29 29 25 23 16 20 15 17 24 21 37 24 26 30 30 33 30 30 26 27 30 29
35 34 31 28 25 12 7 4 3 4 6 4 5 3 2 7 5 19 24 31 37 43 39 36 37 31 23 24 23 27 16 28 21 34 32 33 39 32 21 28 31 29 27 24 22
30 33 33 29 26 12 6 4 5 7 6 5 2 1 5 5 10 20 24 25 22 31 35 38 35 37 29 31 36 40 34 32 31 31 30 34 30 15 24 23 23 27 28 25 24
27 29 32 32 30 30 16 11 7 4 2 2 2 7 4 6 9 15 27 27 31 38 40 39 41 49 42 35 17 30 26 20 25 22 19 27 32 28 20 22 22 24 22 22 27
26 26 28 30 33 32 20 20 17 12 8 3 2 2 4 10 10 15 26 22 23 24 31 29 41 37 37 29 18 16 13 23 15 21 23 21 24 33 31 32 29 29 24 24 24
26 26 26 25 28 27 19 16 14 15 15 14 12 8 11 10 13 22 16 20 28 23 32 32 29 31 31 30 25 22 17 13 19 17 24 18 22 25 35 35 34 31 29 30 30
24 26 25 21 21 21 18 13 11 16 9 11 10 9 5 9 11 15 17 21 25 25 28 20 19 24 28 27 25 21 16 10 17 21 12 13 7 17 28 34 33 34 31 31 32
21 23 22 17 17 18 15 10 6 9 4 7 7 7 18 12 16 9 8 17 36 31 19 13 26 29 26 26 19 16 13 13 20 15 9 9 8 23 21 25 32 33 34 33 34
19 20 18 16 13 15 12 8 6 6 5 8 8 14 7 15 13 15 8 25 24 26 14 14 24 24 26 27 18 16 19 15 12 10 4 19 19 11 22 28 19 26 29 31 33
17 16 14 15 13 15 11 5 5 8 3 8 11 11 12 14 13 8 11 25 18 21 15 12 20 26 27 24 23 21 23 4 1 2 6 10 19 24 8 18 21 23 23 24 25
13 13 12 13 9 10 10 7 10 7 7 9 11 12 12 10 10 7 19 24 18 21 17 12 8 20 18 28 23 26 24 9 6 5 4 11 14 20 23 16 15 16 19 20 21
11 10 9 15 8 7 6 6 7 8 5 11 8 6 6 8 8 7 8 17 21 17 10 10 9 22 21 26 24 33 24 14 3 4 3 9 11 12 15 18 21 20 16 15 17
9 6 7 12 10 6 6 7 10 15 11 6 5 5 4 8 7 5 6 12 17 25 18 9 5 21 23 28 28 22 23 11 9 2 4 7 8 14 24 24 23 23 19 17 16
7 5 5 9 9 7 6 16 18 13 8 5 7 4 4 4 3 4 3 10 6 21 19 11 5 11 20 25 28 27 28 14 12 6 3 2 5 10 17 20 26 24 20 18 15
4 3 3 5 6 4 8 20 13 10 8 8 9 10 7 5 6 3 7 6 10 10 17 11 7 8 10 13 24 32 27 27 10 6 6 3 4 6 9 15 22 24 24 17 12
4 5 3 2 2 6 5 11 9 7 4 4 3 6 8 10 5 6 7 9 16 15 14 11 8 9 3 5 13 30 35 29 25 16 10 4 3 6 6 13 20 23 17 13 11
4 3 5 5 7 6 6 5 4 2 1 2 2 3 9 8 6 9 10 12 17 16 13 12 9 7 13 4 10 22 32 35 32 24 19 14 7 13 10 9 15 17 15 13 12
6 2 5 3 9 6 7 6 2 1 1 2 1 6 9 2 3 4 6 10 12 13 14 14 11 13 10 7 8 9 21 26 31 30 18 25 17 18 12 14 15 16 15 12 11
5 2 3 5 7 6 8 6 8 6 4 2 1 3 9 4 4 3 6 6 11 14 13 13 7 12 13 13 12 13 13 20 33 32 32 20 19 22 16 20 20 18 15 12 13
10 3 2 5 8 9 6 9 6 8 5 8 6 4 10 8 7 6 7 6 6 6 14 12 10 7 4 6 9 16 25 28 25 31 35 37 35 16 23 25 23 23 18 17 15

GFSSW_700_spd_048.txt.gz
Wind_Speed
34 39 38 33 28 26 29 29 26 23 20 18 18 20 23 28 29 31 42 39 35 27 30 35 34 34 35 38 38 43 41 40 48 32 33 26 18 16 15 21 19 14 12 12 17
35 42 44 35 27 24 23 19 19 15 17 17 18 18 22 26 33 40 36 36 35 30 30 30 35 34 36 37 40 44 47 45 40 42 40 25 19 11 14 15 20 17 13 15 17
36 41 41 34 25 21 16 12 14 14 13 13 14 14 19 26 24 38 36 34 37 31 26 29 29 32 36 37 40 40 48 42 38 36 40 36 22 11 13 9 22 20 17 14 17
37 40 41 34 24 17 11 10 8 8 9 10 11 13 18 23 19 26 27 31 41 35 25 31 33 36 36 40 39 40 42 41 39 27 35 51 21 18 15 9 18 21 19 15 14
37 41 35 34 19 11 11 9 6 4 4 3 3 7 11 22 25 16 32 38 48 45 30 29 36 37 38 38 36 37 34 35 36 27 28 39 43 23 17 11 12 26 26 23 19
34 39 34 33 21 14 11 7 4 4 2 0 2 2 5 13 19 29 27 30 45 52 42 30 34 33 36 37 38 36 24 26 26 23 21 29 30 27 18 11 10 18 27 25 21
32 35 36 32 22 15 10 6 5 5 3 2 3 1 4 9 18 17 18 30 37 40 40 38 29 34 30 28 34 16 28 21 29 31 22 12 21 32 26 11 12 17 18 21 23
30 30 35 33 27 15 9 6 5 6 5 5 5 3 6 4 8 17 24 40 41 39 37 35 32 28 27 21 27 15 30 23 26 29 31 22 29 28 21 19 17 23 25 25 25
29 28 30 32 23 19 9 5 4 5 5 4 2 1 3 2 6 11 26 32 38 40 41 39 38 31 31 23 31 22 28 32 29 32 31 38 33 27 24 23 27 26 26 29 30
28 28 26 28 24 20 13 6 6 5 3 2 2 1 3 3 5 15 24 25 36 32 39 41 44 34 33 32 35 39 33 39 35 33 31 37 36 25 27 33 30 34 36 30 28
27 27 25 22 23 19 15 13 7 6 3 2 1 1 3 3 6 13 19 30 27 38 28 40 45 46 44 37 17 31 30 33 30 20 32 38 36 33 24 30 31 28 30 32 31
24 26 25 18 18 16 13 14 16 13 11 6 4 2 1 3 6 10 24 34 20 33 37 39 45 40 36 32 22 18 31 23 25 23 22 27 32 29 30 28 29 27 28 24 24
21 22 22 18 15 14 11 10 12 18 16 12 9 8 7 6 6 14 12 26 17 35 33 31 32 39 36 31 22 25 26 25 20 22 27 26 31 31 35 40 32 33 32 28 26
17 18 19 18 12 11 9 6 11 15 8 7 4 3 5 5 10 19 20 15 15 30 37 23 25 36 34 30 24 22 18 14 12 19 18 21 8 24 33 33 42 41 38 34 33
15 15 17 15 13 9 4 4 5 4 3 4 6 4 16 5 15 4 8 21 19 36 12 16 27 34 30 33 26 16 16 10 9 20 17 16 10 26 22 27 36 40 39 39 37
18 12 15 13 12 10 7 3 4 4 4 6 4 14 11 6 11 10 14 17 18 20 17 23 27 24 26 28 24 17 17 12 13 16 7 18 16 19 24 31 27 27 36 38 38
18 12 11 11 9 9 7 2 4 7 2 6 6 9 18 13 12 6 27 26 18 19 19 25 26 23 28 27 21 19 21 4 1 3 8 11 16 36 15 22 22 28 27 35 36
14 10 7 11 9 8 4 3 4 8 7 11 14 12 11 10 7 14 19 20 19 11 21 12 13 24 26 28 22 25 26 9 6 4 4 12 15 29 28 28 17 19 20 25 29
13 9 6 10 9 7 3 3 6 12 16 13 6 5 5 5 5 8 15 22 19 18 8 12 8 25 18 28 26 29 23 13 2 2 1 10 23 32 21 28 25 21 23 24 25
11 7 6 7 6 3 2 5 13 14 13 8 5 4 7 7 6 6 9 19 19 20 13 13 8 20 24 22 27 26 30 13 8 2 4 7 15 19 18 25 24 28 26 21 19
8 4 3 6 4 1 1 9 19 14 9 5 7 7 6 4 6 5 4 12 17 21 11 15 6 15 24 23 27 24 29 21 12 6 3 2 8 14 21 17 19 25 22 20 16
7 5 4 2 3 3 9 16 14 9 5 7 8 8 7 7 4 3 6 4 10 23 22 14 8 9 17 18 27 32 22 31 12 8 15 3 9 7 9 16 15 18 19 18 14
5 5 4 3 3 0 11 9 10 9 7 7 7 8 7 8 3 4 5 9 12 15 15 15 5 8 4 11 20 29 31 32 31 18 17 9 7 5 5 10 17 20 20 20 17
4 3 6 7 5 5 4 10 5 4 2 3 4 5 9 10 5 7 8 12 14 12 12 9 7 8 11 2 11 22 35 37 35 25 28 29 24 22 10 7 14 22 24 20 17
7 3 6 5 9 8 8 8 6 3 4 4 3 7 9 6 8 6 8 12 17 17 15 13 8 14 12 10 9 11 16 27 41 43 24 32 34 29 18 12 11 14 19 18 16
11 3 4 5 11 12 12 9 8 7 5 4 6 10 8 7 6 5 4 9 11 18 17 17 9 11 17 15 13 15 15 18 29 40 46 43 38 31 23 21 17 17 17 18 17
14 6 3 4 8 9 11 9 11 9 7 8 7 10 12 10 6 5 5 5 6 12 15 16 13 7 5 10 13 19 27 29 28 32 36 37 36 21 22 25 24 24 22 19 15

GFSSW_700_spd_051.txt.gz
Wind_Speed
26 33 37 34 36 32 27 24 24 21 22 22 19 18 20 22 30 33 34 36 35 30 30 35 37 37 40 41 43 39 42 47 51 43 42 29 22 10 16 14 18 17 16 16 16
28 33 37 36 34 30 23 20 17 14 13 13 16 18 20 23 24 39 35 30 34 28 32 31 37 36 36 40 40 42 51 51 47 43 47 32 24 17 14 14 14 14 18 15 16
29 33 36 37 32 28 17 15 13 13 13 10 13 14 18 21 24 32 38 30 33 36 29 29 27 30 35 35 37 38 45 42 43 41 36 48 28 18 17 19 17 15 14 18 18
31 32 36 36 30 23 18 17 13 10 8 8 9 12 15 20 16 22 29 31 34 42 31 30 31 33 35 35 38 40 41 40 33 30 34 54 40 24 14 17 19 18 17 17 19
30 30 33 34 28 21 17 14 10 8 5 4 4 7 14 19 20 12 21 35 39 44 36 32 35 38 37 33 34 40 36 36 36 37 31 33 52 33 18 13 17 18 20 17 17
27 28 29 32 28 19 15 10 6 6 5 3 2 3 9 15 19 23 21 36 41 47 37 33 39 36 35 27 31 32 29 32 35 33 32 31 40 39 26 10 12 14 19 17 19
26 26 27 30 26 20 12 7 6 5 6 4 3 5 8 9 19 27 21 30 40 50 41 37 34 37 31 24 33 14 25 23 27 30 28 31 27 47 25 10 15 13 12 19 21
24 25 26 24 23 22 11 5 4 5 5 6 5 6 10 7 15 19 30 20 36 50 35 30 28 33 19 23 32 15 21 22 23 25 26 21 26 18 31 26 20 17 16 16 19
22 23 25 21 20 19 14 7 7 7 5 6 7 5 2 14 9 19 22 26 35 53 40 32 26 33 24 25 26 32 22 26 21 26 24 28 28 20 23 24 25 23 20 20 21
23 22 24 21 17 15 16 8 5 2 2 3 5 3 1 2 4 1 19 29 36 44 35 35 35 35 30 30 35 42 37 37 32 32 32 35 32 24 21 19 23 24 20 22 24
22 21 22 21 14 11 12 12 6 2 3 4 3 3 3 0 2 7 18 30 38 42 38 39 38 46 41 37 19 32 34 35 30 28 32 34 34 22 20 24 24 22 26 26 29
22 19 19 19 14 9 6 10 9 6 5 4 2 2 2 3 4 8 15 29 32 42 23 49 45 42 37 34 14 30 26 26 28 20 21 28 29 30 31 30 33 30 31 30 31
19 17 17 16 14 10 3 3 7 11 9 11 10 6 9 7 5 10 15 18 15 26 34 45 39 39 38 29 23 21 27 25 24 25 18 15 26 32 34 39 38 36 33 34 33
18 16 15 15 13 10 5 4 4 3 3 6 6 3 2 7 6 12 11 19 5 18 33 32 30 37 36 26 26 19 17 23 16 17 19 21 7 25 37 39 39 42 37 34 35
17 14 13 14 14 12 6 5 4 1 3 6 6 5 10 5 13 8 14 24 2 20 14 13 34 40 34 31 23 16 14 14 18 11 13 15 10 28 25 27 40 43 42 39 37
17 13 12 12 14 12 7 3 1 0 2 3 6 11 11 13 10 12 13 8 9 21 16 23 32 33 33 29 25 19 15 9 7 10 7 16 18 24 30 31 28 28 36 41 43
15 11 9 10 13 11 7 2 2 2 2 4 10 13 13 12 13 10 13 13 13 17 28 25 26 25 31 27 24 17 14 4 2 4 5 10 14 37 8 15 20 23 26 27 38
12 9 7 10 13 10 5 1 3 2 1 12 16 11 14 10 7 19 23 17 18 15 23 14 12 24 25 26 20 26 22 8 6 4 4 11 17 27 28 30 33 20 24 33 29
11 7 4 8 12 10 3 3 4 6 5 7 8 7 9 5 4 15 16 18 15 23 6 9 9 22 20 27 23 28 25 17 4 3 1 10 17 30 29 33 28 26 22 26 33
10 5 4 6 11 6 1 3 8 10 9 3 2 4 4 7 8 8 15 18 19 21 10 12 9 25 19 28 27 24 27 13 9 3 4 6 12 17 22 16 21 27 26 24 23
7 4 4 5 7 4 1 4 12 12 6 2 1 4 6 4 5 5 11 13 20 20 15 13 7 13 23 25 27 28 25 17 12 9 4 2 6 6 14 17 19 18 22 23 19
7 5 5 5 1 2 5 11 14 8 5 3 4 5 7 6 3 1 6 5 19 22 18 19 11 11 18 26 23 29 32 31 17 8 14 5 14 14 20 17 15 12 16 19 17
6 6 7 6 1 1 7 8 8 4 3 3 4 5 6 8 4 6 6 5 15 24 17 14 4 8 6 16 26 27 30 32 34 27 25 10 8 6 6 12 8 11 13 16 17
6 5 8 6 3 3 6 8 5 4 1 2 2 4 7 8 5 7 8 11 14 20 22 17 8 9 12 4 13 31 35 34 37 24 25 35 33 26 28 19 11 10 15 16 15
9 5 8 6 9 7 5 7 6 2 1 2 1 4 4 6 7 4 6 10 13 13 12 11 6 9 13 10 9 11 14 22 40 45 26 30 36 38 33 25 15 10 13 17 18
9 5 7 9 12 12 12 9 9 7 5 1 3 3 5 4 4 3 3 7 10 16 14 14 7 7 11 13 15 17 18 19 23 26 40 48 49 38 30 26 25 25 18 19 19
11 6 4 5 9 14 14 11 11 9 9 8 4 4 6 4 4 4 5 4 4 9 14 15 9 8 4 8 13 18 25 29 31 31 29 35 30 30 32 29 27 26 21 26 18

GFSSW_700_spd_054.txt.gz
Wind_Speed
20 26 31 31 34 32 32 28 23 20 19 20 22 22 24 20 23 37 33 33 31 30 29 31 37 39 42 48 44 44 39 43 36 27 36 32 26 19 11 14 16 16 10 13 14
24 28 29 30 32 32 30 23 21 18 16 14 14 14 16 19 21 25 36 30 24 29 32 30 36 38 37 45 43 41 45 45 45 39 39 35 21 19 11 13 18 19 15 15 15
25 27 28 28 31 31 27 22 20 16 13 10 11 13 15 17 19 19 31 32 27 36 33 29 29 34 37 39 42 42 46 40 40 39 46 41 36 19 14 16 20 19 20 18 17
24 26 26 26 29 30 23 20 18 13 12 9 8 10 13 16 11 16 21 36 29 38 35 28 31 33 36 37 40 40 44 39 36 33 41 48 46 36 23 16 20 21 21 20 18
23 25 25 24 27 27 20 18 14 12 10 7 7 8 11 15 18 13 16 35 32 41 32 31 33 36 38 37 33 37 35 37 34 39 39 33 39 51 33 13 12 21 22 21 19
23 24 25 22 24 25 19 13 12 10 8 6 6 8 9 12 16 22 15 25 34 42 38 31 34 33 34 33 32 30 22 19 30 27 26 28 33 43 39 22 14 20 23 23 21
23 22 25 22 21 22 19 10 9 9 8 7 7 9 10 14 16 25 21 23 38 45 47 31 32 32 29 32 30 15 27 18 25 29 31 26 29 36 45 28 21 17 25 23 21
24 22 23 22 18 19 19 11 8 10 10 7 8 9 10 11 13 20 22 21 38 38 44 35 29 28 22 28 24 19 22 24 25 29 27 28 41 35 28 41 27 17 24 26 23
23 21 21 21 16 15 17 12 7 9 9 7 7 7 9 16 7 15 26 18 30 36 42 31 34 31 21 24 27 24 24 32 23 24 28 31 34 25 27 30 31 21 21 23 24
24 21 19 19 14 13 13 12 6 5 6 6 4 2 6 12 8 19 17 19 27 40 42 33 31 35 26 30 38 39 25 29 29 30 29 28 24 21 17 15 43 25 22 25 26
25 21 17 17 14 11 8 10 5 2 4 4 5 5 5 6 7 10 16 15 29 47 37 30 40 46 37 33 13 34 29 25 22 17 28 29 22 14 16 19 18 33 29 28 26
23 20 15 17 13 10 6 5 5 5 6 6 6 4 3 5 5 9 14 21 28 42 18 25 30 36 31 28 12 18 30 30 23 16 16 24 25 23 21 24 21 19 26 31 26
22 20 15 14 12 11 7 3 5 6 5 9 10 7 8 7 6 10 13 20 28 32 21 33 30 31 30 29 16 16 24 26 23 17 16 19 27 27 31 30 27 21 24 29 27
22 19 16 13 12 11 10 7 5 5 3 9 5 2 2 7 7 7 15 20 19 31 14 22 18 35 30 28 24 16 18 17 16 20 15 18 7 24 32 36 39 33 32 34 33
21 18 16 13 12 11 12 6 4 2 3 4 6 4 7 5 12 11 10 16 11 23 14 15 33 34 32 25 22 12 13 16 13 13 12 14 10 27 26 28 40 43 44 41 36
20 15 13 12 12 11 11 2 1 1 2 1 4 7 9 12 12 12 13 17 9 18 10 28 30 29 30 23 23 12 14 13 13 9 4 17 15 29 31 31 27 27 32 38 39
18 14 13 11 12 10 8 0 1 4 2 4 6 11 11 11 14 14 11 17 11 14 25 26 28 28 31 28 22 19 21 4 2 2 4 9 16 33 6 10 16 20 17 22 33
15 12 11 11 12 11 4 2 1 6 4 9 8 10 8 7 8 13 11 14 16 11 24 12 17 30 28 32 23 19 19 6 5 4 3 8 13 13 11 10 10 21 23 22 25
14 10 9 10 12 9 4 1 2 8 10 8 9 7 3 1 6 10 10 13 20 32 6 8 8 26 25 29 24 28 18 11 5 3 1 9 17 27 24 12 13 16 25 24 25
13 8 8 10 12 8 3 1 4 8 8 4 3 3 5 2 4 9 11 12 21 11 12 14 11 20 19 25 23 17 25 13 8 3 4 5 11 15 14 8 14 17 16 17 22
12 8 7 9 10 7 2 3 8 8 5 2 2 3 6 6 5 3 7 12 18 12 7 19 10 20 20 21 21 19 26 14 12 8 4 2 6 3 4 11 23 20 16 18 18
11 8 6 8 6 5 2 6 8 5 1 1 1 5 6 5 2 2 8 4 19 16 10 8 6 10 15 13 21 22 20 27 15 7 12 7 19 13 14 24 18 18 11 11 14
11 10 6 6 2 3 3 6 5 2 1 0 1 1 1 4 3 3 4 5 18 17 11 12 4 8 3 16 20 24 29 30 29 20 19 7 9 4 4 8 13 18 8 7 11
11 7 5 7 3 2 5 6 5 3 1 2 1 3 4 2 0 3 3 5 14 18 16 12 7 4 8 1 9 22 33 31 34 26 29 39 42 42 31 25 28 22 15 10 11
10 6 5 5 8 6 5 6 7 6 3 2 1 2 4 4 3 1 3 5 7 20 19 11 8 10 10 10 11 12 15 26 35 43 30 45 37 36 33 32 31 30 17 14 13
10 7 5 7 9 11 9 8 10 6 5 2 2 2 4 4 5 5 2 5 6 9 7 9 3 5 9 14 16 19 19 21 27 29 38 42 46 33 37 37 32 23 26 26 19
12 8 3 4 8 12 12 10 7 7 5 4 2 3 4 4 4 3 5 5 4 7 14 13 10 8 7 8 7 15 24 29 31 31 30 33 32 30 23 20 22 25 25 26 19

GFSSW_700_spd_057.txt.gz
Wind_Speed
21 23 26 28 26 28 30 30 27 24 21 18 16 19 22 23 26 22 34 30 27 23 31 32 35 40 43 44 42 41 27 34 28 34 29 32 25 23 13 12 18 20 17 18 18
21 21 24 26 26 27 30 28 24 22 19 16 13 14 11 13 18 18 26 36 26 27 34 34 35 40 43 45 50 48 39 36 41 31 30 27 25 20 16 13 18 20 19 19 20
21 21 24 25 23 25 28 25 21 20 17 13 13 10 10 11 13 17 20 39 27 30 32 33 31 37 41 46 44 50 47 43 37 29 24 31 35 20 18 17 18 21 18 19 19
22 21 22 24 22 24 26 21 16 16 15 12 10 10 9 9 8 14 19 35 31 32 32 31 32 36 39 44 49 43 46 41 40 37 42 41 39 33 20 16 19 19 22 19 21
23 23 23 23 21 22 23 18 13 12 13 12 11 9 7 8 12 12 11 24 35 29 33 30 33 35 38 39 42 45 29 39 32 24 25 30 42 43 30 19 15 21 22 23 21
24 24 23 22 21 19 21 16 10 10 10 10 9 10 11 10 11 16 17 15 40 27 36 34 35 31 34 33 36 38 36 24 33 31 28 26 31 54 45 33 27 16 21 25 23
25 24 24 21 21 17 18 16 11 9 10 10 11 10 13 12 18 16 18 16 35 33 38 33 31 33 28 27 28 22 32 27 22 27 28 23 32 40 51 43 34 23 22 27 27
25 26 24 20 21 15 16 16 10 10 11 11 11 13 12 13 8 14 16 19 26 25 40 31 30 31 21 22 29 17 21 23 20 20 26 22 34 27 37 47 41 31 25 28 29
23 25 24 19 19 15 14 15 11 9 9 10 10 11 7 12 7 10 16 17 30 34 33 31 33 33 23 24 25 25 22 28 25 19 25 26 25 24 21 30 38 36 28 30 31
23 24 23 19 18 15 11 13 12 8 8 9 7 6 10 8 7 11 19 19 29 41 40 35 16 38 26 31 33 35 24 26 25 29 28 28 27 11 16 23 26 39 29 32 33
26 22 23 19 18 14 10 9 11 7 9 6 8 6 6 5 8 10 17 21 26 33 42 38 25 35 32 32 3 30 26 20 21 20 26 26 23 19 13 16 19 15 33 33 36
25 21 21 20 16 14 10 5 5 6 7 8 7 6 4 7 9 11 16 20 29 31 41 33 24 33 31 28 11 23 23 22 21 16 15 21 21 17 22 24 22 17 32 35 34
26 22 19 19 15 14 12 4 2 6 8 7 5 6 7 8 7 8 14 20 32 33 37 17 20 34 31 28 16 14 25 24 20 15 8 8 19 24 27 24 21 21 11 41 34
24 21 18 16 13 15 11 6 7 7 5 8 7 3 2 5 7 11 11 24 27 35 13 18 18 34 26 24 14 11 13 18 23 17 12 16 6 24 28 27 29 25 24 22 28
24 20 16 14 12 15 12 5 2 2 4 6 6 4 4 3 13 13 16 13 21 35 10 7 24 26 26 24 17 8 12 13 16 18 13 15 10 18 20 24 34 33 34 30 31
23 19 14 13 11 13 11 3 3 2 2 5 7 6 6 12 12 19 16 14 13 21 10 4 19 22 26 20 20 10 18 14 13 14 5 15 19 10 18 22 21 22 28 31 27
23 18 13 12 10 13 9 4 3 3 2 5 9 10 10 11 14 12 13 10 11 22 19 10 26 24 26 23 22 16 23 5 3 4 4 10 17 24 6 2 8 11 16 20 27
22 16 12 12 11 11 6 5 5 5 5 9 7 9 10 7 11 10 7 16 10 17 17 11 13 27 29 27 23 23 19 6 5 4 3 8 10 5 4 4 5 13 17 17 19
22 14 11 12 11 11 6 6 4 6 7 7 7 4 4 4 6 8 8 11 15 19 6 11 8 17 30 29 21 22 20 8 5 3 0 7 7 13 18 11 7 10 14 24 26
19 13 11 11 11 11 4 5 5 10 9 3 2 1 2 5 5 5 5 15 18 21 10 13 14 22 23 28 24 16 22 11 4 3 4 3 6 9 6 7 9 15 13 17 24
17 12 10 10 9 8 4 6 8 8 5 4 2 4 6 5 4 5 3 16 16 9 9 17 14 17 22 19 20 22 22 15 9 8 3 1 4 6 7 4 13 18 17 12 17
16 11 11 8 5 5 4 5 8 5 5 2 4 8 8 7 5 3 9 7 18 11 12 7 10 18 18 14 19 22 18 26 15 6 10 6 13 6 7 17 22 12 16 13 13
14 13 7 5 4 3 3 5 6 4 2 3 2 5 5 4 4 6 7 5 16 13 6 7 7 10 6 15 19 23 25 24 28 17 13 8 6 7 3 5 7 16 19 21 11
13 9 7 3 2 2 4 6 5 4 2 3 3 3 4 5 5 5 3 4 17 14 12 9 9 6 10 5 13 29 29 29 28 22 23 39 34 33 33 34 33 35 29 25 15
9 7 5 2 4 4 4 7 6 4 3 2 1 2 3 2 4 4 3 6 12 15 14 10 6 6 5 5 5 7 10 21 32 35 29 40 31 39 42 39 32 21 21 22 17
10 8 5 5 6 7 7 8 9 7 5 3 2 3 3 3 3 4 3 3 2 6 13 12 2 3 4 6 10 14 17 19 20 25 31 33 36 27 22 23 21 24 24 22 19
9 7 4 4 6 9 10 8 11 9 7 6 3 4 6 6 5 5 4 4 2 2 5 6 5 1 2 6 9 14 17 21 27 30 29 31 29 27 22 19 23 21 19 23 23

GFSSW_700_spd_060.txt.gz
Wind_Speed
19 20 20 22 24 25 24 26 28 28 24 21 19 18 16 21 25 29 27 26 33 26 28 36 37 40 44 42 44 38 28 32 24 25 22 29 30 23 17 19 25 27 26 23 24
19 20 19 22 23 25 23 26 27 23 21 17 16 14 14 14 17 21 25 23 36 25 27 37 35 40 43 45 47 45 44 37 31 17 26 28 28 28 19 17 22 24 25 25 25
21 20 20 20 22 25 22 24 24 19 17 15 14 11 10 9 10 9 18 23 40 27 27 35 33 37 42 47 43 45 45 34 29 30 24 26 26 24 21 18 21 23 24 24 24
21 21 21 20 21 24 21 22 21 16 15 14 12 10 8 5 4 8 14 18 40 30 28 37 36 36 34 45 50 35 38 31 29 27 32 27 34 26 24 20 21 21 22 20 23
22 22 22 21 21 23 21 22 19 14 12 11 10 9 7 7 7 11 10 17 26 40 34 38 36 35 34 42 46 34 37 40 27 33 32 28 36 34 26 20 20 22 23 20 23
22 22 21 21 20 20 20 21 18 14 12 10 10 10 9 11 8 11 15 13 19 27 37 40 35 32 29 29 38 50 22 33 39 34 30 33 31 39 41 27 25 18 23 24 24
25 23 22 21 19 20 19 19 18 14 12 12 13 12 13 13 17 18 16 19 17 28 39 25 38 34 23 25 29 21 33 20 30 35 31 22 22 34 47 42 33 23 21 22 28
25 22 22 21 18 19 17 17 17 14 11 12 12 14 13 11 14 11 17 21 18 31 38 29 36 30 23 22 25 23 23 23 22 26 25 24 28 24 25 44 46 32 25 22 26
26 23 21 20 18 17 15 14 15 13 10 11 12 12 9 14 9 4 15 20 16 31 32 24 43 30 27 26 21 23 25 30 21 25 25 31 21 20 26 32 45 49 34 29 28
26 24 22 19 17 16 14 11 12 11 8 11 8 9 9 11 8 7 19 16 18 24 32 27 22 30 27 28 31 29 23 29 22 28 22 25 21 12 14 25 34 46 42 37 32
25 24 21 18 16 14 12 10 9 7 8 8 9 8 7 9 4 8 17 19 21 26 31 38 17 33 29 26 16 23 19 23 21 21 24 19 21 23 14 15 18 28 42 40 37
24 23 21 17 14 12 11 9 8 8 8 9 6 8 10 7 5 12 16 19 19 27 31 26 23 28 20 24 12 23 24 20 14 19 17 18 20 18 20 19 18 16 25 30 38
24 22 19 16 13 11 11 9 8 8 9 9 5 6 7 5 5 8 12 19 21 25 24 28 12 19 23 19 17 20 24 20 14 16 13 11 17 23 24 25 24 24 25 20 42
23 21 16 14 11 11 10 9 5 5 2 7 8 3 4 4 4 11 11 25 19 18 27 24 17 29 28 21 17 19 19 20 18 14 8 14 6 17 23 28 28 28 25 27 35
23 21 15 13 11 11 13 7 1 2 0 7 8 5 4 4 11 10 14 26 24 25 22 16 18 24 27 22 15 11 23 19 15 11 7 10 9 15 15 22 30 29 28 26 27
23 20 15 11 10 12 11 2 4 3 4 7 6 7 12 10 13 17 13 19 21 33 8 16 24 19 18 23 14 18 20 14 11 9 7 15 15 7 9 11 15 17 18 25 24
22 19 14 10 11 11 6 5 4 5 3 4 4 6 9 13 14 11 17 18 18 22 7 19 17 17 24 23 14 18 23 8 5 5 4 6 11 16 4 6 2 9 14 18 25
22 19 15 11 9 8 5 7 7 7 5 7 6 5 11 11 11 15 10 12 18 19 11 5 8 18 23 21 19 22 17 5 6 5 5 6 8 2 4 7 4 9 11 14 19
21 17 14 10 9 8 8 6 5 6 4 5 2 3 3 6 9 7 9 10 16 24 11 7 7 22 29 24 24 21 15 6 5 3 2 6 4 10 11 8 1 3 9 14 18
19 17 12 11 9 9 8 9 8 10 6 4 2 2 4 7 7 7 6 9 16 17 14 10 13 22 27 21 18 20 17 7 2 4 4 2 4 5 8 15 5 5 8 10 15
16 15 12 9 7 8 9 11 12 9 4 2 2 3 5 5 8 5 4 9 12 15 13 17 8 17 30 14 21 19 15 9 6 2 2 2 2 8 14 14 4 10 11 10 12
15 11 11 6 5 6 7 10 11 10 7 5 4 10 9 6 7 5 6 9 13 14 15 8 9 16 11 17 20 23 13 18 13 6 7 4 7 6 10 11 15 14 9 9 12
13 12 6 1 5 6 9 9 8 8 5 2 4 8 6 5 5 8 9 12 17 12 9 8 12 10 7 12 16 21 24 22 20 16 10 9 5 5 18 18 11 10 17 25 28
11 7 7 3 7 9 9 10 10 7 5 4 2 7 5 4 5 7 7 9 14 12 7 7 15 9 11 7 13 20 24 27 24 16 22 24 23 20 19 20 25 30 37 31 24
8 6 5 3 7 9 11 12 10 7 5 6 4 3 6 3 5 7 6 9 15 15 12 6 8 7 9 5 6 8 16 23 27 33 24 29 26 28 24 25 31 26 25 26 18
7 9 6 6 8 10 13 13 11 7 8 6 6 5 5 5 3 4 5 7 4 13 13 10 4 7 7 7 7 10 13 16 18 22 27 30 32 21 20 27 27 27 23 22 22
5 6 7 7 11 12 13 12 15 10 8 7 6 7 6 6 6 6 3 4 4 6 10 12 10 6 3 5 5 11 13 16 19 22 23 26 26 22 20 21 21 24 27 29 27

GFSSW_700_spd_063.txt.gz
Wind_Speed
23 24 23 22 22 21 23 23 22 25 28 23 21 20 20 20 20 23 31 27 28 28 30 33 37 31 43 45 45 36 32 33 29 30 27 24 27 26 25 20 25 29 28 24 28
24 23 23 23 22 22 23 23 22 25 24 19 19 17 16 16 14 17 25 29 27 32 27 32 43 33 42 48 43 42 44 33 31 21 27 22 19 28 26 21 23 26 29 25 24
23 22 23 23 22 21 22 22 22 24 20 17 17 15 12 12 11 12 16 20 23 35 29 33 34 33 33 39 46 43 44 35 29 26 17 24 24 27 22 15 18 27 28 27 24
25 23 23 21 21 22 20 21 21 22 19 15 15 11 10 10 4 10 6 16 22 28 33 32 37 38 31 37 45 42 38 28 30 26 23 22 22 26 20 18 24 25 27 27 26
25 24 23 21 21 21 20 19 20 20 17 15 14 11 9 9 9 10 8 11 19 25 34 32 39 37 32 37 36 43 35 32 26 29 29 31 27 19 26 23 22 23 24 26 26
26 24 24 20 21 20 18 18 18 19 16 15 15 14 12 12 13 13 12 12 19 21 40 28 37 33 29 33 38 41 35 36 30 28 24 31 38 24 27 25 25 25 24 23 23
28 26 23 19 19 19 17 16 16 17 15 15 15 16 16 15 15 17 18 18 17 16 30 32 38 33 30 28 36 15 52 27 27 41 30 19 20 44 41 18 24 24 20 22 23
30 26 24 19 18 17 16 15 14 16 14 13 15 16 16 16 15 17 14 22 20 14 26 26 43 32 28 26 29 33 34 24 28 25 17 23 26 30 26 37 26 27 21 19 24
29 25 22 19 17 16 15 13 12 14 11 12 14 14 11 14 17 12 11 14 16 12 32 23 42 29 31 31 30 34 27 34 14 26 17 27 20 19 22 27 50 34 27 20 21
29 25 21 18 16 14 13 12 11 11 10 11 8 10 13 15 12 10 15 12 12 16 19 20 31 22 36 36 34 35 30 24 18 21 22 21 18 10 16 21 23 38 35 23 22
28 24 20 16 14 12 12 11 9 7 9 10 11 6 9 6 6 4 12 12 14 18 17 15 20 30 31 32 23 26 27 22 22 16 20 20 20 21 13 15 20 21 41 37 26
28 23 19 15 12 11 11 10 6 7 11 11 5 5 7 8 2 5 11 13 14 14 17 15 14 23 24 24 16 21 23 18 17 14 16 18 21 24 25 21 19 22 20 30 30
29 21 17 14 12 9 11 9 6 6 6 9 7 5 7 7 2 8 10 8 14 12 22 15 10 24 25 19 18 23 23 18 15 9 14 14 22 24 23 21 22 24 21 20 24
28 20 16 13 11 9 10 9 3 2 1 8 9 4 4 6 4 5 11 17 13 13 21 15 8 23 23 19 18 21 20 16 13 15 13 18 9 24 26 24 26 26 27 26 27
26 19 15 11 10 9 10 6 2 3 2 8 8 5 3 5 4 6 15 12 13 21 12 11 10 23 18 21 17 17 19 18 16 17 7 11 9 14 11 23 23 23 27 28 30
24 19 13 10 9 10 5 4 6 2 1 5 5 8 9 9 10 12 9 13 8 13 9 16 8 21 19 19 14 19 23 13 11 10 7 17 17 12 12 12 13 17 20 21 23
22 18 13 10 10 8 2 7 3 2 2 2 2 7 12 9 8 9 13 10 5 12 6 13 12 18 23 20 16 20 24 9 6 5 6 4 14 6 3 6 6 10 11 17 19
20 16 14 10 8 3 9 6 0 4 3 5 4 7 7 9 9 9 8 10 11 7 2 5 7 15 25 15 14 22 21 6 6 6 9 5 7 5 12 15 16 15 10 10 15
17 14 12 10 8 3 8 2 3 4 6 2 1 2 7 7 9 5 6 5 9 13 1 4 5 14 21 16 16 18 14 4 1 4 1 8 6 11 9 10 5 4 7 10 13
15 13 10 9 5 4 6 5 7 7 7 6 3 3 5 13 8 8 9 9 10 21 11 5 8 14 20 16 17 13 12 5 0 3 4 5 4 5 13 10 7 5 2 2 8
13 11 8 6 4 7 6 6 13 8 4 2 2 4 5 7 10 5 6 8 13 16 16 9 9 13 20 13 17 14 10 6 3 1 3 1 6 7 13 13 6 6 6 11 12
11 9 7 3 3 7 8 11 11 5 5 6 7 7 7 7 6 4 8 6 15 15 12 14 8 14 17 14 16 15 15 17 10 5 6 4 2 0 11 15 17 12 17 17 12
10 10 3 2 5 5 10 10 10 7 4 5 5 5 6 3 3 7 6 10 13 14 13 13 7 8 7 12 15 16 15 11 14 9 6 4 4 6 16 14 17 20 13 18 20
10 7 3 5 6 13 11 11 9 7 5 6 7 7 7 4 5 8 8 14 14 11 10 5 8 5 5 4 9 17 19 18 18 11 17 20 18 16 13 14 16 21 28 31 36
9 8 4 3 10 15 14 13 9 6 6 6 6 5 6 4 5 5 8 14 15 10 9 5 7 8 6 4 10 11 14 19 22 28 22 20 20 19 17 18 21 27 25 26 25
11 9 7 7 9 13 14 13 11 10 9 6 6 5 5 6 6 2 6 7 6 14 13 9 5 8 6 7 7 9 10 11 18 21 21 22 23 20 21 16 19 21 22 24 26
8 10 8 8 13 12 12 15 17 12 9 8 9 8 6 5 5 6 5 4 3 8 12 12 7 7 3 6 6 10 12 13 12 12 11 15 16 18 21 20 16 17 19 23 25

GFSSW_700_spd_066.txt.gz
Wind_Speed
32 26 27 25 23 21 21 21 22 22 22 25 24 20 21 23 21 24 24 23 27 32 26 29 33 34 36 44 42 42 33 35 32 27 26 27 24 28 24 22 28 28 23 21 23
33 30 26 25 24 21 20 21 21 21 23 23 20 19 19 20 20 18 19 16 28 28 29 27 31 36 36 44 45 41 45 41 38 20 25 28 24 28 28 28 26 27 29 22 21
34 32 27 26 23 21 20 20 20 21 22 21 18 17 16 17 18 15 13 13 24 27 31 28 33 38 35 37 49 44 44 40 45 19 21 29 21 25 28 19 19 26 26 26 23
36 33 28 26 24 23 21 19 19 21 20 20 15 15 14 14 10 13 13 11 13 21 30 30 33 41 35 38 44 37 42 39 35 15 26 24 24 25 17 25 29 24 24 25 26
37 33 29 26 24 21 21 18 19 20 19 19 14 14 14 16 13 17 16 12 13 21 26 34 36 42 37 36 36 45 32 31 31 31 22 26 27 28 27 27 23 24 24 25 27
39 35 30 27 23 20 20 17 19 19 17 18 14 15 16 17 19 19 17 12 12 19 29 34 38 44 43 31 36 41 32 32 30 45 21 27 29 33 30 26 23 22 22 24 24
40 34 30 27 24 21 19 16 18 18 16 16 14 15 17 14 19 21 17 18 15 15 13 22 36 29 31 32 33 26 38 35 34 27 40 26 27 34 33 21 16 22 20 20 24
40 35 30 27 24 20 18 16 16 16 15 14 14 16 20 16 13 17 20 18 18 19 10 22 30 37 20 36 29 39 30 33 35 33 23 28 39 31 36 26 22 22 19 18 19
40 36 30 26 24 19 16 14 15 13 12 12 14 13 11 13 17 17 13 13 13 15 13 16 19 32 28 32 31 35 22 38 34 31 27 30 20 18 22 38 38 29 20 17 19
39 35 29 26 22 17 14 13 13 10 9 12 8 12 9 15 16 13 5 6 8 13 12 22 12 29 28 33 32 36 29 27 39 30 28 30 14 11 16 17 20 40 25 23 18
39 34 27 24 19 16 13 12 12 5 9 11 13 11 10 14 7 6 6 6 9 10 10 16 16 39 36 38 27 32 31 19 25 38 28 19 16 17 9 17 15 22 24 41 32
37 32 26 22 17 15 11 10 9 9 9 8 11 8 11 14 5 2 8 7 10 9 12 12 14 33 27 24 22 26 25 30 11 22 21 15 19 16 20 17 14 14 21 18 45
35 30 24 20 14 12 9 10 8 5 6 9 11 6 8 10 4 5 7 7 11 10 12 8 12 21 32 32 21 27 26 24 21 15 13 11 11 16 18 22 20 19 18 21 26
32 29 23 17 13 10 8 10 5 3 2 5 10 6 4 9 6 3 9 7 7 11 10 8 13 16 21 24 21 20 21 18 18 13 6 15 4 15 16 22 22 22 23 27 23
29 26 21 15 12 9 9 7 3 3 2 7 9 6 10 10 4 6 10 6 11 15 10 4 14 22 23 18 15 20 19 21 15 12 3 11 5 10 16 18 19 18 23 23 30
27 23 19 13 11 8 5 2 5 1 1 4 8 5 9 12 12 12 4 12 13 16 9 10 18 19 19 11 14 22 18 14 11 7 1 8 10 7 13 13 15 18 16 20 24
24 20 17 12 10 5 1 6 2 2 2 3 3 5 11 6 11 9 7 7 9 7 9 9 11 20 21 17 19 23 25 5 3 2 2 5 11 8 5 8 15 14 17 16 16
21 18 15 11 8 1 6 5 1 3 2 1 6 5 7 8 7 7 8 6 10 15 12 4 4 16 17 15 16 26 8 6 4 4 4 5 5 7 11 8 12 17 18 16 20
19 15 11 8 6 3 8 2 2 5 4 1 2 2 4 4 5 8 8 8 5 3 6 5 7 16 15 16 19 18 15 4 4 3 6 7 7 4 11 16 18 15 12 15 13
16 13 7 6 3 4 5 3 4 5 5 6 2 3 3 7 4 6 6 6 6 8 8 7 9 13 14 18 12 13 10 4 2 2 3 6 12 6 17 11 9 10 9 9 10
14 11 6 3 2 6 4 4 10 7 5 3 3 5 4 6 9 5 4 5 6 11 7 6 5 9 13 10 12 10 10 5 4 2 1 2 2 8 15 15 14 12 8 7 9
13 8 4 3 2 6 4 10 11 5 5 6 6 8 8 7 7 3 7 5 8 11 7 5 5 8 12 11 16 14 8 9 5 2 1 2 0 14 16 16 14 8 9 12 18
11 8 4 5 5 6 7 10 9 4 6 3 3 6 7 5 3 5 7 7 13 14 10 9 4 7 4 10 13 16 17 14 15 5 5 2 4 8 6 8 11 10 8 17 22
11 5 6 8 7 12 11 10 6 4 7 8 8 9 8 4 4 5 7 10 14 11 9 11 10 3 4 3 10 25 21 15 14 10 11 15 10 8 9 11 10 13 20 23 28
12 8 5 5 12 16 15 11 9 5 6 10 7 9 9 4 6 8 7 14 13 12 11 7 5 8 4 2 9 8 15 19 20 24 12 20 20 17 16 18 21 26 29 31 28
13 10 7 7 12 15 17 16 12 11 11 6 7 9 9 11 8 5 9 12 10 12 10 8 6 7 4 3 4 5 10 16 19 20 18 19 23 18 22 24 25 23 23 21 20
10 10 9 9 13 15 14 16 15 14 12 12 13 7 9 6 6 4 8 10 8 10 13 11 8 6 3 6 7 9 13 15 16 18 18 18 17 23 24 26 25 21 18 17 19

GFSSW_700_spd_069.txt.gz
Wind_Speed
39 40 36 30 29 27 22 20 20 19 20 19 20 20 21 22 22 22 20 22 21 22 27 31 35 29 31 42 44 38 35 38 34 31 26 26 24 32 30 27 28 28 30 28 24
40 40 39 33 29 27 24 21 19 19 20 20 19 20 20 21 21 20 19 18 23 22 25 26 31 31 35 41 43 36 42 46 41 30 33 26 31 28 33 32 32 26 25 27 25
40 41 40 36 30 26 25 22 19 19 20 18 19 18 19 20 20 18 12 15 21 20 22 28 28 29 37 38 47 40 47 49 41 38 33 20 25 35 32 28 27 30 27 29 28
42 41 41 37 30 26 23 21 20 20 19 17 18 19 18 19 13 13 14 14 15 13 16 28 28 32 38 37 47 30 47 44 35 42 27 21 29 29 32 34 35 30 28 27 29
45 42 41 37 31 26 23 20 19 20 19 16 17 19 18 19 17 21 15 15 15 13 15 23 30 31 36 37 39 48 33 39 39 31 31 26 27 32 31 30 33 32 28 26 27
45 42 41 38 31 26 23 20 19 18 18 14 18 20 20 17 17 21 18 16 15 16 13 18 32 22 35 27 35 45 33 35 26 35 35 29 31 30 32 29 26 26 25 25 24
45 41 40 38 31 26 22 19 17 17 15 14 18 19 19 14 18 17 19 17 16 17 16 9 37 30 32 29 34 23 42 29 35 27 40 30 32 32 33 30 27 23 20 22 23
45 40 40 37 30 25 21 17 16 14 12 13 16 19 17 13 9 14 18 20 18 15 14 7 29 31 33 36 24 32 25 30 30 28 38 36 31 31 29 31 30 25 19 20 21
45 39 39 36 28 23 19 14 14 13 10 11 16 15 10 11 15 15 18 15 9 7 12 11 18 27 31 36 26 31 23 32 25 23 27 23 24 33 29 29 29 28 24 21 20
44 38 37 34 27 21 17 13 13 11 7 10 9 10 9 15 12 10 6 5 6 9 8 9 13 25 30 34 27 30 29 31 22 31 22 26 17 26 35 30 29 31 29 28 29
41 35 35 31 25 18 15 12 13 9 5 8 14 9 10 14 11 3 2 7 8 8 6 6 16 15 36 31 23 24 39 19 33 24 23 19 31 10 18 29 34 36 29 30 29
36 33 33 28 23 16 13 12 11 9 4 6 11 10 11 12 5 3 2 5 7 7 7 5 15 12 28 25 16 23 26 24 14 27 27 24 19 28 17 23 27 28 30 39 33
35 31 31 26 20 13 11 10 10 6 5 8 12 8 8 8 6 2 4 3 5 7 11 6 7 12 31 27 19 25 28 28 11 9 15 26 12 20 27 25 23 23 18 29 28
34 29 29 23 18 12 9 11 6 3 1 5 9 6 9 13 8 3 5 3 4 7 11 5 9 16 32 28 18 25 24 26 27 19 5 13 5 25 25 27 23 22 23 20 23
33 28 26 22 16 10 9 8 1 2 2 4 7 9 9 15 7 5 5 3 5 5 5 7 14 21 26 28 20 8 26 25 22 12 11 15 6 3 12 25 31 29 25 22 24
31 27 24 20 14 9 6 2 5 2 1 3 6 7 11 14 12 9 12 16 20 13 10 11 21 28 27 19 15 23 29 27 22 16 2 16 9 9 5 12 11 17 14 13 17
27 25 20 16 11 6 2 7 4 2 1 2 3 8 12 12 12 10 13 14 9 9 12 15 25 27 20 27 22 26 30 5 3 2 3 12 6 3 9 6 14 14 16 12 10
24 23 18 13 8 4 6 6 4 4 2 3 8 7 6 9 10 7 7 14 16 11 10 7 10 17 20 18 22 26 9 6 5 4 3 8 9 5 6 7 9 12 18 19 18
19 19 15 10 5 3 9 4 5 7 5 3 3 5 6 6 8 8 9 7 12 11 7 6 9 19 18 12 21 21 7 6 6 5 4 6 7 8 11 11 13 17 19 18 19
16 15 13 8 5 6 9 6 6 7 5 2 2 2 4 7 6 6 4 5 8 12 10 11 12 15 14 18 14 12 7 4 3 3 3 6 9 6 13 17 19 18 15 12 15
16 12 10 8 6 8 6 7 10 9 7 4 3 4 8 9 10 6 5 8 4 8 14 9 6 13 17 9 8 10 9 3 4 2 3 3 1 7 16 13 10 7 9 10 10
16 12 9 8 9 10 7 12 13 8 7 9 9 8 8 10 6 4 5 6 11 14 9 8 8 10 10 8 10 9 14 10 1 1 4 3 3 9 16 12 7 4 9 13 14
15 12 11 11 9 13 10 18 13 8 11 8 5 8 9 8 5 6 4 6 13 16 12 9 6 9 3 8 16 15 12 14 7 4 6 4 5 12 10 5 6 9 15 15 14
17 12 14 15 11 14 15 17 13 11 10 9 10 12 9 6 4 5 8 7 13 10 7 8 9 5 7 4 11 20 22 19 15 9 6 7 16 13 6 4 7 12 15 17 19
19 13 11 13 18 19 18 16 14 11 9 12 13 12 11 6 8 7 8 12 13 10 8 6 7 4 5 4 5 7 19 20 20 21 17 20 17 14 15 14 15 17 21 26 29
19 12 11 11 17 21 22 19 16 13 15 12 11 13 12 13 4 11 11 14 7 12 13 10 8 8 6 4 6 10 12 19 25 23 23 22 21 24 27 26 22 26 29 27 25
17 12 10 13 19 23 22 23 20 16 15 14 13 12 11 10 4 6 10 10 9 11 11 9 6 8 5 4 5 9 15 16 21 21 21 23 18 21 22 22 27 28 28 27 20

GFSSW_700_spd_072.txt.gz
Wind_Speed
35 38 38 39 36 32 29 24 21 20 21 21 21 20 20 19 19 20 17 19 19 20 18 19 31 34 26 33 42 41 36 39 41 30 35 33 24 33 32 31 33 33 31 24 21
37 37 39 39 39 33 27 24 21 18 21 21 20 20 20 19 19 19 20 19 19 19 19 23 26 28 33 34 41 40 41 40 47 32 34 34 32 30 37 25 30 31 29 23 27
42 41 40 40 40 34 27 23 21 20 20 19 19 19 20 21 20 21 14 11 16 19 22 21 26 25 34 34 40 46 40 45 40 36 33 32 34 33 36 32 28 28 31 31 30
47 41 43 41 40 34 27 22 21 20 20 18 19 20 19 21 13 11 13 16 18 17 16 16 24 28 32 40 40 41 46 40 40 38 34 39 34 34 31 36 32 27 21 25 29
45 40 43 41 39 33 27 22 20 20 18 19 19 19 20 21 18 22 20 17 17 15 13 16 25 36 29 36 38 48 35 38 38 37 37 35 30 22 34 34 36 33 31 26 25
43 36 44 42 39 32 26 21 19 18 17 17 18 18 19 17 19 21 22 15 16 16 14 15 22 28 33 32 42 42 39 35 29 39 38 34 33 25 28 36 32 31 30 29 28
44 41 44 43 38 31 25 21 17 15 15 16 18 17 17 16 17 18 20 17 12 15 18 15 22 25 25 28 38 28 39 29 37 36 36 34 35 28 32 32 33 34 32 31 29
38 41 43 43 38 29 24 19 16 14 13 13 16 17 16 13 10 12 15 15 14 13 12 13 15 20 22 32 29 34 24 34 36 32 36 31 30 35 29 31 30 30 27 26 28
34 38 41 40 36 28 22 17 15 13 12 11 13 15 7 11 13 11 14 19 12 6 9 11 5 11 22 33 23 34 20 36 25 37 30 47 22 27 32 32 27 26 26 24 25
35 39 42 37 34 26 20 16 14 12 11 9 9 14 10 14 13 10 12 1 6 8 8 8 5 15 17 41 15 27 22 30 23 28 18 29 31 25 36 31 32 26 26 24 23
35 31 38 35 31 24 18 15 12 11 8 7 10 12 10 8 11 5 4 3 7 9 7 5 7 15 23 32 22 22 30 22 28 20 36 20 36 31 31 29 29 28 27 27 24
29 32 31 38 29 22 15 13 9 8 5 5 11 10 8 8 7 1 1 4 8 8 9 6 6 15 24 22 24 22 26 21 14 28 18 18 18 21 33 31 31 27 27 28 27
25 35 28 42 28 19 14 11 8 4 2 5 8 9 10 10 6 0 3 4 7 9 10 6 2 13 22 23 28 23 26 25 19 17 19 12 13 26 20 21 30 34 30 35 33
29 24 24 37 27 18 12 9 7 2 2 5 8 9 9 7 9 4 6 5 5 6 7 4 9 13 20 22 24 25 28 34 16 13 8 17 5 18 20 27 26 32 27 30 36
26 25 28 29 25 14 10 7 2 2 3 3 6 6 7 7 4 4 4 5 4 6 2 4 11 21 25 26 22 19 24 20 19 5 7 16 5 1 22 33 33 30 31 30 28
22 23 29 26 21 12 6 4 6 2 2 2 3 1 5 9 12 18 17 13 12 11 5 16 18 20 26 19 18 21 23 22 20 17 3 3 4 1 15 23 25 24 28 24 20
29 21 16 25 15 8 5 8 4 1 5 2 4 6 8 7 10 15 16 12 6 6 9 23 22 25 21 20 19 24 28 5 4 4 4 15 9 3 4 9 8 19 23 17 16
31 22 21 25 14 7 8 9 3 9 5 4 8 4 3 5 7 9 13 14 13 12 10 10 13 18 23 21 20 30 19 5 4 4 4 15 5 4 2 8 10 16 18 16 16
24 28 19 19 11 8 12 8 6 12 8 4 8 6 6 3 6 7 11 12 11 8 3 6 11 27 21 17 26 22 10 4 8 7 5 7 4 8 11 9 7 13 17 19 22
20 20 13 21 10 10 15 7 11 11 8 3 4 5 4 9 6 6 4 9 11 11 8 11 12 18 21 25 11 10 11 3 4 3 3 2 4 8 19 15 12 11 13 15 18
24 18 16 20 13 13 13 10 16 13 11 6 5 7 8 9 8 5 3 8 11 15 16 15 8 10 17 10 11 14 8 3 4 3 4 4 3 11 17 16 15 15 18 20 17
17 15 17 18 15 14 12 12 15 15 10 9 5 7 9 10 7 3 5 6 14 15 12 8 12 8 8 9 10 12 12 8 4 2 4 2 1 10 14 12 10 13 15 15 15
16 16 17 18 16 16 13 19 16 13 15 12 8 9 9 6 3 3 8 10 13 13 7 9 10 9 4 5 12 12 12 13 8 6 5 3 3 13 15 14 13 11 11 12 14
18 22 22 23 18 19 17 26 17 14 16 11 13 14 14 9 3 7 9 12 14 10 7 6 11 5 9 4 10 18 16 16 12 5 5 5 18 17 14 11 11 10 11 12 14
24 23 17 16 26 21 22 24 19 16 14 14 15 14 12 10 8 6 9 12 14 10 9 6 8 8 7 3 7 8 16 18 19 18 8 8 20 19 15 11 10 12 15 18 20
24 24 18 12 21 24 24 26 20 18 18 17 16 15 12 10 7 11 11 13 9 13 12 9 10 9 6 4 5 7 7 17 21 20 18 16 13 17 18 20 21 22 21 21 25
25 22 13 14 27 27 25 25 20 16 18 17 16 13 10 8 5 7 11 11 7 10 11 8 7 7 3 4 4 7 11 12 14 21 23 23 22 21 22 22 21 22 24 27 28

GFSSW_700_spd_075.txt.gz
Wind_Speed
35 39 41 37 39 38 35 30 27 22 21 20 20 20 21 21 20 19 17 16 16 18 17 20 24 27 30 33 34 33 37 38 45 35 49 39 39 34 28 37 32 37 41 32 31
32 36 40 37 40 40 38 33 26 23 22 19 20 19 22 21 20 20 19 18 18 18 18 18 19 25 31 32 32 38 39 46 47 37 30 34 37 32 29 31 36 30 30 30 30
30 33 38 39 41 42 39 34 28 24 22 19 18 19 21 22 20 23 18 15 13 14 17 19 19 26 31 31 36 38 44 46 40 45 17 32 32 38 31 31 32 36 33 36 37
25 32 32 33 37 43 38 34 29 24 21 19 17 19 21 20 15 14 12 13 18 20 19 20 19 24 32 32 37 35 45 37 38 35 38 30 32 35 32 32 25 26 29 32 19
31 35 34 40 37 42 39 34 28 25 20 17 17 20 19 18 19 22 22 22 20 21 18 19 18 21 30 31 38 40 42 41 33 37 34 33 33 35 35 27 34 26 28 29 26
36 33 34 37 36 45 40 34 28 24 18 15 17 20 15 17 21 20 19 18 18 20 19 18 19 22 31 34 34 41 39 36 31 34 33 40 36 31 40 32 28 35 26 26 23
31 34 30 37 39 35 41 36 27 21 16 14 16 18 15 18 18 17 17 17 14 17 16 17 18 19 28 30 31 38 27 34 39 32 29 33 34 30 31 33 26 33 33 28 26
34 30 38 34 35 40 32 35 25 19 15 13 16 14 15 13 9 13 17 17 15 15 15 13 16 20 27 28 22 39 17 39 33 33 35 27 35 33 29 29 29 28 28 28 28
30 35 38 31 32 36 31 33 22 17 14 13 12 12 11 10 12 11 14 18 17 12 10 11 13 12 18 33 24 34 17 38 28 32 24 23 27 35 30 29 29 27 26 24 28
28 31 34 27 27 33 29 28 20 14 12 9 10 11 10 12 12 13 10 9 5 9 10 11 11 11 20 22 14 25 27 25 29 28 36 21 27 29 36 34 30 30 29 25 26
31 32 36 33 31 31 25 22 18 13 8 7 9 10 9 8 11 8 6 7 7 8 8 9 11 12 23 17 14 22 29 25 35 24 27 27 26 41 33 35 32 33 30 28 26
28 29 44 31 30 30 22 16 15 10 7 5 6 5 6 7 7 4 3 5 5 7 9 10 13 6 14 11 19 22 23 22 24 19 28 21 18 25 44 30 34 31 30 28 27
31 33 32 34 26 25 18 12 13 8 5 3 4 4 8 4 7 3 4 6 6 8 10 11 1 9 12 17 14 24 29 19 24 29 8 12 18 28 21 32 32 37 33 30 27
33 31 34 34 24 20 17 9 11 6 6 1 2 5 6 5 6 5 5 8 7 8 11 11 6 9 18 17 22 16 21 17 15 12 4 16 3 11 14 23 34 34 34 32 28
37 31 29 36 20 18 14 7 9 5 1 3 0 4 7 6 6 5 4 6 7 10 9 2 13 16 19 14 19 14 19 20 17 10 13 19 6 8 13 25 25 42 37 31 27
30 35 31 26 12 13 10 5 9 3 4 3 3 1 2 6 11 14 9 6 1 4 3 5 16 14 16 16 17 12 21 18 14 3 2 4 4 5 15 18 26 29 34 35 29
23 32 34 16 7 10 8 9 7 4 7 5 5 4 3 5 7 9 6 7 3 0 12 17 12 8 15 20 13 24 19 5 3 3 3 3 4 2 3 6 15 23 23 27 28
25 29 29 19 6 8 9 16 5 7 7 8 9 6 3 3 4 6 4 10 11 8 13 5 6 13 11 16 18 26 12 4 3 3 3 4 5 1 3 7 8 18 25 24 22
24 22 27 14 7 11 12 12 5 12 9 8 9 6 6 2 4 4 11 12 12 14 7 6 8 12 11 14 22 21 6 6 10 9 5 6 4 3 4 4 8 7 18 18 16
21 21 22 14 11 15 17 11 10 13 10 6 7 6 4 8 6 3 3 6 9 11 13 18 19 17 18 23 5 13 6 3 6 3 2 1 1 2 10 6 5 11 16 17 17
19 28 21 14 17 17 18 12 15 13 10 7 7 6 8 8 6 2 4 8 12 11 17 13 10 14 21 8 14 13 4 2 5 3 3 3 1 6 10 8 7 9 10 10 12
31 28 23 20 21 20 16 15 19 17 12 5 6 6 10 8 4 2 4 5 13 14 13 8 13 11 10 11 13 13 10 5 3 2 3 2 1 7 11 12 13 13 14 15 15
26 18 20 22 19 17 16 18 18 17 12 9 7 7 13 8 1 4 6 13 12 9 6 10 11 9 3 5 10 9 10 5 2 5 3 2 2 10 17 16 12 9 7 7 8
25 16 23 23 19 14 18 22 20 16 16 12 14 13 12 7 3 5 9 12 11 6 7 5 12 4 6 3 8 8 11 10 7 3 3 2 10 17 17 14 12 10 9 11 12
27 16 21 24 23 17 19 22 21 19 16 13 14 15 13 8 7 6 9 11 13 8 7 6 7 7 8 4 5 6 12 12 12 9 4 5 8 17 14 11 10 9 11 13 16
32 6 12 5 15 21 22 26 21 20 18 17 16 17 13 7 8 7 10 12 8 9 7 5 9 10 7 5 5 5 7 14 16 15 14 12 13 20 18 13 13 17 19 21 22
32 10 12 8 20 24 25 26 20 17 18 17 15 12 9 6 3 6 8 11 5 8 7 4 7 7 4 3 2 4 10 11 14 19 19 20 18 18 24 24 24 25 24 24 26

GFSSW_700_spd_078.txt.gz
Wind_Speed
23 24 27 32 34 35 34 36 34 33 32 29 24 23 22 21 19 18 17 19 18 22 24 24 25 25 26 29 27 27 31 33 40 44 47 40 34 39 40 33 27 26 30 32 36
22 26 25 31 35 38 36 38 37 35 32 30 27 24 22 21 20 17 19 18 19 22 22 24 25 28 28 30 27 29 35 45 42 43 50 39 31 35 44 40 34 30 33 31 26
24 26 31 31 37 37 39 39 34 33 33 30 26 23 23 21 20 20 16 15 18 19 19 19 21 26 30 29 29 33 41 43 42 41 39 31 24 31 40 41 35 34 36 40 34
28 26 30 32 37 32 36 40 35 33 29 26 24 23 21 19 12 11 17 17 16 16 18 20 20 22 27 30 32 33 38 40 43 40 39 35 26 32 32 41 34 29 37 31 31
29 28 32 34 36 36 35 35 36 29 29 24 22 23 21 18 15 19 20 22 22 24 24 22 21 21 25 28 33 34 38 41 42 35 29 30 33 25 27 36 32 27 30 35 33
31 30 32 31 31 37 35 30 37 29 21 22 21 23 19 16 17 19 18 19 19 19 21 20 21 20 22 25 29 31 37 40 34 32 32 26 44 30 34 33 32 31 31 31 29
32 32 26 28 36 37 33 34 31 27 16 19 20 22 17 15 18 16 15 15 15 17 19 18 21 21 22 23 29 31 29 37 37 36 33 31 37 45 31 36 29 32 28 31 32
38 32 30 30 35 37 31 29 29 25 13 15 20 19 14 17 10 14 16 16 16 16 19 17 18 21 25 24 23 23 30 29 35 36 30 33 45 45 32 35 30 31 34 32 37
38 35 32 28 31 36 34 28 24 22 12 14 18 14 12 9 12 13 16 17 17 16 16 14 15 17 17 22 24 26 24 37 24 40 29 28 30 29 37 27 34 29 34 34 32
40 32 30 33 31 34 37 31 21 21 10 13 13 10 11 12 11 11 11 8 9 7 11 12 14 17 17 16 13 22 25 23 29 40 36 21 24 14 38 28 33 33 27 30 31
32 33 32 31 31 33 34 26 18 18 8 10 11 10 11 9 11 10 7 6 6 6 9 9 15 20 15 15 24 18 33 13 26 25 31 36 27 11 24 32 30 36 30 25 27
31 33 27 28 33 36 32 17 18 13 8 7 9 7 9 10 10 9 5 5 4 6 9 12 19 15 14 9 17 18 33 17 19 20 19 23 24 31 26 25 31 29 28 26 24
36 28 29 29 32 36 31 17 16 6 6 7 8 5 7 4 5 5 7 6 7 8 11 14 10 6 3 12 4 24 33 18 20 21 16 11 20 22 26 27 30 31 31 32 27
44 34 28 33 30 33 30 16 10 6 4 5 4 3 3 3 5 7 7 10 9 7 9 13 11 8 7 7 17 22 19 16 19 21 4 10 2 11 17 19 26 32 34 31 29
30 34 38 28 29 33 27 8 8 7 2 5 5 3 1 4 7 8 3 8 10 11 10 7 4 6 7 3 10 11 15 12 15 17 6 4 6 2 4 10 24 28 33 30 30
19 22 34 28 29 32 11 10 10 6 3 7 7 6 2 4 5 3 6 8 6 8 14 9 8 9 8 12 10 13 18 18 14 12 4 3 11 3 12 10 15 10 36 32 28
25 17 29 27 31 27 11 14 10 5 8 8 8 7 4 2 2 3 5 8 4 1 12 14 10 6 9 19 13 17 18 4 3 3 2 7 3 3 4 8 12 24 13 33 29
35 22 29 30 27 19 16 23 7 7 11 10 10 9 5 3 0 4 7 10 13 14 9 3 3 7 7 15 11 26 6 5 4 3 2 1 4 5 4 2 14 8 23 28 24
29 21 26 27 24 17 21 14 1 9 13 13 11 10 6 3 3 1 8 11 11 7 2 2 5 11 13 14 15 12 7 9 10 9 4 2 3 3 7 11 12 15 24 21 20
4 16 17 23 19 21 26 9 7 12 14 13 8 6 6 6 5 1 4 5 5 11 13 14 13 16 25 12 12 11 11 6 5 4 3 3 4 5 6 9 9 13 17 20 19
13 17 16 22 24 25 23 9 10 15 11 9 8 8 8 9 4 1 3 4 5 10 13 10 6 14 16 6 16 12 4 5 6 3 3 3 1 4 9 7 7 11 13 15 14
14 17 24 25 28 26 20 10 13 17 13 7 7 6 10 8 6 3 3 3 6 8 8 8 12 11 11 10 11 10 4 3 2 3 5 4 2 8 13 12 8 7 8 8 9
16 15 26 24 19 22 14 13 19 18 13 8 6 7 10 8 3 3 5 9 8 5 4 6 9 8 4 4 7 7 7 2 7 6 4 3 1 8 16 13 11 7 7 7 6
18 21 31 24 15 14 16 18 21 17 10 9 8 8 12 7 1 3 7 8 6 8 7 4 9 4 6 3 8 9 11 10 6 1 5 3 8 14 17 13 12 11 10 9 7
12 20 24 26 19 17 18 21 21 20 13 11 10 10 8 4 2 2 6 7 6 4 5 7 6 5 5 3 5 8 8 8 6 5 2 5 5 11 14 13 11 10 10 10 10
15 13 17 6 19 21 17 21 18 19 17 13 9 10 7 1 3 4 1 4 5 4 4 4 7 7 6 4 2 2 7 11 10 9 9 4 10 11 15 16 15 13 11 13 16
21 4 11 8 21 24 17 22 18 16 13 12 11 9 7 3 2 1 4 7 2 5 4 4 8 5 1 1 1 3 6 7 10 14 14 14 12 12 15 18 17 17 20 22 22

GFSSW_700_spd_081.txt.gz
Wind_Speed
28 23 21 21 26 32 29 31 31 34 33 32 27 26 27 25 23 20 16 18 18 19 22 22 24 24 26 28 27 21 27 35 36 38 40 35 38 42 40 37 26 20 30 31 33
28 26 23 23 30 28 30 31 33 33 31 32 32 26 26 25 21 19 18 17 17 20 21 23 24 26 26 28 27 24 33 40 40 37 36 40 31 33 33 47 38 27 25 33 30
30 27 26 26 24 26 34 32 29 31 31 30 30 28 21 22 19 19 15 13 15 19 23 24 25 27 29 28 27 31 38 36 35 38 29 31 31 34 24 43 48 36 27 25 37
31 31 29 28 26 29 25 32 34 31 33 32 27 26 19 18 13 11 13 17 17 16 17 19 21 24 29 30 29 30 35 36 38 36 35 33 33 24 26 32 37 43 27 29 34
37 33 31 30 29 27 30 29 33 32 31 31 24 24 14 16 15 18 16 16 17 19 22 24 25 24 26 28 29 32 36 34 37 36 36 34 36 29 29 31 28 38 35 31 35
40 39 33 31 30 30 29 25 29 37 30 30 23 21 12 16 17 16 16 17 17 18 19 20 21 19 23 26 24 28 32 36 38 35 35 36 39 28 35 33 30 31 36 33 36
38 37 36 32 30 29 26 30 33 33 25 26 23 18 12 12 14 17 11 14 15 15 17 18 19 19 22 24 23 24 28 30 35 36 31 30 38 38 36 34 30 35 41 34 34
36 33 36 31 29 28 30 29 27 35 19 22 20 15 11 13 14 12 13 13 14 15 17 18 17 18 21 23 23 20 20 27 33 32 34 27 40 34 37 37 31 36 36 35 37
30 31 31 31 30 27 26 29 29 36 17 16 18 13 10 8 12 12 11 13 12 13 13 13 15 17 17 19 20 22 22 23 34 30 27 36 32 37 27 43 32 30 34 35 35
31 26 26 26 27 22 26 27 32 28 12 16 15 9 9 11 11 10 11 9 8 10 10 11 14 17 17 21 16 18 23 26 30 28 31 34 26 16 34 32 30 37 32 35 35
29 28 23 20 26 24 22 28 34 27 14 12 11 9 10 10 10 11 9 8 7 7 8 9 14 17 16 23 20 20 18 22 21 19 33 39 25 24 15 21 41 29 35 34 39
31 27 22 14 23 19 23 28 35 14 14 11 9 10 7 9 8 9 7 6 6 6 7 13 22 17 17 20 20 24 24 21 16 28 26 34 32 25 30 23 30 25 32 32 37
31 28 23 11 24 22 18 31 25 1 10 10 12 8 6 8 6 6 6 8 7 9 11 17 15 22 22 14 14 20 27 23 12 24 21 19 16 21 28 28 24 17 22 31 23
31 26 21 16 26 25 22 26 18 5 5 8 13 6 6 2 1 7 7 7 8 7 7 12 10 11 11 11 10 7 16 18 18 19 9 15 5 3 14 29 22 17 24 25 23
27 20 17 23 25 22 24 20 7 7 1 8 13 8 4 3 3 5 3 5 11 10 9 7 6 2 6 9 13 12 21 11 14 19 13 8 5 5 14 17 20 19 24 30 33
21 12 10 19 23 25 23 16 11 6 5 11 12 10 6 4 4 5 7 9 9 7 10 9 6 2 9 11 11 18 18 17 15 12 5 4 3 1 5 4 6 17 24 23 29
14 17 17 20 23 24 22 21 11 4 8 12 12 12 7 5 2 3 7 11 4 3 6 11 6 5 8 11 17 18 15 3 4 4 3 7 4 3 7 11 8 16 16 26 32
19 23 30 17 23 20 19 24 6 9 15 12 13 12 7 5 2 4 6 8 5 9 4 2 3 7 16 11 10 14 2 2 4 3 4 4 4 7 13 5 7 23 14 34 29
30 17 32 13 25 19 26 12 2 10 14 15 15 11 8 5 3 1 5 7 4 3 1 3 3 4 6 6 16 7 5 8 10 9 5 4 5 8 10 15 10 11 14 17 22
9 14 22 23 21 27 25 11 6 10 13 15 6 7 7 6 3 2 4 7 6 5 4 7 11 17 15 7 14 7 6 4 4 3 3 3 5 5 10 12 8 12 15 19 18
22 24 20 21 29 26 24 7 9 14 11 10 7 7 6 7 2 3 4 8 11 11 9 10 7 11 5 5 12 8 1 3 5 3 4 3 4 9 14 12 14 15 17 16 16
22 16 24 28 29 28 16 7 12 15 10 8 8 6 9 7 2 3 3 4 5 8 9 11 12 7 7 8 8 5 8 9 4 2 8 4 3 7 15 15 16 17 17 15 13
15 29 26 30 10 26 15 11 15 14 8 8 7 7 8 6 3 4 6 7 7 5 4 8 10 6 4 4 6 3 1 8 11 8 5 2 4 13 16 16 15 10 11 10 9
23 21 23 23 9 16 13 14 15 13 7 7 8 10 10 7 5 5 8 5 7 8 6 6 8 3 6 4 4 3 3 1 5 4 4 4 10 18 18 15 12 11 10 10 10
13 24 19 25 8 15 15 17 16 13 7 9 9 10 7 4 6 6 5 3 4 5 6 6 6 7 8 7 5 6 6 4 2 3 2 3 3 10 15 13 11 10 10 9 9
8 20 12 8 12 14 16 14 14 13 10 7 11 9 5 4 5 4 3 3 1 2 4 5 6 7 8 6 4 5 4 3 2 2 1 3 4 8 11 13 13 12 12 11 12
21 11 2 5 15 17 17 12 13 10 9 7 11 6 3 2 2 2 1 3 1 1 3 4 5 3 2 3 3 3 2 2 4 5 5 6 5 8 11 13 13 13 14 16 18

GFSSW_700_spd_084.txt.gz
Wind_Speed
27 24 22 23 22 20 22 23 24 24 24 27 25 26 32 28 22 18 15 16 19 18 18 19 20 20 22 24 25 26 22 25 25 25 27 23 28 29 35 37 30 30 20 20 28
31 28 26 21 21 24 22 25 19 23 26 26 28 29 31 28 21 16 14 14 17 18 18 19 21 22 23 23 25 27 26 26 24 21 19 18 25 22 25 30 37 39 27 23 28
35 32 29 29 26 24 26 24 25 23 26 27 26 30 30 25 19 15 9 9 14 16 18 21 23 23 24 24 24 24 32 23 20 19 20 24 20 24 22 23 26 39 34 26 31
38 34 33 32 30 27 28 28 22 27 26 28 27 30 28 22 12 9 10 14 15 17 18 18 19 22 24 26 26 28 27 29 30 24 22 30 21 26 25 28 19 30 33 34 30
33 35 34 34 31 28 28 29 24 25 24 27 20 27 24 17 14 13 11 12 14 17 19 20 21 22 23 24 26 29 30 27 28 31 34 34 35 33 32 26 31 34 48 42 29
32 30 32 31 30 31 26 29 23 25 28 22 23 23 22 14 14 11 9 13 15 16 17 18 20 22 25 27 28 23 32 32 29 31 34 33 38 27 40 28 29 32 37 53 37
30 30 26 26 27 27 26 27 21 26 25 21 19 22 18 11 12 10 9 9 12 16 17 17 18 18 19 19 23 28 29 31 35 36 25 28 36 44 37 30 33 30 31 32 45
25 24 25 22 22 25 27 25 18 22 25 24 22 19 14 14 13 7 8 9 14 14 14 15 16 17 17 17 19 16 18 17 29 29 37 22 39 35 30 27 34 34 30 29 40
23 22 20 18 18 22 25 25 21 20 25 21 13 17 13 10 10 8 7 10 14 11 10 8 8 15 17 17 15 16 21 22 23 20 22 22 35 32 20 27 32 35 32 35 35
22 19 18 16 15 19 24 24 21 23 14 18 15 11 11 11 10 8 6 10 11 10 6 7 9 15 17 18 17 15 19 22 26 18 22 22 33 18 15 25 28 29 32 36 35
20 18 15 13 11 13 20 21 20 23 21 23 12 16 11 10 8 6 9 11 12 10 7 7 12 19 16 17 20 23 27 28 26 21 20 28 27 26 18 23 25 25 29 37 40
19 17 13 5 17 14 16 20 20 23 21 13 12 12 9 10 8 7 9 11 10 8 8 9 16 12 16 22 27 28 29 30 23 16 20 21 25 24 22 12 26 26 33 30 36
24 17 13 10 16 24 15 15 13 15 4 8 10 11 12 5 9 6 6 9 11 11 10 14 13 19 19 24 25 28 26 27 22 9 13 17 23 23 15 22 20 14 32 31 28
23 17 13 12 17 21 14 14 14 11 6 7 11 11 8 8 7 4 6 7 8 5 6 10 10 14 14 18 20 23 11 21 19 17 11 19 11 17 13 14 25 25 32 25 15
17 16 12 17 17 22 19 19 16 12 4 6 12 8 9 6 2 1 2 3 6 9 7 8 7 12 16 8 6 5 2 12 22 19 14 10 3 8 2 8 19 26 23 22 23
19 14 16 18 22 17 15 11 17 6 4 10 13 11 11 7 4 2 3 7 10 10 9 10 9 8 6 4 6 8 7 11 11 15 4 3 2 7 2 2 5 9 14 24 15
19 11 17 13 13 20 14 19 9 5 9 11 14 15 11 8 5 0 5 6 4 1 2 6 2 2 3 6 11 9 3 3 3 2 4 4 1 4 9 4 7 11 23 21 19
13 12 15 11 21 21 19 19 5 7 10 11 14 16 9 9 4 3 4 3 2 5 1 1 1 3 3 6 1 3 4 3 3 3 4 5 5 7 9 4 7 14 20 28 23
26 20 23 20 28 20 23 5 4 8 11 15 18 15 10 8 5 3 4 4 2 2 2 3 1 6 2 3 2 2 5 6 8 5 5 4 1 6 7 6 11 15 9 25 22
16 23 25 27 25 22 27 6 6 7 12 17 7 9 7 8 5 3 4 4 2 4 4 4 4 6 4 11 5 9 6 3 2 2 4 4 6 6 8 11 15 13 9 11 15
31 34 17 25 20 29 11 9 10 11 17 10 5 10 11 11 7 5 4 10 7 8 10 8 3 4 4 2 6 7 5 3 2 3 1 4 4 5 10 12 15 16 15 14 15
29 32 18 16 27 25 14 11 14 12 9 7 7 12 11 9 9 6 6 6 8 10 9 6 5 5 6 3 4 10 15 12 4 4 6 7 4 7 12 13 14 13 13 13 12
25 32 29 18 12 13 11 8 16 12 7 7 7 9 12 9 6 7 9 8 7 4 4 6 4 2 3 2 3 6 8 13 9 6 7 2 5 14 14 15 16 16 15 14 13
32 27 24 11 17 15 12 7 15 13 10 9 10 12 13 11 7 10 10 7 7 7 7 8 4 2 3 2 2 0 3 8 11 8 8 9 17 19 15 14 13 11 11 11 9
20 25 20 11 15 14 11 10 12 10 10 8 11 11 9 8 11 10 8 8 7 8 7 8 8 8 8 4 3 2 2 4 5 9 7 8 8 15 16 13 10 9 8 8 8
16 15 5 13 15 16 14 13 10 7 9 10 12 10 9 9 9 6 6 4 5 6 7 6 7 9 10 4 5 3 2 3 4 5 7 6 7 10 12 12 11 11 12 12 13
15 13 11 15 16 19 13 14 9 7 9 12 10 7 6 6 6 6 5 3 3 4 4 4 6 5 3 4 3 4 3 2 1 1 2 2 3 7 9 11 13 14 15 15 16

GFSSW_700_spd_087.txt.gz
Wind_Speed
33 32 30 29 24 22 27 26 23 22 21 20 19 21 22 23 25 27 22 20 18 14 13 14 16 18 19 20 22 17 22 31 27 25 24 21 26 26 27 30 29 29 28 29 27
34 35 33 32 31 27 24 23 27 24 20 18 20 18 19 23 23 24 22 19 17 11 12 13 15 17 18 20 19 22 23 29 23 20 23 20 22 24 26 29 29 24 28 24 35
34 36 35 32 33 31 29 25 24 25 21 20 23 21 19 22 22 21 13 11 10 8 10 13 17 18 20 18 20 20 30 23 21 21 24 21 20 19 24 28 25 24 30 29 28
30 31 33 34 31 33 29 27 29 28 23 22 19 17 18 19 10 16 17 15 16 11 13 15 17 17 16 16 17 26 24 23 25 25 23 25 24 24 23 25 23 20 27 31 34
29 29 28 30 29 31 31 26 24 30 23 19 19 15 18 17 19 18 15 15 14 13 14 14 16 16 16 12 16 21 22 25 24 25 27 27 30 28 30 24 21 26 22 34 32
27 27 26 24 26 25 29 29 26 27 25 24 24 16 18 19 16 15 14 12 14 12 12 13 17 20 24 20 20 17 17 20 22 25 26 27 30 26 36 25 26 30 29 31 33
24 25 24 22 21 21 22 26 26 23 23 24 23 21 19 19 16 15 12 12 12 10 13 16 17 20 13 14 15 18 24 26 28 28 30 22 32 37 36 31 27 24 28 25 30
23 20 20 19 19 16 17 24 25 21 24 18 18 16 19 16 15 12 11 11 10 10 13 16 18 19 17 16 17 20 22 26 24 22 26 26 35 26 24 29 32 29 26 25 31
17 17 16 17 17 16 18 25 23 25 23 19 15 13 18 16 12 9 11 11 10 10 11 13 12 11 12 13 15 14 22 22 23 18 20 22 30 30 25 21 28 29 25 25 29
16 13 14 13 13 15 19 22 26 22 19 17 10 12 14 9 7 9 10 9 11 10 12 10 9 12 12 15 17 15 17 20 22 15 19 20 27 28 14 24 22 25 25 25 25
17 14 11 8 10 8 22 18 29 20 23 18 10 14 7 8 7 8 8 10 10 11 10 11 14 18 11 16 22 21 23 28 26 22 23 22 28 23 22 19 22 22 21 24 22
18 14 10 10 16 21 20 21 20 16 10 13 16 16 14 8 7 7 5 8 8 11 11 14 21 15 15 18 22 24 27 32 31 24 24 25 28 22 20 20 20 26 23 19 22
20 18 10 13 18 14 23 17 16 18 12 15 15 17 12 7 7 5 5 5 11 12 15 19 9 12 16 19 23 30 34 35 32 20 18 16 22 21 20 22 16 18 22 21 28
14 14 9 14 12 14 16 20 8 5 9 8 14 14 11 6 3 4 5 6 8 9 10 16 5 11 15 21 23 30 30 27 22 16 11 21 10 21 19 18 15 17 20 11 26
10 9 6 17 22 7 6 10 9 11 5 6 13 14 12 8 4 1 1 2 7 11 11 8 9 12 18 8 17 15 13 10 16 16 12 21 6 20 20 17 13 13 22 20 18
15 12 8 15 17 14 13 15 13 7 3 8 13 14 13 9 5 3 2 8 9 12 13 14 10 11 12 13 8 12 4 7 15 19 6 4 2 13 9 5 5 14 18 21 19
18 12 10 11 18 20 17 13 9 5 10 9 15 16 10 7 3 1 7 9 6 4 7 7 5 8 11 13 9 8 7 5 6 6 3 2 2 11 3 7 10 8 11 20 27
11 3 13 18 11 20 17 12 5 7 5 11 16 15 6 7 3 2 1 2 2 2 6 6 1 6 6 8 11 11 11 8 2 2 3 3 4 6 10 7 8 12 10 19 25
12 11 15 10 17 20 15 3 4 8 7 12 15 9 5 6 3 3 1 3 1 4 4 5 5 7 8 8 8 10 11 6 3 1 3 3 7 17 11 18 13 18 18 15 21
32 25 16 12 20 19 16 7 8 12 12 12 5 5 6 6 3 2 1 4 3 4 4 1 4 6 7 5 6 11 11 6 4 3 5 7 16 13 15 16 14 18 17 18 17
33 26 17 20 21 14 7 12 13 15 11 5 5 7 6 6 1 2 3 6 9 10 8 2 3 6 6 3 7 11 14 7 6 4 3 4 7 11 10 11 11 14 15 19 20
25 30 21 15 18 8 10 15 17 13 9 8 7 8 7 6 5 3 3 3 7 8 2 2 3 3 1 5 9 12 13 14 8 9 7 16 8 7 9 12 17 16 15 17 16
21 28 17 21 13 11 17 14 16 14 7 4 6 8 10 6 3 6 5 7 4 2 3 1 3 6 2 3 10 8 15 15 6 6 12 5 8 7 9 11 11 10 10 11 14
20 17 20 15 15 11 6 13 17 12 8 8 13 12 8 6 7 9 7 5 6 5 4 3 4 4 7 2 5 7 13 14 10 10 14 13 16 12 11 12 12 12 11 10 10
19 16 11 20 15 9 7 14 9 10 12 12 9 8 5 5 8 9 8 7 6 5 2 3 3 5 6 5 4 5 8 10 13 10 10 7 8 8 9 9 7 6 5 5 4
13 16 19 16 18 13 14 8 7 9 10 9 11 10 7 8 8 6 6 5 3 6 4 1 2 5 7 5 4 4 4 5 7 9 9 8 7 8 11 9 7 7 7 7 6
12 14 14 20 21 11 14 12 9 9 9 11 12 7 8 9 9 7 5 3 2 2 4 2 0 2 2 2 2 1 3 3 3 3 5 1 3 5 8 10 10 9 10 12 14

GFSSW_700_spd_090.txt.gz
Wind_Speed
34 35 36 37 31 29 26 18 28 26 23 20 15 16 15 15 16 18 18 19 18 13 11 11 11 11 13 16 19 17 25 27 26 24 23 18 21 22 21 25 27 30 24 25 29
31 33 34 36 36 35 33 28 24 26 26 23 19 17 15 16 17 17 17 14 13 10 10 11 11 11 13 13 19 22 25 29 21 19 20 20 23 21 24 25 25 28 29 29 24
28 31 32 33 34 34 35 32 27 25 23 19 20 15 14 13 16 16 10 16 13 11 10 10 11 12 13 12 16 21 32 26 20 20 22 26 28 24 23 24 19 23 26 34 21
26 29 29 29 31 31 33 35 32 24 26 25 18 20 18 15 11 7 16 15 13 10 10 11 12 12 12 12 14 23 25 21 21 26 27 24 24 33 28 29 21 20 16 29 35
25 27 28 27 26 27 28 34 33 28 28 23 16 16 14 15 17 12 16 13 9 9 11 12 11 12 13 12 11 21 23 23 25 26 29 29 28 28 44 35 28 22 28 19 30
24 24 27 27 23 24 24 28 33 27 23 22 13 20 20 18 17 13 12 10 9 9 10 11 12 13 15 17 19 21 19 21 22 22 24 27 34 33 41 38 39 34 35 22 33
25 23 21 24 22 21 19 20 29 31 25 23 14 22 20 20 18 16 13 10 9 9 11 11 10 12 15 18 10 14 22 26 28 30 34 30 38 41 34 36 38 38 41 34 31
23 18 17 19 20 21 17 16 24 27 23 17 20 18 16 15 14 13 11 9 9 10 11 12 12 14 15 16 20 20 22 29 25 20 22 22 43 34 23 19 32 36 36 43 26
20 17 12 13 18 17 16 19 22 23 21 18 20 14 17 13 13 11 10 10 10 11 10 11 12 14 14 13 18 14 23 22 22 17 18 19 34 26 24 30 29 26 32 33 26
17 16 12 9 10 9 11 20 30 20 21 17 17 11 13 8 7 10 9 10 9 10 10 10 11 14 12 10 12 12 18 23 24 16 16 20 29 25 26 25 25 28 25 27 23
17 13 9 8 8 14 10 19 26 23 22 18 6 13 6 5 8 7 7 7 10 10 7 12 13 17 14 12 19 24 27 32 30 21 23 28 30 30 23 25 20 26 22 23 21
13 12 8 8 16 21 21 22 19 15 8 14 16 16 9 7 8 6 5 6 9 7 7 12 16 6 9 15 22 27 32 39 36 25 23 29 35 26 19 21 21 19 21 26 29
10 11 10 9 17 18 22 23 20 14 4 7 12 14 11 7 7 4 5 6 7 7 10 13 11 8 15 19 24 30 36 40 37 29 27 23 31 23 23 20 23 24 23 29 29
5 5 5 12 12 13 16 14 16 15 7 7 10 11 10 7 4 5 4 4 4 3 7 11 7 9 14 21 24 33 22 21 27 24 12 8 7 15 18 18 21 20 21 22 23
6 7 3 10 8 8 6 15 14 18 6 5 9 10 13 8 3 2 3 3 3 6 10 7 10 13 19 11 19 29 20 18 10 14 18 18 8 12 16 19 21 18 15 17 20
5 5 4 8 15 10 7 8 10 5 5 7 9 13 16 10 7 6 3 2 6 7 7 9 6 11 13 14 14 18 11 2 4 8 5 18 19 11 18 16 14 15 16 20 19
9 4 8 12 15 9 5 9 5 4 11 9 13 16 10 9 5 1 1 5 5 5 9 10 7 11 13 20 15 16 8 3 3 3 2 7 14 7 7 14 11 14 20 20 19
4 7 10 11 19 10 10 13 4 8 9 10 17 16 6 8 4 2 4 6 3 1 8 6 1 9 9 13 15 15 17 5 4 2 3 4 3 4 9 7 15 16 16 14 17
18 17 13 10 13 14 14 9 4 8 17 17 18 9 8 4 5 4 4 2 2 4 2 3 3 10 13 14 14 16 18 13 7 1 2 6 4 17 18 15 16 14 12 16 21
25 22 22 21 19 20 12 9 11 18 20 13 4 3 6 6 4 1 2 6 6 6 3 4 7 13 12 15 20 16 21 8 8 6 4 6 8 11 11 10 23 26 12 16 21
21 32 29 26 17 9 11 19 22 15 8 7 6 9 7 5 4 2 3 6 6 5 4 3 4 6 8 10 13 14 21 13 8 3 1 3 5 10 10 10 18 15 15 17 12
27 31 27 20 16 20 20 17 17 15 11 10 13 11 4 4 6 3 3 3 5 5 4 8 7 7 5 9 14 17 19 17 5 10 10 10 7 11 7 20 12 17 20 16 17
15 25 24 18 19 18 14 20 18 12 9 8 10 8 10 4 4 5 3 7 6 4 3 5 6 8 3 6 11 9 18 13 10 6 19 5 4 6 15 15 15 18 17 14 13
13 21 18 18 18 16 20 18 16 12 13 14 12 12 8 5 6 4 3 6 8 6 5 3 8 5 4 4 6 9 14 15 14 14 17 12 17 6 12 13 15 16 16 17 16
16 21 16 19 18 15 18 14 10 14 14 12 7 6 7 5 6 4 5 8 9 8 4 4 4 5 4 4 5 8 11 12 19 15 14 10 10 8 7 8 9 7 8 7 6
18 20 22 19 17 14 13 8 10 12 12 7 9 7 7 8 8 3 5 3 5 7 6 4 3 6 6 6 5 6 6 5 7 12 13 15 16 7 10 9 5 4 4 5 5
10 16 14 20 15 6 11 10 10 11 9 10 11 6 7 7 6 5 2 3 4 4 5 4 5 5 2 4 3 4 5 4 4 4 5 5 7 10 9 6 7 6 8 8 9

GFSSW_700_spd_093.txt.gz
Wind_Speed
30 31 33 34 37 37 31 29 22 14 24 23 19 15 13 13 13 10 10 11 9 10 9 7 8 9 10 13 16 20 27 28 29 26 25 18 20 21 24 25 24 24 19 24 22
28 30 31 32 34 36 36 33 29 23 17 20 17 20 17 14 13 9 10 9 9 9 7 7 9 8 10 13 17 22 30 30 28 24 23 22 23 27 28 29 24 30 26 23 25
27 27 29 31 31 32 33 36 34 29 22 23 18 20 18 13 13 10 7 8 10 7 7 6 8 8 8 13 15 21 30 27 28 21 26 28 29 30 31 33 27 30 29 32 21
22 25 29 29 31 31 30 31 35 30 34 25 22 20 17 18 10 6 10 11 10 9 6 7 7 9 10 14 13 22 22 24 27 26 29 33 33 38 34 34 32 29 31 29 28
22 20 24 28 27 28 29 27 31 35 28 23 14 19 17 15 13 12 12 11 10 9 8 7 9 11 12 12 15 20 22 24 25 26 32 38 40 40 45 39 37 35 31 34 31
18 21 22 26 26 24 25 25 26 33 34 27 27 17 19 21 15 14 9 8 8 8 8 8 8 9 11 11 15 18 23 28 30 31 32 34 38 43 46 44 43 41 37 33 36
20 18 21 20 22 24 23 22 22 27 31 29 23 21 17 19 14 15 12 9 8 9 8 6 7 7 12 14 15 18 22 24 24 29 34 30 43 43 39 40 47 45 44 38 39
22 20 17 17 15 22 20 17 19 25 32 29 18 17 19 14 10 13 10 9 9 9 8 7 8 10 13 16 18 19 20 18 13 9 6 13 45 31 27 29 37 38 47 47 43
22 17 16 15 10 13 19 15 15 24 32 22 18 22 17 17 11 11 10 10 9 7 8 9 10 12 14 17 20 14 15 17 22 5 12 19 34 28 22 21 23 27 36 40 48
15 10 12 10 1 5 13 17 22 26 27 24 23 8 10 10 8 7 8 7 7 8 9 11 10 11 14 16 10 13 19 24 26 24 18 24 31 29 23 26 30 26 33 30 37
9 9 9 5 11 24 20 23 28 40 28 22 13 15 5 10 8 7 6 6 7 8 7 9 10 13 14 13 14 18 22 29 27 25 32 31 38 36 29 28 28 23 25 27 20
6 5 6 4 18 24 28 28 27 16 19 22 13 15 9 9 8 7 6 6 7 6 6 9 11 8 11 11 17 21 26 34 40 31 24 26 34 33 34 29 26 22 19 20 20
5 4 5 6 17 19 20 21 17 12 18 16 11 7 8 8 7 7 5 6 3 5 7 13 8 11 14 16 19 23 28 33 32 23 29 26 32 26 23 24 24 21 17 19 20
6 3 3 7 9 21 10 9 21 15 8 11 11 8 12 9 6 4 5 3 2 2 5 9 4 9 11 15 16 27 21 25 21 15 9 6 9 27 9 16 21 16 17 19 21
6 4 0 4 6 6 3 11 23 21 5 8 11 12 15 8 7 5 4 2 3 3 7 7 11 15 16 13 17 25 24 26 17 12 12 11 8 10 5 14 15 15 17 14 20
2 4 8 12 12 7 15 11 21 6 5 5 10 15 18 10 7 3 4 2 2 2 4 5 7 7 13 11 14 16 25 17 5 6 4 17 8 4 8 6 11 14 15 20 20
14 16 17 18 12 8 15 17 10 6 11 9 13 18 13 10 6 3 2 1 1 3 8 8 5 9 11 20 16 14 18 2 3 2 4 5 9 7 10 8 14 13 18 17 15
24 22 18 15 11 18 15 13 8 10 11 12 22 18 10 10 6 3 3 3 3 1 5 7 3 11 13 14 13 11 14 6 4 1 2 12 3 3 5 12 7 12 16 15 13
25 21 18 15 18 17 12 19 9 16 22 25 18 14 9 5 3 2 2 2 2 2 3 3 5 9 14 14 16 10 15 13 6 5 2 5 7 9 5 15 15 14 14 15 15
24 23 24 28 19 15 22 27 22 23 26 10 7 7 8 7 4 1 4 6 2 3 3 5 5 8 8 10 15 13 20 6 5 5 3 3 4 11 7 12 22 23 18 17 17
29 35 25 19 21 26 35 28 24 18 12 11 11 12 9 8 6 4 4 6 8 7 8 6 3 6 8 6 12 16 22 10 7 4 1 3 4 15 7 11 18 14 12 12 10
20 25 19 24 26 29 24 23 18 15 16 15 15 12 8 11 8 3 3 3 4 5 3 4 6 9 6 4 12 19 25 19 4 7 4 5 7 16 16 13 10 12 13 13 11
20 22 24 22 26 25 21 17 15 13 12 12 10 11 11 9 5 5 6 7 6 4 2 3 5 9 5 3 8 16 20 14 7 2 11 4 3 15 22 24 21 16 14 16 15
18 18 21 22 27 22 17 15 16 15 13 14 16 14 11 7 6 5 5 8 8 4 3 2 6 4 0 5 7 11 15 15 11 12 12 8 9 9 13 16 18 19 18 19 18
16 19 12 20 20 18 15 11 13 15 12 8 9 11 8 6 6 5 4 5 6 6 4 3 4 6 4 5 4 6 8 13 14 9 6 9 8 7 8 10 10 10 11 11 10
11 12 16 21 17 13 12 12 11 13 8 9 9 8 7 4 5 4 2 2 5 5 4 3 4 6 4 5 4 5 7 6 12 15 11 6 6 4 4 2 3 4 4 4 3
12 17 11 13 12 8 9 10 10 9 8 7 6 8 5 4 2 1 1 2 3 5 5 3 5 7 3 7 6 1 5 5 7 7 5 3 2 2 3 6 6 5 4 5 7

GFSSW_700_spd_096.txt.gz
Wind_Speed
24 25 25 26 32 36 37 37 33 24 10 19 19 19 18 15 12 11 9 9 8 7 8 8 7 6 7 11 14 16 22 25 28 25 27 20 26 27 28 27 21 18 18 23 20
27 27 25 23 26 30 35 37 35 33 24 14 21 21 20 17 10 10 9 8 8 7 7 7 6 6 9 12 14 17 23 23 25 24 25 23 29 34 36 32 28 24 22 24 27
19 22 26 28 24 26 28 32 37 35 33 21 21 22 16 18 13 10 10 9 9 7 8 8 7 7 9 9 13 19 24 21 25 26 26 29 32 36 39 42 35 34 29 23 29
21 21 20 24 26 27 24 27 28 37 35 25 27 20 18 15 9 8 9 10 9 7 8 8 8 7 10 10 14 19 20 22 25 27 30 34 37 38 43 47 43 38 36 28 25
21 18 19 21 23 27 25 22 23 32 37 33 26 17 21 15 13 13 12 10 9 7 7 8 8 7 8 9 12 15 17 19 23 25 29 34 41 42 46 47 48 45 39 34 25
20 20 20 18 20 23 23 22 21 25 36 27 34 20 19 19 14 12 11 10 8 8 9 8 7 8 8 9 11 14 18 19 21 21 24 30 37 39 49 47 52 50 46 40 33
19 18 20 18 19 19 22 21 17 20 32 28 29 26 15 14 12 12 12 10 11 9 8 8 10 9 7 11 14 15 21 21 21 19 25 22 40 40 42 43 52 51 51 46 43
16 20 11 15 18 16 17 20 16 19 29 35 23 22 20 15 13 14 14 12 12 9 10 10 10 10 10 13 15 16 20 21 17 22 21 16 41 27 17 18 33 47 55 51 51
16 12 12 9 12 11 12 17 16 18 26 32 30 22 20 18 14 13 11 11 10 9 9 10 10 10 12 12 14 12 14 23 28 16 21 20 37 35 25 23 25 23 33 50 53
11 6 3 5 4 4 10 14 17 32 36 31 30 23 15 16 13 11 11 11 9 9 10 10 9 10 10 11 7 13 21 24 27 23 30 36 41 41 36 32 30 27 26 30 47
8 3 2 3 9 19 27 30 35 38 33 31 24 15 15 14 13 11 11 9 9 9 10 9 8 8 11 9 11 16 20 25 21 24 32 33 36 35 30 37 39 31 25 26 29
3 3 3 3 15 20 25 31 39 36 27 23 16 20 12 12 12 12 9 7 7 8 7 8 6 4 8 10 14 17 24 28 33 23 32 38 43 34 26 31 30 32 26 24 22
9 4 2 1 11 14 22 17 37 33 29 27 21 18 16 12 10 8 7 6 5 6 6 6 4 7 8 10 15 16 21 23 25 29 27 25 36 19 20 20 19 23 23 18 14
10 7 7 3 2 10 10 17 26 31 19 18 19 17 13 11 9 8 6 3 4 2 4 5 2 6 10 10 14 22 20 24 27 21 12 22 11 27 21 9 10 16 14 12 14
9 10 14 12 9 4 11 25 14 14 6 9 12 17 15 7 9 5 4 1 3 3 5 4 5 6 6 10 13 18 23 27 28 23 17 14 7 12 13 9 2 8 10 11 12
15 20 19 19 12 7 5 24 16 5 6 6 12 19 15 11 7 5 4 2 3 3 2 3 3 4 9 10 15 17 23 27 11 6 4 8 6 10 10 12 5 7 9 10 11
26 25 23 17 17 14 15 23 7 9 8 12 15 19 12 9 7 5 2 1 1 1 4 2 2 8 10 14 8 13 20 5 3 1 4 7 5 10 14 8 5 5 11 11 15
28 26 22 19 26 19 18 8 12 8 10 16 23 15 14 10 5 6 2 3 3 2 3 6 3 7 8 11 12 12 15 5 4 3 3 3 5 5 8 9 12 8 9 10 9
26 22 22 20 18 18 14 15 10 17 27 26 19 14 10 7 5 5 1 1 2 1 4 5 3 4 8 10 12 13 17 18 6 10 2 4 7 5 9 10 6 2 11 12 11
20 24 22 15 16 17 28 28 27 28 20 10 6 5 8 10 5 3 0 4 0 0 3 3 4 4 8 8 11 15 16 6 5 4 3 1 4 11 11 9 10 9 10 12 12
19 19 16 20 24 35 41 33 23 17 14 8 6 11 9 7 6 4 2 5 6 4 3 6 4 5 6 7 12 17 15 8 7 4 2 3 4 16 8 2 12 16 11 12 13
11 22 22 29 29 29 27 21 19 16 14 13 10 10 9 9 7 3 3 2 4 5 4 5 6 10 8 6 9 11 19 17 5 6 3 2 8 16 10 8 9 11 10 10 10
18 19 19 21 23 23 22 20 16 13 12 9 7 8 10 9 3 4 6 7 5 4 4 6 6 9 2 2 6 10 15 16 3 3 9 2 3 15 18 13 13 14 13 13 13
10 16 21 19 20 20 18 18 19 15 14 13 11 9 7 6 5 3 4 5 6 3 3 4 6 5 3 6 9 11 12 14 6 6 8 8 9 11 15 18 19 20 20 19 19
15 11 7 14 15 14 15 15 16 15 12 9 10 11 9 4 6 5 3 2 3 3 3 4 4 6 5 5 6 8 9 9 9 5 3 6 7 8 9 10 11 12 12 12 11
6 11 12 13 14 12 11 11 9 8 7 7 7 6 5 2 2 3 2 1 2 3 4 5 5 10 8 4 6 8 7 1 3 5 5 4 2 4 4 5 6 6 6 5 4
7 6 8 7 7 8 7 6 6 5 5 6 6 5 3 3 2 1 2 5 4 3 5 6 7 9 4 7 8 7 3 3 4 2 1 4 5 2 2 4 4 3 3 3 5

GFSSW_700_spd_099.txt.gz
Wind_Speed
29 30 25 18 19 28 37 42 37 37 18 9 20 20 20 16 14 16 15 15 14 12 12 11 10 10 11 12 12 13 16 18 19 18 17 14 20 24 29 31 29 30 24 19 19
23 22 23 24 24 15 29 36 43 40 28 20 19 25 20 17 14 13 14 14 13 12 11 10 11 11 11 11 13 16 18 15 17 18 21 18 22 24 31 33 34 35 30 25 23
22 19 19 20 26 22 23 26 38 39 36 31 19 26 20 18 17 13 12 13 11 11 11 10 9 9 10 10 13 17 18 17 19 21 24 23 24 25 31 36 36 39 35 29 27
23 21 19 18 18 26 21 23 26 37 37 35 24 21 20 17 12 16 13 13 11 10 9 8 8 9 8 11 14 16 14 17 19 20 25 26 30 30 32 36 37 43 44 37 29
20 20 18 18 17 16 25 23 21 24 36 36 30 25 19 16 14 10 12 11 9 9 9 9 8 8 10 10 12 14 14 16 19 19 23 26 29 32 38 37 38 43 48 46 39
15 21 17 17 19 15 17 24 26 18 33 35 24 24 18 19 14 14 13 12 9 8 8 8 9 10 10 10 11 13 16 17 18 20 26 30 31 34 36 29 35 45 51 52 45
13 13 18 16 18 15 14 18 19 23 24 35 26 28 9 16 15 14 12 9 8 7 8 9 10 10 9 9 11 13 20 21 20 18 24 26 41 41 28 28 32 39 50 56 55
13 10 13 14 13 11 11 14 18 20 25 35 32 27 26 13 13 11 12 10 9 9 10 10 10 10 10 11 14 16 21 20 18 22 22 22 43 37 32 34 35 33 39 52 57
12 7 8 10 10 8 5 13 19 20 25 29 35 34 28 18 12 12 11 9 10 10 10 10 10 10 11 11 14 14 16 22 27 19 18 21 42 39 35 39 43 38 37 37 52
8 2 3 8 5 6 10 20 21 26 36 29 23 17 14 16 15 12 10 10 10 10 10 10 10 11 11 10 8 13 20 23 26 16 28 28 41 36 33 34 40 40 36 31 35
5 3 2 2 8 13 23 23 28 25 33 30 21 22 15 16 15 11 11 9 9 8 9 9 8 10 10 10 12 16 20 25 21 16 25 33 43 38 19 22 28 36 34 30 25
10 8 2 4 12 24 30 33 34 34 34 27 25 12 21 14 14 13 9 7 6 7 8 7 8 8 8 9 13 16 21 24 17 26 28 34 41 20 22 27 27 24 28 25 21
13 10 6 10 4 2 30 33 33 35 34 32 26 16 18 12 10 9 7 6 6 6 6 7 6 7 7 8 14 17 23 20 24 32 30 29 28 20 21 27 21 17 17 17 17
14 16 16 15 12 18 16 32 35 31 19 18 22 16 13 13 9 9 5 2 2 2 4 2 2 6 8 10 13 22 16 23 27 26 13 25 10 18 20 21 21 9 3 5 7
21 26 23 13 25 16 27 32 33 22 6 7 11 18 14 5 9 5 4 1 1 3 2 4 4 5 6 8 12 15 22 24 23 16 14 8 6 7 18 19 19 10 3 4 4
30 28 23 21 21 16 29 22 22 6 6 5 14 16 12 9 7 6 4 1 2 1 3 3 3 4 5 8 12 14 21 13 9 6 2 7 2 10 19 21 14 8 6 5 3
27 25 22 21 20 29 21 12 9 9 9 12 20 14 11 9 7 6 3 2 2 2 3 2 1 2 5 9 6 16 21 6 5 3 3 11 4 10 20 16 16 9 1 6 6
31 30 24 18 21 17 15 13 13 5 9 17 19 15 11 9 6 4 3 2 5 2 4 5 1 2 6 10 11 14 15 2 5 3 4 6 5 6 19 15 16 15 3 6 7
24 23 17 20 21 11 7 12 8 14 25 23 16 14 9 5 5 3 1 3 3 2 2 4 1 4 8 11 13 14 16 13 7 10 6 4 6 11 20 10 6 7 1 3 4
15 16 15 12 9 14 27 31 24 26 23 12 7 4 9 9 4 1 3 3 4 4 1 4 6 3 7 7 11 15 14 6 5 4 4 2 4 17 19 5 6 7 2 7 8
12 16 17 18 24 30 38 31 23 17 12 7 7 9 7 6 5 1 2 2 2 3 2 5 3 4 2 4 11 13 12 9 8 5 2 4 4 23 15 9 4 3 3 5 9
15 26 23 24 23 28 25 19 18 16 14 11 8 8 7 7 4 1 0 2 3 3 1 5 5 8 7 6 8 10 13 17 5 2 4 3 6 19 12 6 7 4 4 2 3
16 18 13 10 19 21 20 18 16 13 10 8 6 8 7 5 1 1 2 3 4 4 4 6 6 8 4 2 5 7 10 15 9 6 4 1 3 13 15 13 13 13 16 22 23
9 10 11 11 16 16 15 12 13 9 8 8 8 7 5 3 4 3 2 2 3 2 3 4 6 5 6 8 11 10 8 11 9 3 2 3 2 6 11 15 17 17 16 16 17
13 7 3 9 10 9 9 11 10 8 7 6 5 5 4 1 2 1 1 0 1 2 4 6 6 9 11 12 13 13 10 9 7 3 2 4 2 4 6 8 9 10 10 11 11
6 6 6 7 10 9 7 7 4 3 2 2 4 4 2 2 3 2 2 2 3 5 6 8 8 15 19 11 12 18 13 10 7 4 2 2 2 1 1 2 3 3 4 4 5
1 2 2 1 3 5 6 3 2 1 1 2 4 4 5 5 5 6 6 7 8 8 8 9 9 14 7 7 15 17 15 11 11 10 8 7 5 4 4 2 2 2 3 4 6

GFSSW_700_spd_102.txt.gz
Wind_Speed
25 28 27 28 31 37 33 44 47 39 26 6 19 22 21 20 17 15 14 14 13 12 10 10 10 9 9 10 10 11 13 12 13 11 9 10 15 17 20 22 24 25 26 23 22
29 27 23 23 21 23 34 36 46 45 36 24 18 20 20 20 17 15 14 14 13 13 11 11 11 12 11 11 12 13 14 11 12 13 15 15 18 20 22 24 25 27 30 30 27
24 24 22 19 20 20 25 36 36 47 41 40 17 18 24 20 18 16 13 13 13 13 13 12 12 13 13 13 13 14 15 15 16 17 19 18 20 23 26 27 24 30 34 34 33
17 27 26 26 18 16 16 18 34 40 45 41 26 15 14 20 14 17 14 12 13 13 12 12 12 12 12 13 13 14 14 15 14 15 19 21 25 27 28 31 27 28 35 40 38
14 18 22 17 14 14 12 20 27 34 47 40 30 21 16 19 16 12 16 14 13 12 12 13 12 11 12 11 14 14 13 14 14 15 20 24 25 28 36 26 27 30 33 41 44
11 12 17 15 12 15 10 9 17 32 37 41 32 23 17 15 17 12 13 12 10 11 11 11 10 11 11 12 13 11 12 14 14 16 23 28 28 30 33 28 31 31 34 37 42
10 10 12 12 8 12 12 8 16 30 33 35 31 27 27 20 17 12 10 10 10 10 9 9 10 11 11 11 13 13 14 15 18 16 21 29 36 28 22 26 27 28 31 38 44
8 10 7 10 8 8 9 7 15 32 32 31 35 28 27 19 18 13 11 9 8 8 8 9 10 11 11 12 12 13 17 13 14 21 21 23 34 27 24 28 32 34 35 38 40
11 8 4 5 7 7 7 10 16 33 33 31 32 20 23 12 15 13 9 9 10 9 9 9 10 10 10 11 11 11 14 18 17 19 18 20 33 32 31 30 37 38 37 36 40
9 6 5 2 3 5 8 21 20 30 36 26 27 12 11 14 12 7 7 8 9 9 8 9 9 8 9 9 7 11 16 19 17 18 25 26 38 38 26 24 26 31 36 37 37
13 10 6 4 6 12 20 29 29 29 30 25 26 16 21 22 12 9 6 6 7 8 8 7 7 7 8 8 9 13 16 21 16 16 31 33 40 34 12 16 24 32 33 38 36
15 12 11 7 6 20 24 33 31 36 29 19 20 13 15 16 14 11 7 7 7 7 6 5 5 5 5 7 10 13 16 20 20 17 29 35 38 9 13 17 25 31 29 25 28
18 16 16 10 17 21 22 24 28 22 26 21 16 17 16 11 10 10 8 6 5 5 5 3 4 4 6 7 12 12 19 18 24 29 27 22 27 3 8 13 21 21 22 17 13
28 25 19 10 5 19 22 18 33 28 20 15 18 14 15 14 11 9 6 4 3 2 3 1 1 4 6 7 11 18 15 20 24 23 9 16 9 8 13 15 20 21 14 11 5
28 29 22 16 18 24 19 27 30 9 6 6 14 15 14 6 11 7 5 2 0 2 1 3 3 3 4 6 11 14 19 23 25 20 16 8 6 6 18 27 25 19 9 12 12
29 26 22 31 27 25 29 28 13 4 6 6 15 14 10 8 6 6 3 2 3 4 3 1 1 2 4 9 9 12 21 16 8 7 4 2 4 7 19 29 26 28 7 9 13
26 29 25 26 27 23 27 21 5 9 10 12 16 13 8 9 7 6 6 6 6 3 5 2 1 1 4 8 4 12 16 5 3 1 4 9 6 9 23 27 23 23 7 8 15
26 21 24 19 18 20 23 13 11 8 7 18 16 12 10 8 7 7 6 7 8 6 8 3 1 1 4 7 7 7 7 3 4 3 6 9 4 10 20 27 15 15 9 12 13
24 19 12 10 13 9 6 10 8 14 23 18 15 10 6 5 4 4 6 6 4 6 4 4 2 1 3 5 7 8 8 6 5 6 5 4 8 14 25 13 9 10 6 6 5
15 10 10 12 11 12 25 28 20 25 20 10 4 3 6 6 5 4 7 5 4 1 5 2 7 4 4 2 5 8 12 3 5 4 5 5 5 19 29 15 7 9 7 2 6
20 24 22 20 22 26 36 29 21 16 11 7 9 9 7 5 7 6 4 4 3 3 3 4 5 3 4 3 6 7 7 7 7 3 2 4 3 24 22 16 11 9 11 5 6
19 26 20 16 15 26 24 21 19 16 14 11 9 8 7 7 5 3 1 3 4 1 3 4 6 9 5 7 7 8 5 12 5 1 5 4 5 18 15 17 13 13 12 16 16
18 18 12 9 18 22 21 17 15 11 7 6 5 5 5 3 1 1 2 1 1 1 3 5 4 8 2 2 3 5 6 10 13 7 6 2 4 9 16 16 19 18 19 20 21
15 13 13 10 13 13 13 10 9 7 6 5 5 4 1 3 3 3 4 3 2 2 5 8 8 9 9 10 14 16 11 9 9 6 6 9 6 4 5 8 10 11 11 13 14
12 12 9 8 9 6 6 8 6 4 3 3 2 2 3 4 4 5 5 6 6 5 7 8 11 14 16 20 22 23 17 12 13 10 8 7 9 6 3 3 4 6 6 7 8
9 8 7 6 5 5 5 4 2 2 1 2 2 4 6 6 7 8 6 7 7 7 9 12 11 19 24 16 14 21 22 19 17 15 13 11 10 8 7 5 4 3 4 4 6
2 4 4 2 3 3 3 4 4 4 2 3 4 6 7 8 9 11 11 12 13 14 13 12 11 16 9 13 20 21 10 16 19 17 14 15 9 9 8 7 7 7 7 8 9

GFSSW_700_spd_105.txt.gz
Wind_Speed
26 27 24 22 21 26 27 34 39 42 35 19 13 26 23 22 20 18 15 13 12 11 10 10 9 9 9 9 10 10 9 10 11 9 9 10 11 14 17 16 18 20 23 21 20
20 13 21 20 19 19 22 25 37 48 48 27 12 25 28 23 20 18 16 14 12 11 11 12 12 11 10 10 10 10 9 9 11 11 11 12 14 17 19 21 20 21 24 25 26
12 13 20 23 17 17 16 18 34 41 52 50 28 17 23 23 21 18 14 13 13 11 10 10 10 10 11 11 10 10 11 11 13 14 14 15 16 18 21 21 18 22 24 27 29
14 14 15 22 21 13 15 17 24 45 31 37 34 13 23 24 18 17 15 11 12 12 11 9 9 9 10 10 11 10 11 12 12 15 16 17 19 22 25 20 22 24 26 27 27
10 10 12 16 20 19 13 10 19 29 32 35 21 22 14 29 16 17 15 12 11 11 11 10 10 10 11 10 11 11 12 12 12 14 17 21 20 26 22 22 24 25 27 30 32
8 8 10 10 13 10 8 4 16 21 43 35 18 30 11 22 20 14 15 14 13 12 11 11 11 11 11 11 11 11 10 10 11 14 20 24 23 23 18 20 18 20 21 26 29
6 7 5 4 7 9 9 5 8 6 40 23 22 34 13 20 20 16 14 12 11 11 10 10 11 10 10 9 11 12 11 11 14 15 20 26 27 13 13 20 21 25 29 32 35
8 6 1 4 2 7 7 5 9 15 35 29 19 31 15 12 9 16 13 10 10 10 10 10 10 10 8 9 9 10 11 8 13 18 20 24 29 17 20 27 31 34 36 36 35
9 9 4 3 4 4 8 8 10 25 27 29 23 22 18 8 18 16 13 10 9 9 9 8 7 7 7 8 8 7 8 13 14 17 20 21 29 23 28 34 36 33 31 31 32
13 16 12 7 5 4 6 15 20 25 31 29 21 19 15 17 17 13 10 8 7 6 6 5 5 5 6 6 4 7 12 13 15 17 24 26 32 31 27 28 22 23 26 31 35
16 15 12 9 9 10 19 19 33 33 42 13 28 15 27 17 13 10 8 6 5 5 5 4 3 3 4 5 7 10 11 15 14 20 26 29 37 29 13 13 17 22 29 36 35
21 20 17 14 18 19 18 36 33 32 31 21 31 12 17 17 11 7 6 4 4 3 3 3 2 2 3 5 7 10 11 16 15 14 29 29 31 12 13 10 17 25 32 33 25
23 26 24 16 19 18 26 29 37 28 32 29 25 24 20 16 11 8 5 3 2 2 3 2 2 1 3 4 8 9 11 12 19 25 25 22 16 9 8 8 15 24 28 23 24
23 16 16 15 18 17 25 40 31 27 26 18 19 16 16 15 11 9 5 4 3 2 3 2 4 3 4 5 8 12 10 15 20 22 10 17 9 12 4 15 21 27 23 18 23
34 26 17 17 22 23 27 26 23 11 6 7 17 17 13 7 12 7 5 4 3 1 3 5 4 4 3 3 7 7 15 19 22 15 14 8 7 7 16 23 29 30 16 18 21
36 38 29 24 19 34 35 16 9 5 7 7 13 13 10 11 7 7 5 4 3 4 3 4 4 2 0 4 5 9 15 14 5 5 3 3 3 11 16 31 30 23 13 17 30
26 32 31 23 24 25 18 10 4 11 10 11 13 11 11 10 10 9 7 7 6 4 4 4 3 3 3 5 4 8 14 5 3 1 3 3 6 10 20 29 25 18 17 15 16
21 22 22 18 12 11 5 7 15 6 8 16 13 13 10 10 10 8 6 6 6 5 4 3 3 3 3 5 6 5 7 3 4 3 5 10 6 9 19 29 14 12 15 17 13
19 18 17 16 11 9 3 11 9 12 21 16 14 9 7 7 6 4 5 5 5 3 2 2 3 2 2 3 5 4 3 2 4 5 4 5 6 12 25 19 12 11 12 13 9
26 28 26 21 17 15 24 28 21 21 16 8 4 3 5 6 4 2 5 7 5 4 4 3 2 4 4 5 4 3 6 1 3 3 4 6 5 14 25 20 14 10 11 9 7
26 32 26 24 24 25 35 29 20 14 11 9 10 8 7 5 5 5 5 6 8 3 1 4 3 4 7 5 3 3 2 2 5 4 2 4 4 15 23 18 16 14 12 8 7
19 24 19 12 12 24 24 21 19 15 13 11 9 8 7 6 7 5 6 4 5 5 3 4 6 9 1 5 9 9 7 6 2 2 7 5 7 9 15 12 16 19 21 23 23
20 21 18 13 17 19 20 17 15 10 8 7 6 7 7 7 4 4 4 5 5 5 5 5 4 9 2 2 5 6 7 10 10 8 10 3 4 10 7 8 10 12 14 15 16
14 12 15 11 13 13 13 12 11 10 9 7 5 4 5 5 5 4 5 5 6 5 6 10 8 11 11 13 17 23 22 16 16 8 7 17 21 13 9 6 4 4 5 7 8
11 13 13 10 11 9 9 8 8 6 4 3 2 3 4 5 6 5 7 8 8 9 10 10 14 18 19 22 27 28 24 25 25 22 17 16 17 11 11 9 7 5 4 3 4
6 6 7 7 6 6 5 5 5 3 1 1 2 3 5 5 6 9 8 9 7 9 10 15 14 22 30 21 15 27 27 23 23 25 27 24 23 13 13 13 12 11 10 9 8
5 3 2 1 1 2 0 2 2 4 3 5 6 7 8 8 10 11 13 14 17 18 18 18 15 17 11 16 30 12 4 8 14 22 22 22 15 14 13 14 14 13 13 13 12

GFSSW_700_spd_108.txt.gz
Wind_Speed
19 21 21 23 21 20 25 21 25 28 36 24 18 26 24 23 22 19 15 14 13 12 14 14 14 13 12 11 12 11 9 7 7 6 9 9 10 11 13 14 13 15 17 18 19
16 19 20 22 21 20 21 22 26 25 42 36 19 21 28 26 25 23 20 16 14 13 13 13 13 13 13 11 10 10 8 7 7 7 8 10 12 15 17 16 14 17 18 20 20
14 14 11 12 13 17 21 22 25 34 33 44 37 14 33 28 23 23 22 19 16 14 13 12 12 11 11 10 10 10 11 10 10 10 11 14 17 19 20 13 18 20 21 24 24
7 8 12 12 14 18 17 18 18 22 38 40 34 22 18 32 23 23 23 20 17 14 14 13 11 11 10 10 10 9 9 10 10 12 14 15 16 20 15 17 22 23 25 26 26
3 5 8 8 12 13 13 16 16 19 43 32 44 34 12 30 22 24 23 21 19 16 15 14 12 11 11 10 9 8 9 10 12 13 14 14 17 19 14 21 22 24 26 28 29
5 6 7 8 11 11 14 14 12 20 30 23 35 28 18 28 20 24 23 21 19 17 15 13 11 10 9 9 8 7 7 8 10 12 16 17 18 19 18 19 19 23 24 26 29
6 6 4 3 7 13 16 10 9 16 13 23 22 23 17 33 26 24 21 18 17 15 13 12 10 10 9 7 8 8 8 9 11 12 17 19 19 12 17 18 22 24 25 29 33
5 3 5 6 12 15 13 9 12 12 20 27 36 25 17 34 26 23 20 15 14 13 12 10 10 9 8 7 6 6 7 6 9 15 18 18 17 12 19 25 27 29 34 36 37
9 6 8 10 12 14 13 11 13 15 19 35 34 28 21 21 21 19 18 16 13 11 10 9 8 7 7 5 5 5 5 10 13 14 20 17 22 18 22 31 32 32 32 29 28
16 13 10 12 8 11 14 16 16 25 25 35 27 21 16 13 14 16 13 13 12 9 8 7 6 6 5 4 3 4 7 10 13 17 21 21 26 22 27 31 28 24 24 25 27
14 15 13 13 12 16 19 26 29 24 31 22 18 19 17 20 20 16 13 11 10 9 8 6 5 4 4 4 4 5 8 11 13 21 23 22 29 27 25 18 21 19 22 26 30
17 17 17 18 15 21 31 31 24 36 36 32 17 20 23 20 17 14 12 9 8 7 7 6 5 5 4 2 4 5 7 11 12 15 25 29 32 21 12 15 12 19 24 27 29
22 20 17 15 15 22 28 32 31 35 35 31 22 18 14 14 11 10 9 8 7 7 7 6 6 5 2 2 4 5 7 10 16 24 24 24 12 5 12 13 13 24 28 25 23
19 19 24 29 32 28 29 35 30 29 25 21 14 13 12 9 5 5 5 4 5 6 6 4 5 4 3 3 4 6 6 12 18 20 8 14 7 10 8 10 17 24 21 18 20
28 27 29 35 40 38 37 28 17 12 7 9 13 13 13 8 10 5 4 5 5 5 5 6 7 4 1 1 4 5 9 15 19 13 12 4 6 6 9 14 28 27 17 15 18
34 29 33 37 34 27 17 13 9 8 8 7 11 13 12 12 8 7 5 5 5 5 5 5 5 3 2 1 4 5 11 14 6 3 4 7 4 7 9 27 32 24 14 14 19
30 31 27 25 18 21 19 13 8 12 11 10 12 12 11 11 10 9 8 7 5 4 5 5 4 4 2 3 2 7 10 3 3 3 3 5 7 8 18 29 29 25 17 18 20
23 21 19 15 7 11 15 9 15 7 10 15 15 11 10 11 9 9 9 9 7 6 6 3 2 4 0 2 3 4 5 2 4 3 7 8 7 5 20 27 25 18 18 18 17
24 17 13 11 9 12 10 24 10 14 17 17 14 9 7 9 7 7 12 10 6 4 3 2 2 4 2 2 3 5 2 5 5 9 7 4 7 11 23 23 20 15 16 15 15
29 26 22 19 18 19 25 31 21 19 13 10 6 7 7 8 7 5 6 9 7 5 4 2 1 7 5 5 7 6 6 3 4 5 5 4 6 7 20 16 19 16 14 12 10
25 30 24 22 24 20 31 27 19 15 14 12 13 11 10 8 7 6 5 6 8 7 5 5 1 4 7 6 6 7 6 3 5 4 3 5 3 7 15 12 16 15 16 17 16
21 24 20 16 16 25 25 23 19 17 15 14 12 12 10 6 8 5 4 5 6 6 5 5 2 4 4 8 9 11 12 9 4 2 7 6 10 6 10 12 10 11 11 14 18
19 20 18 13 14 19 19 18 17 12 10 9 9 9 7 7 4 4 3 3 3 3 4 7 3 5 2 3 7 10 11 12 13 13 13 6 4 11 15 11 10 9 9 9 11
12 12 15 13 15 14 15 13 13 12 11 8 6 5 5 4 2 0 1 1 4 5 6 9 8 8 10 12 16 19 19 21 18 12 14 21 24 20 15 13 11 10 9 8 7
9 10 9 9 11 11 10 9 8 7 6 4 4 4 2 1 2 2 3 6 7 9 10 9 15 18 21 22 25 30 28 23 26 30 22 23 23 20 20 20 15 13 11 10 9
5 5 4 5 5 5 5 5 4 4 2 1 1 2 3 4 5 9 10 11 11 12 13 16 15 22 32 23 17 25 25 24 27 28 32 33 35 22 15 15 17 15 15 13 12
3 2 2 3 2 1 2 2 2 3 3 4 4 4 6 8 9 11 14 16 19 20 19 20 18 16 12 15 28 17 2 6 13 15 16 22 16 18 16 15 15 17 18 16 15

GFSSW_700_spd_111.txt.gz
Wind_Speed
25 22 14 18 16 15 17 23 27 40 44 30 17 23 23 22 20 18 18 17 16 16 14 13 14 15 15 16 17 14 8 5 4 5 11 8 10 10 9 7 10 12 13 16 20
14 13 8 16 17 20 21 22 22 33 43 43 19 18 26 22 22 21 19 18 16 14 14 14 14 14 13 14 15 15 6 7 10 11 9 9 10 14 10 10 14 15 17 20 19
6 10 7 7 13 16 22 22 24 24 21 37 23 23 27 27 24 24 21 19 17 14 12 13 13 13 13 14 14 14 7 11 10 10 10 12 14 14 14 12 16 19 23 24 24
3 3 6 9 9 9 13 21 21 22 24 35 23 21 20 30 18 24 21 20 18 16 14 12 12 12 11 11 11 9 10 9 9 10 12 14 16 17 16 17 22 24 25 26 27
1 5 6 3 8 8 9 14 17 17 22 26 22 17 19 33 24 25 23 20 20 18 15 14 13 12 11 10 8 9 8 10 10 12 14 15 16 17 16 20 24 25 26 26 26
3 4 4 3 8 9 10 12 14 16 16 29 27 25 15 33 22 25 22 21 19 19 17 15 14 11 10 8 9 8 10 11 12 13 13 15 16 18 20 21 22 22 22 24 26
11 8 5 3 7 9 11 13 12 15 12 27 24 35 14 26 22 24 23 21 20 20 18 16 14 13 10 8 9 9 10 11 13 13 13 16 17 13 15 22 20 22 26 27 29
7 4 1 3 10 12 17 13 17 16 18 14 23 29 18 27 28 24 23 21 20 18 17 15 14 12 10 9 6 6 8 5 11 12 15 14 15 15 19 25 23 25 28 31 32
5 6 8 13 15 19 16 21 25 26 20 20 15 20 24 31 28 26 24 20 19 17 15 13 12 10 9 7 5 6 6 6 9 13 15 15 17 18 23 27 29 30 31 29 26
11 9 12 13 16 17 22 25 25 20 23 22 22 17 25 31 26 23 21 19 16 14 12 10 9 8 8 7 3 5 6 7 6 12 17 19 25 19 21 28 30 27 22 24 26
12 13 16 11 18 21 23 24 23 35 29 25 16 20 25 27 23 20 16 16 14 12 11 10 9 9 8 8 8 8 8 9 9 19 20 18 24 23 26 28 19 20 21 24 27
16 17 16 15 18 20 23 30 30 35 27 22 20 19 23 23 19 15 15 14 11 10 10 9 8 8 7 6 6 6 7 7 12 14 20 22 26 22 21 11 17 19 25 31 35
21 17 19 23 25 27 27 28 30 40 41 33 27 23 22 20 16 14 11 13 13 11 11 7 8 7 6 4 4 5 6 8 12 20 14 17 14 13 9 10 14 22 29 36 26
34 27 26 25 27 27 36 47 33 25 19 16 13 15 16 15 11 11 10 10 9 10 9 6 8 6 5 3 2 2 7 12 15 15 5 15 7 9 9 11 20 27 36 28 19
38 32 34 32 34 40 32 21 16 10 5 7 12 12 11 5 10 8 7 9 9 9 6 5 8 5 2 2 3 6 9 13 16 9 10 1 4 4 9 13 15 34 31 19 16
40 40 33 27 23 14 13 11 9 7 7 5 10 12 9 9 7 8 7 6 6 5 3 4 4 3 2 1 4 5 11 12 6 4 3 3 2 7 5 19 30 28 23 17 18
27 28 23 19 19 13 11 10 9 11 7 6 8 11 11 11 10 10 9 6 4 4 4 4 3 3 1 3 4 8 11 4 3 2 2 1 7 9 12 25 25 25 23 21 20
10 9 11 14 14 14 15 14 15 6 9 14 15 12 13 13 11 9 9 8 6 6 4 1 3 2 1 2 1 3 5 2 3 4 7 10 7 2 11 20 22 24 24 23 21
18 13 15 17 17 17 20 25 10 11 20 19 15 10 9 10 9 9 8 4 3 4 2 1 1 4 3 3 3 4 3 3 4 6 6 7 10 14 8 14 20 22 23 23 19
27 24 23 23 24 23 26 30 19 20 15 13 5 8 4 5 4 4 3 4 5 5 4 1 1 6 5 5 6 4 5 3 2 4 5 7 11 10 10 12 17 19 20 21 21
24 28 22 19 18 23 29 26 20 18 16 12 9 7 6 4 5 3 2 4 5 5 5 2 1 3 7 6 6 7 6 4 5 7 4 6 4 9 13 15 17 16 17 18 18
18 18 17 15 15 22 23 22 20 18 16 14 11 9 5 5 4 3 1 3 6 6 5 5 3 6 7 13 12 14 12 12 9 5 12 14 16 18 11 19 17 16 16 16 14
17 17 14 12 17 20 19 17 15 12 9 8 8 7 6 5 2 3 2 3 3 3 3 5 3 6 3 7 12 18 16 18 16 15 20 14 9 10 18 22 18 16 16 16 15
9 9 12 11 13 16 16 12 13 11 10 7 7 5 4 3 2 1 2 3 4 6 8 9 8 9 13 13 12 15 13 15 19 22 23 29 31 26 27 26 21 19 17 16 16
6 7 7 7 8 9 9 9 8 6 5 4 3 2 2 0 3 2 5 8 9 11 12 11 14 16 24 24 27 30 28 26 30 34 30 35 30 26 21 21 24 25 19 18 16
3 2 2 3 3 2 2 3 3 4 4 4 3 3 4 5 7 7 10 11 12 16 15 18 17 19 34 25 18 26 27 26 28 31 35 39 43 25 24 23 20 21 19 19 17
8 4 3 2 3 3 4 4 4 4 5 6 6 7 9 10 11 12 14 17 20 22 23 19 19 13 13 14 24 23 10 10 13 16 18 25 21 21 18 21 19 18 21 21 20

GFSSW_700_spd_114.txt.gz
Wind_Speed
9 24 20 11 15 15 19 24 25 34 39 28 13 26 20 19 17 18 17 18 16 15 14 14 13 15 16 18 18 13 10 8 7 10 12 8 8 7 5 7 9 8 10 14 19
5 12 15 16 10 15 11 15 23 28 36 38 23 19 23 23 23 19 18 18 18 17 15 14 13 13 13 15 17 16 11 10 14 15 13 8 8 5 5 10 12 13 15 17 16
3 7 5 8 5 8 11 15 19 26 30 41 31 15 31 26 24 22 19 17 17 18 16 16 14 13 13 14 16 15 11 11 13 8 10 9 9 8 10 12 16 16 18 21 22
6 6 7 5 3 5 10 16 20 23 28 40 51 23 25 26 20 23 21 19 17 16 17 14 13 12 12 13 13 14 11 7 7 8 10 12 12 12 14 14 18 21 22 24 25
8 7 5 3 4 2 3 9 19 22 18 21 27 23 29 33 25 28 23 21 17 16 17 17 14 13 12 11 11 11 9 9 9 10 11 13 15 16 17 18 20 20 22 24 25
8 4 3 3 5 4 5 4 16 17 13 14 24 19 31 32 23 27 24 22 20 18 16 18 18 13 12 11 11 8 9 9 9 11 13 15 16 18 20 20 19 19 21 22 24
5 3 6 9 10 8 6 7 11 14 12 16 20 15 8 21 20 26 22 21 20 19 16 13 15 16 12 9 8 7 7 9 10 12 14 16 15 14 16 18 19 19 23 25 26
11 11 9 7 11 10 8 12 14 18 16 11 16 17 5 24 24 25 22 20 18 17 16 14 13 10 8 8 6 5 6 8 11 12 13 15 17 16 20 22 22 22 25 27 29
11 10 6 16 17 16 15 20 26 13 21 12 13 19 13 26 25 25 24 21 19 17 15 15 12 10 8 7 5 5 1 5 10 14 15 16 18 14 21 26 26 25 27 27 26
12 13 17 22 20 18 24 28 24 19 16 17 17 14 10 22 23 22 20 18 17 16 14 12 11 10 8 7 3 1 4 8 9 15 16 17 24 18 21 23 26 25 24 25 28
13 12 14 18 20 24 27 23 20 24 22 13 19 15 26 24 22 20 18 19 17 15 14 12 10 9 8 6 7 8 10 11 10 17 21 20 23 21 21 23 21 16 19 26 28
16 21 22 19 22 21 26 28 23 28 29 24 23 19 32 29 21 19 19 18 15 12 10 9 6 6 6 7 7 8 9 9 13 15 19 20 25 17 14 8 9 14 24 27 30
25 26 23 21 22 26 25 27 25 31 38 28 27 28 29 21 19 16 14 16 13 12 10 7 6 7 7 6 6 7 8 11 13 18 16 16 15 8 6 7 10 20 25 30 34
30 27 27 29 29 28 36 33 32 26 21 19 22 24 23 22 15 14 12 11 12 12 9 5 7 8 6 5 4 4 7 10 14 16 4 11 7 7 10 9 16 23 31 33 31
45 39 33 34 40 27 24 22 13 7 7 7 16 14 12 13 14 11 9 10 10 10 5 4 9 6 4 3 3 7 8 13 15 9 12 1 5 4 8 10 14 24 24 27 26
34 33 31 25 18 14 12 10 5 6 6 5 10 12 11 10 10 10 9 8 7 7 4 4 5 4 3 2 3 5 8 10 6 3 3 5 3 7 7 11 18 18 23 25 24
19 19 18 16 12 9 9 6 6 10 11 9 9 12 12 13 13 12 10 7 6 6 5 5 4 3 2 2 2 6 10 2 2 2 3 4 8 12 13 14 16 18 22 24 26
16 15 11 9 9 13 15 12 11 9 8 17 15 14 10 14 11 10 8 6 5 7 7 4 4 6 4 2 1 1 2 2 3 2 3 11 9 4 9 14 15 20 22 23 25
20 18 14 13 11 13 18 15 13 17 22 21 16 6 8 7 9 8 6 2 3 6 3 4 3 7 5 4 2 3 3 4 3 4 5 7 9 17 16 12 19 20 21 22 24
22 22 22 17 18 20 23 23 17 22 19 13 3 8 5 5 5 5 3 3 5 4 3 2 0 5 6 7 7 7 5 1 2 2 5 8 16 16 14 14 18 21 20 21 21
18 21 15 14 15 18 24 23 19 16 15 11 10 8 8 7 8 5 3 4 3 4 2 3 2 2 7 6 6 8 8 6 5 7 3 4 8 8 10 20 17 22 20 20 19
14 17 12 12 13 16 19 18 17 15 14 13 10 10 5 6 4 3 1 2 1 3 4 3 4 6 7 10 11 14 11 11 6 4 9 11 16 20 15 13 21 30 23 20 19
13 12 12 11 14 15 17 15 15 13 9 7 7 6 5 5 3 2 1 1 2 3 4 4 3 5 2 9 8 10 14 19 22 21 24 8 12 12 11 28 34 29 26 22 19
7 6 9 9 10 10 10 8 9 8 8 5 6 4 4 3 1 2 2 1 4 6 7 9 10 11 12 11 11 21 22 19 20 19 28 37 41 37 34 30 26 29 30 23 21
7 6 4 4 5 5 5 5 4 3 2 3 2 1 1 1 3 5 6 8 10 11 13 12 17 18 23 27 28 32 34 33 34 39 34 42 37 40 33 28 32 33 32 33 21
6 3 3 2 1 1 1 1 1 1 2 3 3 3 4 5 7 8 11 11 12 18 16 19 17 21 34 31 20 29 31 33 35 36 43 46 43 25 22 14 28 19 29 30 23
9 5 5 5 6 7 6 5 5 5 5 7 7 8 9 10 13 14 17 18 20 23 25 22 22 18 13 16 26 29 16 18 24 23 21 29 23 19 17 21 22 22 21 25 23

GFSSW_700_spd_117.txt.gz
Wind_Speed
5 12 18 19 20 17 17 22 25 34 37 27 20 22 20 21 23 22 18 17 17 19 20 19 19 18 17 19 20 18 13 14 13 13 11 9 8 9 8 9 7 7 8 14 13
3 18 5 15 18 20 17 18 23 27 26 34 18 24 28 28 23 20 19 19 18 18 21 20 18 18 18 19 19 18 16 14 13 13 12 7 7 5 7 8 10 12 14 13 11
8 4 5 5 2 18 20 18 19 22 22 31 30 22 28 27 24 21 19 20 19 18 18 21 19 17 17 18 19 19 16 14 13 9 9 7 6 6 8 12 13 13 15 17 17
12 12 10 9 7 11 16 18 19 20 21 25 33 24 29 26 24 23 23 21 20 19 15 18 19 17 16 16 18 15 14 10 9 10 8 8 9 10 11 11 16 17 17 19 20
14 12 10 11 11 5 8 11 18 18 21 20 28 28 25 27 21 26 25 24 22 21 19 20 19 18 16 15 15 12 12 9 8 7 8 9 10 12 13 13 15 16 19 21 21
11 11 10 9 9 7 9 10 14 13 13 16 21 34 17 28 17 25 25 23 23 22 21 18 18 17 15 15 13 11 9 7 7 7 9 10 12 14 16 14 15 15 18 21 22
10 9 10 8 10 10 10 13 14 12 9 12 14 22 21 26 16 25 25 22 20 18 15 13 15 14 16 13 12 8 8 8 8 9 11 12 13 12 16 17 17 17 21 23 23
12 9 14 15 13 14 14 17 19 17 14 23 22 14 23 25 23 28 25 21 19 17 17 14 13 11 11 10 11 7 7 7 7 9 10 11 13 15 17 19 17 19 22 23 28
18 18 13 20 20 20 20 24 24 21 19 17 12 15 10 23 25 26 22 20 18 17 16 16 15 12 12 10 8 6 2 4 7 8 12 13 13 18 19 22 23 24 24 27 28
18 18 20 23 22 21 26 18 33 29 26 19 12 10 4 24 24 26 23 20 19 17 15 14 13 11 10 9 6 6 5 4 9 12 15 18 19 15 18 22 23 23 26 24 22
19 20 17 21 24 27 21 17 24 28 28 18 17 8 14 27 24 24 22 21 18 17 16 14 13 12 9 6 5 4 5 8 13 16 22 21 22 16 19 24 22 22 15 17 21
21 21 26 19 24 18 23 25 21 28 27 24 24 19 25 27 24 21 20 20 17 16 15 13 10 9 7 6 5 7 9 10 12 14 20 20 25 20 15 15 11 13 14 16 21
27 26 22 27 22 22 20 30 38 38 40 31 26 27 25 23 20 18 16 18 15 14 14 12 10 9 7 6 6 7 8 9 12 17 18 21 22 8 7 10 10 11 15 18 23
27 28 27 30 23 23 30 35 31 25 25 22 27 22 21 22 17 16 13 14 14 13 12 8 9 8 7 6 6 6 5 8 13 15 8 13 8 15 12 8 13 14 19 22 26
33 40 35 27 30 31 24 14 11 7 6 11 21 16 14 13 18 14 12 11 11 13 7 7 9 7 6 4 3 3 6 10 14 13 14 6 6 4 9 12 13 13 19 21 24
29 27 20 18 14 11 11 10 9 4 9 8 12 16 16 14 14 13 10 10 8 9 6 7 8 5 4 3 1 3 5 10 5 4 4 6 6 8 13 15 12 14 18 21 23
12 8 7 8 7 5 5 6 6 12 14 9 12 14 14 15 14 14 11 10 6 6 6 7 7 5 4 4 2 2 3 2 2 3 5 5 10 18 14 15 13 14 18 20 23
13 5 3 5 4 1 2 6 11 18 11 16 17 14 10 13 12 10 9 8 6 5 7 5 3 7 6 4 2 1 2 1 4 2 4 11 10 5 7 14 11 14 19 21 21
24 19 17 10 6 3 6 16 12 19 22 20 15 8 7 7 8 8 6 4 4 3 2 3 2 7 6 5 4 3 4 5 5 6 4 6 10 14 17 13 10 15 19 21 22
18 18 22 18 16 17 21 21 16 23 18 11 6 6 7 9 5 4 3 4 5 5 4 4 2 5 8 8 10 9 5 3 3 2 5 8 11 16 13 13 13 18 21 28 24
16 17 16 14 16 18 25 25 22 16 13 10 8 7 6 6 7 4 2 4 3 3 3 3 3 4 6 7 7 10 11 7 5 7 4 4 7 7 10 12 20 16 29 26 24
14 13 12 10 10 13 15 16 15 12 14 14 10 10 7 8 5 3 4 2 4 4 3 2 4 6 6 7 8 12 13 11 7 5 10 7 16 18 5 7 11 23 21 23 25
11 11 10 9 11 12 14 12 12 11 7 6 7 5 6 7 3 4 3 2 2 1 1 2 3 5 3 7 15 20 17 19 22 23 23 8 14 13 18 26 25 32 28 27 27
7 5 8 7 6 7 8 6 6 6 5 4 5 5 4 3 2 2 2 2 3 5 7 8 10 12 12 13 13 15 21 23 22 26 30 44 48 42 38 36 34 33 32 32 31
5 4 4 3 3 2 3 3 3 2 2 2 2 2 2 2 3 3 5 7 8 10 11 12 17 19 23 25 28 33 35 36 39 44 38 50 41 41 32 31 29 27 27 28 26
7 4 2 1 1 1 3 2 2 2 3 4 5 4 5 5 8 8 10 11 12 14 15 18 16 23 34 30 22 31 35 36 40 42 44 46 50 27 24 19 22 18 22 24 25
9 7 5 4 6 6 6 5 5 7 8 7 9 9 10 10 12 13 16 17 20 23 25 24 24 22 17 21 34 28 3 8 16 19 21 35 28 24 21 22 16 13 17 21 24